[[{"header":{"parameterUnit":"m.s-1","parameterCategory":1,"la1":30.6,"la2":29.2853,"lo1":-89.7004,"lo2":-87.6739,"dy":0.0162,"dx":0.0183,"nx":112,"ny":82,"refTime":"2024-08-17T12:00:00:Z","depth":0,"parameterNumber":2,"parameterNumberName":"U-component_of_WINDS"},"data":[0.0,0.0,0.0,0.0,0.0,0.0,0.0,0.0,0.0,0.0,0.0,0.0,0.0,0.0,0.0,0.0,0.0,0.0,0.0,0.0,0.0,0.0,0.0,0.0,0.0,0.0,0.0,0.0,0.0,0.0,0.0,0.0,0.0,0.0,0.0,0.0,0.0,0.0,0.0,0.0,0.0,0.0,0.0,0.0,0.0,0.0,0.0,0.0,0.0,0.0,0.0,0.0,0.0,0.0,0.0,0.0,0.0,0.0,0.0,0.0,0.0,0.0,0.0,0.0,0.0,0.0,0.0,0.0,0.0,0.0,0.0,0.0,0.0,0.0,0.0,0.0,0.0,0.0,0.0,0.0,0.0,0.0,0.0,0.0,0.0,0.0,0.0,0.0,0.0,0.0,2.4157,2.284,2.2699,2.2699,2.2699,2.2598,2.2607,2.2783,0.0,0.0,0.0,0.0,0.0,0.0,0.0,0.0,0.0,0.0,0.0,0.0,0.0,0.0,0.0,0.0,0.0,0.0,0.0,0.0,0.0,0.0,0.0,0.0,0.0,0.0,0.0,0.0,0.0,0.0,0.0,0.0,0.0,0.0,0.0,0.0,0.0,0.0,0.0,0.0,0.0,0.0,0.0,0.0,0.0,0.0,0.0,0.0,0.0,0.0,0.0,0.0,0.0,0.0,0.0,0.0,0.0,0.0,0.0,0.0,0.0,0.0,0.0,0.0,0.0,0.0,0.0,0.0,0.0,0.0,0.0,0.0,0.0,0.0,0.0,0.0,0.0,0.0,0.0,0.0,0.0,0.0,0.0,0.0,0.0,0.0,0.0,0.0,0.0,0.0,0.0,0.0,0.0,0.0,0.0,0.0,0.0,0.0,0.0,0.0,0.0,0.0,0.0,0.0,2.2957,2.2736,2.2699,2.2699,2.2699,2.2133,2.2058,2.2765,0.0,0.0,0.0,0.0,0.0,0.0,0.0,0.0,0.0,0.0,0.0,0.0,0.0,0.0,0.0,0.0,0.0,0.0,0.0,0.0,0.0,0.0,0.0,0.0,0.0,0.0,0.0,0.0,0.0,0.0,0.0,0.0,0.0,0.0,0.0,0.0,0.0,0.0,0.0,0.0,0.0,0.0,0.0,0.0,0.0,0.0,0.0,0.0,0.0,0.0,0.0,0.0,0.0,0.0,0.0,0.0,0.0,0.0,0.0,0.0,0.0,0.0,0.0,0.0,0.0,0.0,0.0,0.0,0.0,0.0,0.0,0.0,0.0,0.0,0.0,0.0,0.0,0.0,0.0,0.0,0.0,0.0,0.0,0.0,0.0,0.0,0.0,0.0,0.0,0.0,0.0,0.0,0.0,0.0,0.0,0.0,0.0,0.0,0.0,0.0,0.0,0.0,0.0,2.3164,2.2699,2.2699,2.2699,2.2699,2.2699,2.2012,2.196,2.28,2.2419,0.0,0.0,0.0,0.0,0.0,0.0,0.0,0.0,0.0,0.0,0.0,0.0,0.0,0.0,0.0,0.0,0.0,0.0,0.0,0.0,0.0,0.0,0.0,0.0,0.0,0.0,0.0,0.0,0.0,0.0,0.0,0.0,0.0,0.0,0.0,0.0,0.0,0.0,0.0,0.0,0.0,0.0,0.0,0.0,0.0,0.0,0.0,0.0,0.0,0.0,0.0,0.0,0.0,0.0,0.0,0.0,0.0,0.0,0.0,0.0,0.0,0.0,0.0,0.0,0.0,0.0,0.0,0.0,0.0,0.0,0.0,0.0,0.0,0.0,0.0,0.0,0.0,0.0,0.0,0.0,0.0,0.0,0.0,0.0,0.0,0.0,0.0,0.0,0.0,0.0,0.0,0.0,0.0,0.0,0.0,0.0,0.0,0.0,0.0,0.0,0.0,0.0,2.3357,2.3095,2.2733,2.2543,2.244,2.244,2.1754,2.171,2.2587,2.2066,0.0,0.0,0.0,0.0,0.0,0.0,0.0,0.0,0.0,0.0,0.0,0.0,0.0,0.0,0.0,0.0,0.0,0.0,0.0,0.0,0.0,0.0,0.0,0.0,0.0,0.0,0.0,0.0,0.0,0.0,0.0,0.0,0.0,0.0,0.0,0.0,0.0,0.0,0.0,0.0,0.0,0.0,0.0,0.0,0.0,0.0,0.0,0.0,0.0,0.0,0.0,0.0,0.0,0.0,0.0,0.0,0.0,0.0,0.0,0.0,0.0,0.0,0.0,0.0,0.0,0.0,0.0,0.0,0.0,0.0,0.0,0.0,0.0,0.0,0.0,0.0,0.0,0.0,0.0,0.0,0.0,0.0,0.0,0.0,0.0,0.0,0.0,0.0,0.0,0.0,0.0,0.0,0.0,0.0,0.0,0.0,0.0,0.0,0.0,0.0,0.0,0.0,2.3921,2.4217,2.285,2.2099,2.1671,2.1671,2.0938,2.0874,2.1817,2.1823,0.0,0.0,0.0,0.0,0.0,0.0,0.0,0.0,0.0,0.0,0.0,0.0,0.0,0.0,0.0,0.0,0.0,0.0,0.0,0.0,0.0,0.0,0.0,0.0,0.0,0.0,0.0,0.0,0.0,0.0,0.0,0.0,0.0,0.0,0.0,0.0,0.0,0.0,0.0,0.0,0.0,0.0,0.0,0.0,0.0,0.0,0.0,0.0,0.0,0.0,0.0,0.0,0.0,0.0,0.0,0.0,0.0,0.0,0.0,0.0,0.0,0.0,0.0,0.0,0.0,0.0,0.0,0.0,0.0,0.0,0.0,0.0,0.0,0.0,0.0,0.0,0.0,0.0,0.0,0.0,0.0,0.0,0.0,0.0,0.0,0.0,0.0,0.0,0.0,0.0,0.0,0.0,0.0,0.0,0.0,0.0,0.0,0.0,0.0,0.0,0.0,0.0,2.3522,2.3777,0.0,2.2047,2.1602,2.1602,2.0441,2.0307,2.1712,0.0,0.0,0.0,0.0,0.0,0.0,0.0,0.0,0.0,0.0,0.0,0.0,0.0,0.0,0.0,0.0,0.0,0.0,0.0,0.0,0.0,0.0,0.0,0.0,0.0,0.0,0.0,0.0,0.0,0.0,0.0,0.0,0.0,0.0,0.0,0.0,0.0,0.0,0.0,0.0,0.0,0.0,0.0,0.0,0.0,0.0,0.0,0.0,0.0,0.0,0.0,0.0,0.0,0.0,0.0,0.0,0.0,0.0,0.0,0.0,0.0,0.0,0.0,0.0,0.0,0.0,0.0,0.0,0.0,0.0,0.0,0.0,0.0,0.0,0.0,0.0,0.0,0.0,0.0,0.0,0.0,0.0,0.0,0.0,0.0,0.0,0.0,0.0,0.0,0.0,0.0,0.0,0.0,0.0,0.0,0.0,0.0,0.0,0.0,0.0,0.0,0.0,2.2685,2.3411,2.3676,0.0,2.1807,2.1216,2.1216,2.0041,1.9915,2.1329,0.0,0.0,0.0,0.0,0.0,0.0,0.0,0.0,0.0,0.0,0.0,0.0,0.0,0.0,0.0,0.0,0.0,0.0,0.0,0.0,0.0,0.0,0.0,0.0,0.0,0.0,0.0,0.0,0.0,0.0,0.0,0.0,0.0,0.0,0.0,0.0,0.0,0.0,0.0,0.0,0.0,0.0,0.0,0.0,0.0,0.0,0.0,0.0,0.0,0.0,0.0,0.0,0.0,0.0,0.0,0.0,0.0,0.0,0.0,0.0,0.0,0.0,0.0,0.0,0.0,0.0,0.0,0.0,0.0,0.0,0.0,0.0,0.0,0.0,0.0,0.0,0.0,0.0,0.0,0.0,0.0,0.0,0.0,0.0,0.0,0.0,0.0,0.0,0.0,0.0,0.0,0.0,0.0,0.0,0.0,0.0,0.0,0.0,0.0,0.0,0.0,0.0,2.2672,2.378,2.4164,2.2753,2.1273,2.0397,2.0397,1.9728,1.9667,0.0,0.0,0.0,0.0,0.0,0.0,0.0,0.0,0.0,0.0,0.0,0.0,0.0,0.0,0.0,0.0,0.0,0.0,0.0,0.0,0.0,0.0,0.0,0.0,0.0,0.0,0.0,0.0,0.0,0.0,0.0,0.0,0.0,0.0,0.0,0.0,0.0,0.0,0.0,0.0,0.0,0.0,0.0,0.0,0.0,0.0,0.0,0.0,0.0,0.0,0.0,0.0,0.0,0.0,0.0,0.0,0.0,0.0,0.0,0.0,0.0,0.0,0.0,0.0,0.0,0.0,0.0,0.0,0.0,0.0,0.0,0.0,0.0,0.0,0.0,0.0,0.0,0.0,0.0,0.0,0.0,0.0,0.0,0.0,0.0,0.0,0.0,0.0,0.0,0.0,0.0,0.0,0.0,0.0,0.0,0.0,0.0,0.0,0.0,0.0,0.0,0.0,0.0,2.2619,2.3765,2.4164,2.2753,2.1273,2.0397,2.0397,1.9249,1.9117,2.0509,0.0,0.0,0.0,0.0,0.0,0.0,0.0,0.0,0.0,0.0,0.0,0.0,0.0,0.0,0.0,0.0,0.0,0.0,0.0,0.0,0.0,0.0,0.0,0.0,0.0,0.0,0.0,0.0,0.0,0.0,0.0,0.0,0.0,0.0,0.0,0.0,0.0,0.0,0.0,0.0,0.0,0.0,0.0,0.0,0.0,0.0,0.0,0.0,0.0,0.0,0.0,0.0,0.0,0.0,0.0,0.0,0.0,0.0,0.0,0.0,0.0,0.0,0.0,0.0,0.0,0.0,0.0,0.0,0.0,0.0,0.0,0.0,0.0,0.0,0.0,0.0,0.0,0.0,0.0,0.0,0.0,0.0,0.0,0.0,0.0,0.0,0.0,0.0,0.0,0.0,0.0,0.0,0.0,0.0,0.0,0.0,0.0,0.0,0.0,0.0,0.0,0.0,2.2532,2.371,2.412,2.2709,2.1246,2.0365,2.0397,1.9042,1.8884,2.0454,0.0,0.0,0.0,0.0,0.0,0.0,0.0,0.0,0.0,0.0,0.0,0.0,0.0,0.0,0.0,0.0,0.0,0.0,0.0,0.0,0.0,0.0,0.0,0.0,0.0,0.0,0.0,0.0,0.0,0.0,0.0,0.0,0.0,0.0,0.0,0.0,0.0,0.0,0.0,0.0,0.0,0.0,0.0,0.0,0.0,0.0,0.0,0.0,0.0,0.0,0.0,0.0,0.0,0.0,0.0,0.0,0.0,0.0,0.0,0.0,0.0,0.0,0.0,0.0,0.0,0.0,0.0,0.0,0.0,0.0,0.0,0.0,0.0,0.0,0.0,0.0,0.0,0.0,0.0,0.0,0.0,0.0,0.0,0.0,0.0,0.0,0.0,0.0,0.0,0.0,0.0,0.0,0.0,0.0,0.0,0.0,0.0,0.0,0.0,0.0,0.0,0.0,2.2486,2.3644,2.4054,2.2644,2.1183,2.0334,2.0388,1.9042,1.8831,2.0307,0.0,0.0,0.0,0.0,0.0,0.0,0.0,0.0,0.0,0.0,0.0,0.0,0.0,0.0,0.0,0.0,0.0,0.0,0.0,0.0,0.0,0.0,0.0,0.0,0.0,0.0,0.0,0.0,0.0,0.0,0.0,0.0,0.0,0.0,0.0,0.0,0.0,0.0,0.0,0.0,0.0,0.0,0.0,0.0,0.0,0.0,0.0,0.0,0.0,0.0,0.0,0.0,0.0,0.0,0.0,0.0,0.0,0.0,0.0,0.0,1.8179,1.7981,0.0,0.0,0.0,0.0,0.0,0.0,0.0,0.0,0.0,0.0,0.0,0.0,0.0,0.0,0.0,0.0,0.0,0.0,0.0,0.0,0.0,0.0,0.0,0.0,0.0,0.0,0.0,0.0,0.0,0.0,0.0,0.0,0.0,0.0,0.0,0.0,0.0,0.0,0.0,0.0,2.2479,2.3644,2.4054,2.2644,2.1183,2.0334,2.0388,1.9042,1.8609,1.9568,1.9397,0.0,0.0,0.0,0.0,0.0,0.0,0.0,0.0,0.0,0.0,0.0,0.0,0.0,0.0,0.0,0.0,0.0,0.0,0.0,0.0,0.0,0.0,0.0,0.0,0.0,0.0,0.0,0.0,0.0,0.0,0.0,0.0,0.0,0.0,0.0,0.0,0.0,0.0,0.0,0.0,0.0,0.0,0.0,0.0,0.0,0.0,0.0,0.0,0.0,0.0,0.0,0.0,0.0,0.0,0.0,0.0,0.0,0.0,0.0,1.9271,1.9038,0.0,0.0,0.0,0.0,0.0,0.0,0.0,0.0,0.0,0.0,0.0,0.0,0.0,0.0,0.0,0.0,0.0,0.0,0.0,0.0,0.0,0.0,0.0,0.0,0.0,0.0,0.0,0.0,0.0,0.0,0.0,0.0,0.0,0.0,0.0,0.0,0.0,0.0,0.0,0.0,2.2445,2.3317,2.3633,2.261,2.1503,2.0715,2.0423,1.9367,1.8903,1.9333,1.9076,0.0,0.0,0.0,0.0,0.0,0.0,0.0,0.0,0.0,0.0,0.0,0.0,0.0,0.0,0.0,0.0,0.0,0.0,0.0,0.0,0.0,0.0,0.0,0.0,0.0,0.0,0.0,0.0,0.0,0.0,0.0,0.0,0.0,0.0,0.0,0.0,0.0,0.0,0.0,0.0,0.0,0.0,0.0,0.0,0.0,0.0,0.0,0.0,0.0,0.0,0.0,0.0,0.0,1.9475,1.945,1.9547,1.9456,1.9767,2.037,2.0529,2.0215,1.96,2.0124,0.0,0.0,0.0,0.0,0.0,0.0,0.0,0.0,0.0,0.0,0.0,0.0,0.0,0.0,0.0,0.0,0.0,0.0,0.0,0.0,0.0,0.0,2.2201,2.1937,2.2752,2.3394,2.2682,0.0,0.0,0.0,0.0,0.0,0.0,0.0,0.0,0.0,0.0,0.0,2.2455,2.2973,2.3156,2.2559,2.1829,2.1177,2.0646,1.9806,1.9298,1.9298,1.8799,1.9037,0.0,0.0,0.0,0.0,0.0,0.0,0.0,0.0,0.0,0.0,0.0,0.0,0.0,0.0,0.0,0.0,0.0,0.0,0.0,0.0,0.0,0.0,0.0,0.0,0.0,0.0,0.0,0.0,0.0,0.0,0.0,0.0,1.6153,1.6765,0.0,0.0,0.0,0.0,0.0,0.0,0.0,0.0,0.0,0.0,0.0,0.0,0.0,1.8626,1.8115,1.9639,2.0444,2.0556,2.216,2.294,2.2936,2.2471,2.2382,2.2585,2.2613,0.0,2.0572,2.027,0.0,0.0,0.0,0.0,0.0,0.0,0.0,0.0,0.0,0.0,0.0,0.0,0.0,0.0,0.0,0.0,0.0,0.0,0.0,0.0,0.0,0.0,2.2963,2.2909,2.2663,2.2528,2.2928,2.2871,2.2778,2.2906,2.2477,2.2288,0.0,0.0,0.0,0.0,0.0,0.0,2.2694,2.3049,2.3155,2.2486,2.1816,2.1386,2.1363,2.0092,1.9298,1.9298,1.9264,1.9327,1.9452,1.9784,0.0,0.0,0.0,0.0,0.0,0.0,0.0,0.0,0.0,0.0,0.0,0.0,0.0,0.0,0.0,0.0,0.0,0.0,0.0,0.0,0.0,0.0,0.0,0.0,0.0,0.0,0.0,0.0,0.0,1.6049,1.6932,1.7374,1.7821,1.8042,0.0,0.0,0.0,0.0,0.0,0.0,0.0,0.0,0.0,2.0068,1.9436,1.9277,1.965,2.0285,2.0745,2.1051,2.1986,2.246,2.2519,2.2291,2.2247,2.2385,2.2462,2.2327,2.1994,2.1576,2.1588,2.183,0.0,0.0,0.0,0.0,2.1351,2.1711,2.2186,2.2411,2.2478,2.2494,0.0,0.0,0.0,0.0,0.0,0.0,0.0,2.1975,2.1898,2.2464,2.2957,2.2621,2.28,2.3125,2.3385,2.3191,2.3081,2.3465,2.3374,2.3272,2.3408,2.3383,0.0,0.0,0.0,2.3237,2.2414,2.2747,2.2826,2.2191,2.2058,2.1882,2.1525,2.0424,1.9618,1.9326,1.8798,1.8733,1.9278,1.9645,2.0096,0.0,0.0,0.0,0.0,0.0,0.0,0.0,0.0,0.0,0.0,0.0,0.0,0.0,0.0,0.0,0.0,0.0,0.0,0.0,0.0,0.0,0.0,0.0,0.0,0.0,0.0,0.0,0.0,1.6692,1.7391,1.7847,1.8418,1.8568,0.0,0.0,0.0,0.0,0.0,0.0,1.9881,1.9859,2.0254,2.1167,2.0324,2.0154,2.0763,2.0646,2.0714,2.0998,2.1264,2.1539,2.1804,2.1804,2.1973,2.2294,2.2387,2.2702,2.3121,2.2754,2.2749,2.289,2.1996,2.1983,2.2406,2.1969,2.2075,2.2505,2.2857,2.3169,2.3356,2.2924,2.2698,2.2465,2.1864,0.0,0.0,0.0,0.0,2.2259,2.1813,2.2343,2.2843,2.2238,2.2626,2.3152,2.3318,2.3111,2.3121,2.3893,2.3996,2.3927,2.3887,2.3844,0.0,0.0,0.0,2.3055,2.2665,2.2614,2.2494,2.2195,2.2208,2.2043,2.1532,2.0796,2.0144,1.9662,1.8836,1.8649,1.9295,1.9652,2.0102,2.0679,0.0,0.0,0.0,0.0,0.0,0.0,0.0,0.0,0.0,0.0,0.0,0.0,0.0,0.0,0.0,0.0,0.0,0.0,0.0,0.0,0.0,0.0,0.0,0.0,0.0,0.0,0.0,0.0,0.0,1.7832,1.8712,0.0,0.0,0.0,0.0,1.9574,2.003,2.0608,2.1266,2.1297,2.1347,2.148,2.142,2.0902,1.9873,2.0482,2.0575,2.0169,2.0809,2.146,2.2083,2.2083,2.2542,2.3322,2.3329,2.3423,2.3546,2.327,2.3497,2.4013,2.3961,2.3955,2.3989,2.3963,2.3955,2.3945,2.3591,2.3105,2.2676,2.2771,2.2411,2.2045,2.2571,2.2325,0.0,0.0,2.3598,2.3597,2.3564,2.3285,2.2843,2.2238,2.1799,2.1673,2.2242,2.2344,2.2758,2.4192,2.3954,2.3774,2.4524,0.0,2.4503,2.411,2.3893,2.3814,2.3989,2.2912,2.2321,2.2795,2.2076,2.1541,2.1509,2.1227,2.0898,2.0562,2.0136,1.9741,1.941,1.9717,1.9968,2.0146,1.9434,0.0,0.0,0.0,0.0,0.0,0.0,0.0,0.0,0.0,0.0,0.0,0.0,0.0,0.0,0.0,0.0,0.0,0.0,0.0,0.0,0.0,0.0,0.0,0.0,0.0,0.0,0.0,0.0,1.8976,1.9619,0.0,1.9303,1.9846,2.0045,1.9605,2.0537,2.1214,2.1456,2.1467,2.1475,2.1496,2.1041,2.0605,2.0193,2.0891,2.1014,2.0557,2.1234,2.1517,2.1467,2.1904,2.2349,2.2793,2.3295,2.3634,2.3791,2.3789,2.3857,2.394,2.3644,2.3516,2.3516,2.3516,2.3516,2.3504,2.3358,2.3425,2.3569,2.3613,2.3482,2.3365,2.3675,2.3552,2.3416,2.3933,2.3732,2.3299,2.2944,2.2578,2.2143,2.1536,2.1408,2.1459,2.1669,2.1723,2.209,2.3359,2.3718,2.3973,2.4436,2.4405,2.4221,2.3951,2.3766,2.357,2.3302,2.3151,2.2966,2.2723,2.2332,2.2085,2.2085,2.1088,2.0489,2.0536,1.9788,1.9377,1.9394,1.9647,1.9755,1.9708,1.9583,1.9147,0.0,0.0,0.0,0.0,0.0,0.0,0.0,0.0,0.0,0.0,0.0,0.0,0.0,0.0,0.0,0.0,0.0,0.0,0.0,0.0,0.0,0.0,0.0,0.0,0.0,0.0,1.9105,1.9702,2.0147,2.0233,1.9781,2.0283,2.0469,2.0074,2.1015,2.1603,2.1603,2.1603,2.1603,2.1603,2.1123,2.0796,2.064,2.0958,2.0893,2.0475,2.0756,2.0848,2.0781,2.1223,2.1788,2.2445,2.3154,2.3593,2.3817,2.4153,2.4135,2.3874,2.3609,2.3503,2.3503,2.3503,2.3503,2.3477,2.3268,2.3347,2.3524,2.3524,2.3648,2.3812,2.3908,2.4009,2.4119,2.421,2.3884,2.3379,2.2818,2.2536,2.222,2.1474,2.163,2.1905,2.1738,2.186,2.2286,2.3218,2.3555,2.3816,2.4171,2.4124,2.3944,2.3665,2.3556,2.3461,2.335,2.3329,2.3232,2.3009,2.2615,2.2281,2.2075,2.1299,2.0715,2.0508,2.0,1.9822,2.0059,1.9743,1.9588,1.9625,1.9477,1.9096,1.8507,0.0,0.0,0.0,0.0,0.0,0.0,0.0,0.0,0.0,0.0,0.0,0.0,0.0,0.0,0.0,0.0,0.0,0.0,0.0,0.0,0.0,0.0,0.0,1.8183,1.9128,1.986,1.9925,2.0237,2.0383,2.026,2.0777,2.1116,2.1116,2.1539,2.1798,2.1798,2.1798,2.1798,2.1798,2.1798,2.157,2.1106,2.0651,2.0213,1.9793,1.9347,1.9456,2.0063,2.0099,2.0921,2.2365,2.2934,2.3337,2.3663,2.4405,2.4403,2.3972,2.4065,2.4098,2.4098,2.4098,2.4098,2.4019,2.3424,2.2891,2.2447,2.2447,2.2806,2.3236,2.3236,2.364,2.4098,2.4098,2.4084,2.3948,2.336,2.3296,2.3138,2.2166,2.2483,2.2882,2.243,2.2788,2.3365,2.3892,2.3521,2.3295,2.3843,2.3926,2.3795,2.3426,2.3341,0.0,2.4307,2.3478,2.3066,2.3651,2.2878,2.2082,2.1503,2.1906,2.1715,2.0625,2.0901,2.1216,2.1426,2.0111,1.9553,1.9938,1.9084,1.885,1.9292,0.0,0.0,0.0,0.0,0.0,0.0,0.0,0.0,0.0,0.0,0.0,0.0,0.0,0.0,0.0,0.0,0.0,0.0,0.0,0.0,0.0,1.9272,1.973,1.9376,2.0154,2.0746,2.077,2.1153,2.1396,2.136,2.1511,2.1612,2.1612,2.1725,2.1798,2.1798,2.1798,2.1798,2.1798,2.1798,2.157,2.1106,2.0971,2.0534,1.9801,1.9677,1.9531,1.9388,1.9879,2.0376,2.0942,2.211,2.3019,2.3736,2.4423,2.4938,2.5199,2.4402,2.4098,2.4098,2.4098,2.4098,2.4084,2.3915,2.3752,2.3629,2.3629,2.3726,2.3855,2.3855,2.3967,2.4098,2.4098,2.3891,2.3636,2.3465,2.3261,2.3045,2.2756,2.2922,2.3108,2.2971,2.3086,2.33,2.3636,2.3726,2.3914,2.4464,2.4549,2.4587,2.4676,2.4257,2.4104,2.4494,2.3954,2.3621,2.3892,2.3299,2.2854,2.2781,2.2077,2.1697,2.1869,2.1528,2.1532,2.2039,2.1589,2.1249,2.1058,1.9822,1.9167,0.0,0.0,0.0,0.0,0.0,0.0,0.0,0.0,0.0,0.0,0.0,0.0,0.0,0.0,0.0,0.0,0.0,0.0,0.0,0.0,0.0,0.0,2.0236,2.0681,2.0645,2.1073,2.1394,2.1394,2.1632,2.1798,2.1798,2.1798,2.1798,2.1798,2.1798,2.1798,2.1798,2.1798,2.1798,2.1798,2.1798,2.157,2.1106,2.0899,2.0462,1.9801,1.9666,1.9452,1.92,1.9668,2.0131,2.0608,2.1649,2.2455,2.3116,2.4274,2.4861,2.5009,0.0,0.0,0.0,0.0,2.4098,2.4098,2.4098,2.4098,2.4098,2.4098,2.4098,2.4112,2.4172,2.4181,2.4195,2.4294,2.4144,2.3958,2.3958,2.3818,2.3621,2.3413,2.3629,2.3811,2.3622,2.3885,2.4237,2.451,2.4778,0.0,2.5559,2.5199,2.4904,2.5095,2.4829,2.4589,2.4532,2.4294,2.4086,2.3923,2.3602,2.3356,2.3232,2.2592,0.0,0.0,0.0,2.1609,2.1228,2.1373,0.0,0.0,0.0,0.0,0.0,0.0,0.0,0.0,1.8225,1.8056,0.0,0.0,0.0,0.0,0.0,0.0,0.0,0.0,0.0,0.0,0.0,0.0,0.0,0.0,0.0,0.0,2.0868,2.1322,2.1736,2.1798,2.1798,2.1798,2.1798,2.1798,2.1798,2.1798,2.1798,2.1798,2.1817,2.1836,2.1836,2.1864,0.0,0.0,0.0,2.1625,2.1087,2.0683,2.0234,1.977,1.9473,1.9335,1.9332,1.9514,2.0023,2.0781,2.1334,2.1758,2.2192,2.3861,2.4377,2.4159,2.4832,2.505,2.494,2.44,2.4163,2.4098,2.4098,0.0,0.0,2.4098,2.4112,2.4136,2.4256,2.4299,2.4336,2.4535,2.4613,2.462,2.462,2.4634,2.4543,2.4126,2.443,2.4714,2.4299,2.4881,2.5578,2.5812,2.6103,2.6391,2.6686,2.5844,2.5139,2.5208,2.5286,2.5144,2.4682,2.4615,2.441,2.3952,2.3853,0.0,2.3239,2.3238,2.3036,2.2519,2.2478,2.1765,2.0196,2.0557,2.0588,2.0147,1.972,2.0111,2.1316,2.0624,2.0405,2.0556,1.9126,1.8496,0.0,0.0,0.0,0.0,0.0,0.0,0.0,0.0,0.0,0.0,0.0,0.0,0.0,0.0,0.0,2.0877,2.1363,2.1694,2.1797,2.1798,2.1798,2.1798,2.1798,2.1798,2.1798,2.1798,2.1798,2.1798,2.195,2.2034,2.2034,2.2206,2.228,2.228,2.228,2.1878,2.1035,2.092,2.0464,1.9635,1.9565,0.0,1.9539,1.958,1.9687,1.9884,2.0534,2.1178,2.1843,2.2734,2.3711,2.4717,2.5379,2.538,2.4992,2.4867,2.4525,2.4098,2.4098,2.4172,2.424,2.4141,2.4172,2.4276,2.4292,2.4299,0.0,2.4535,2.4684,2.4757,2.4757,2.4835,2.49,2.4813,2.4881,2.4943,2.4855,2.5182,2.5515,2.5571,2.5961,2.6316,2.6384,2.6424,2.6468,2.6591,2.6277,2.6009,2.6007,2.5196,2.4605,2.4607,2.4123,2.3806,2.3811,2.3356,2.3234,2.365,2.3577,2.3305,2.2857,2.2281,2.2022,2.2142,2.1283,2.0806,2.0751,2.082,2.0554,1.9956,1.9106,1.9132,0.0,0.0,0.0,0.0,0.0,0.0,0.0,0.0,0.0,0.0,0.0,1.9658,2.0335,0.0,2.0899,2.1374,2.1643,2.1798,2.1798,2.1676,2.1642,2.1776,2.1591,2.1577,2.1919,2.1742,2.1841,2.2406,2.2544,2.2706,2.2947,2.2823,2.2744,2.2744,2.2521,2.2063,2.1362,2.1119,2.0651,1.995,1.9813,1.9745,1.9745,1.9821,1.9854,1.987,2.0194,2.0562,2.0964,2.1946,2.3286,2.4756,2.5245,2.5432,2.5401,2.5401,2.5202,2.4907,2.4648,2.4642,2.4694,2.4316,2.4311,2.4457,2.4529,2.455,2.4586,2.475,2.4849,2.4899,2.4899,2.4948,2.4998,2.4998,2.4998,2.5047,2.5209,2.5495,2.5736,2.5873,2.6252,2.6552,2.6552,2.6686,2.6812,2.6892,2.6732,2.6529,2.633,2.583,2.53,2.4762,2.44,2.4115,2.3912,2.3643,2.3607,2.3883,2.3839,2.3535,2.2971,2.2538,2.2192,2.1948,2.1457,2.1099,2.0898,2.0973,2.091,2.0743,2.0337,2.0332,0.0,0.0,0.0,0.0,0.0,0.0,0.0,0.0,1.9081,2.0105,2.0312,2.0572,2.1363,2.1508,2.1632,2.2014,2.2076,2.2045,2.1952,2.167,2.1538,2.1697,2.1425,2.1435,2.197,2.1768,2.198,2.2895,2.3081,2.3324,2.3695,2.3501,2.3371,2.3371,2.3006,2.2578,2.2097,2.1619,2.1151,2.0678,2.028,2.0144,2.0231,2.0137,2.0153,2.0249,2.0153,2.0153,2.0339,2.1454,2.2929,2.4527,2.488,2.5394,2.5907,2.5804,2.5687,2.5519,2.5089,2.5116,2.5222,2.4705,2.4744,2.5011,2.5127,2.5142,2.5178,2.5308,2.5351,2.5351,2.5351,2.5351,2.5351,2.5351,2.5401,2.5529,2.5797,2.6022,2.6247,2.6449,2.6659,2.6792,2.6792,2.6792,2.6792,2.6792,2.6945,2.6876,2.6455,2.6421,2.6075,2.5086,2.4874,2.4575,2.3995,2.4167,2.4214,2.3966,2.4059,2.3732,2.2903,2.2845,2.2479,2.1765,2.1747,2.1687,2.1546,2.1441,2.1562,2.1877,2.1878,2.1673,1.7688,1.7699,1.7996,1.9247,1.8976,1.8926,0.0,0.0,2.0558,2.1911,2.22,2.2355,2.2873,2.2966,2.2987,2.3028,2.3039,2.2904,2.248,2.2044,2.1675,2.1468,2.1559,2.1656,2.1737,2.2067,2.2342,2.2477,2.3024,2.3388,2.3432,2.4025,2.434,2.434,2.4285,2.4003,2.3474,2.3003,2.2535,2.2078,2.1204,2.1002,2.1378,2.05,2.0363,2.0776,2.0312,2.0374,2.085,2.1409,2.2601,2.4108,2.4561,2.5401,2.6278,2.5799,2.5279,2.481,2.4747,2.5165,2.5691,2.5449,2.5824,2.6384,2.6385,2.6407,2.6423,2.6559,2.6597,2.6597,2.6597,2.6597,2.6597,2.6597,2.6824,2.7055,2.7092,2.7123,2.714,2.7189,2.6976,2.6792,2.6792,2.6792,2.6792,2.6792,2.7028,2.7158,2.7097,2.6794,2.653,2.6393,2.5833,2.5214,2.4567,2.5063,2.5159,2.4547,2.4963,2.5115,2.4888,2.4766,2.4388,2.3695,2.3683,2.3383,2.2801,2.2788,2.2684,2.2511,2.3025,2.2855,1.9085,1.9277,0.0,0.0,2.0058,2.0224,2.1177,2.1301,2.1456,2.2325,2.2718,2.2966,2.3163,2.3194,2.3194,0.0,2.3295,2.3313,2.3115,2.264,2.2281,2.2163,2.2327,2.2302,2.1913,2.2054,2.2445,2.3108,2.3421,2.3828,2.4422,2.448,2.4637,2.49,2.4638,2.4388,2.417,2.3659,2.331,2.3093,2.2162,2.1811,2.1977,2.1289,2.1218,2.1652,2.163,2.1744,2.1964,2.2161,2.2819,2.3755,2.414,2.4763,2.5511,2.5911,2.5916,2.5636,2.5327,2.5485,2.5725,2.5288,2.5437,2.5793,2.5793,2.5793,2.5858,2.6236,2.6336,2.6413,2.6724,2.6945,2.7097,2.7097,2.7351,2.7625,2.7785,2.7811,2.7875,2.8079,2.7684,2.7317,2.7317,2.7033,2.6792,2.6792,2.6963,2.7112,2.7188,2.7123,2.6955,2.6632,2.6004,2.5483,2.5214,2.5438,2.5483,2.5193,2.5327,2.5337,2.5203,2.5071,2.4687,2.4011,2.3998,2.3719,2.3115,2.3036,2.3118,2.3358,2.3535,2.3604,2.0101,0.0,0.0,2.0618,2.0893,2.1127,2.1261,2.1662,2.2128,2.2604,2.307,2.3442,2.3628,2.3669,2.369,2.3731,2.3874,2.3924,2.3797,2.3219,2.2831,2.2898,2.292,2.2823,2.2502,2.2471,2.2864,2.3846,2.3921,2.4301,2.5151,2.5009,2.5043,2.5381,2.5065,2.489,2.489,2.4367,2.4107,2.4105,2.3266,2.2946,2.3056,2.2555,2.2322,2.2349,2.2591,2.2779,2.2914,2.2914,2.3297,2.3888,2.4123,2.4508,2.5037,2.5812,2.6096,2.6037,2.5648,2.5686,2.5858,2.5561,2.5683,2.5921,2.5921,2.6026,2.6194,2.6425,2.6669,2.6936,2.7321,2.7675,2.7925,2.7925,2.8188,2.8491,2.8674,2.8648,2.8663,2.8906,2.8412,2.7985,2.7985,2.7455,2.7041,2.7041,2.7047,2.7093,2.7188,2.7355,2.7316,2.6922,2.6443,2.6078,2.5899,2.6007,2.6019,2.5834,2.5827,2.5803,2.5696,2.5564,2.5213,2.4645,2.4563,2.4298,2.3837,2.3635,2.3764,2.4146,2.4055,2.4226,0.0,0.0,2.0231,2.1138,2.1232,2.1229,2.1683,2.2149,2.2604,2.308,2.3556,2.4085,2.4735,2.485,2.4914,2.5115,2.5147,2.4998,2.453,2.3668,2.3162,2.3365,2.3042,2.303,2.3587,2.3651,2.3877,2.4421,2.4475,2.4692,2.5172,2.5622,2.5863,2.5884,2.5863,2.5863,2.5863,2.5392,2.5151,2.515,2.4605,2.4574,2.498,2.4392,2.3604,2.2687,2.2695,2.2995,2.3478,2.3478,2.3984,2.4757,2.4766,2.4978,2.5294,2.5329,2.5326,2.5326,2.5305,2.5692,2.6264,2.6769,2.7291,2.7715,2.7715,2.8081,2.8395,2.7893,2.8344,2.9012,2.9028,2.928,2.9523,2.9523,2.9793,3.0023,3.0039,2.9793,2.9566,2.9573,2.9087,2.8666,2.8666,2.8122,2.7666,2.7666,2.7395,2.7201,2.7201,2.7429,2.7585,2.757,2.754,2.7285,2.6623,2.7058,2.7075,2.6417,2.6741,2.6945,2.6945,2.6827,2.6574,2.6247,2.5972,2.5708,2.5425,2.5098,2.4879,2.4765,2.4779,2.4708,0.0,0.0,2.1282,2.1907,2.201,2.209,2.2564,2.3028,2.3502,2.3976,2.4197,2.4366,2.4597,2.4628,2.466,2.4722,2.5156,2.5411,2.5249,2.4802,2.4513,2.4594,2.4462,0.0,2.4682,2.441,0.0,2.4485,2.4496,2.4693,2.5172,2.5348,2.5588,2.5884,2.6166,2.6301,2.6301,2.6453,2.6526,2.6515,2.6029,2.5719,2.5556,2.5215,2.4881,2.4558,2.4451,2.4527,2.4696,2.4696,2.4865,2.5129,2.5129,2.5209,2.5303,2.5303,2.5303,2.5303,2.5303,2.5435,2.5637,2.5809,2.5991,2.6135,2.6135,2.6264,2.6466,2.6684,2.7011,2.7384,2.7746,2.8552,2.9265,2.9265,2.9852,3.0431,3.0431,3.0341,3.0256,3.0256,2.974,2.9298,2.9298,2.8782,2.8236,2.7889,2.7405,2.7164,2.7429,2.7469,2.7501,2.7593,2.7606,2.751,2.7279,2.7356,2.7297,2.7083,2.702,2.6997,2.6997,2.6873,2.6646,2.6303,2.6036,2.5771,2.5494,2.5159,2.4977,2.4927,2.4927,2.4906,2.1501,2.1864,2.1917,2.2398,2.2577,2.2733,2.3031,2.3457,2.3892,2.419,2.4244,2.4264,2.4336,2.4367,2.443,2.4703,2.5148,2.5511,2.5674,2.5561,2.5502,2.5676,2.5709,2.5764,0.0,0.0,0.0,2.5262,2.5251,2.5454,2.5936,2.5947,2.6086,2.6364,2.6621,2.6755,2.6755,2.7052,2.7277,2.7451,2.7138,2.682,2.647,2.6351,2.6186,2.5972,2.5711,2.5588,2.5567,2.5375,2.5303,2.5303,2.5303,2.5303,2.5303,2.5303,2.5303,2.5303,2.5303,2.5303,2.5338,2.5558,2.562,2.5637,2.5678,2.5826,2.6074,2.6594,2.7031,2.7492,2.8078,2.8931,2.9635,2.9635,3.0128,3.059,3.059,3.059,3.059,3.059,3.0256,2.9965,2.9965,2.9435,2.8853,2.8329,2.7892,2.7595,2.7541,2.745,2.745,2.7587,2.7606,2.7581,2.7524,2.7406,2.7312,2.726,2.7055,2.6932,2.6932,2.6859,2.6692,2.6485,2.6104,2.5819,2.564,2.5216,2.4998,2.4998,2.4998,2.512,2.2053,2.2178,2.2168,2.2603,2.2915,2.3103,2.3124,2.3486,2.3806,2.3859,2.3827,2.3877,2.4109,0.0,2.4358,2.5088,2.5238,2.5435,2.5874,2.5961,2.6136,0.0,0.0,0.0,0.0,0.0,0.0,2.6747,0.0,2.6832,2.7282,2.7302,2.7277,2.7212,2.7227,2.7236,2.7236,2.7256,2.7482,2.7921,2.7921,2.7862,2.7745,2.7712,2.7411,2.6919,2.6373,2.6142,2.6093,2.5555,2.5339,2.5339,2.5303,2.5303,2.5303,2.5303,2.5303,2.5303,2.5312,2.5312,2.5391,2.5969,2.6164,2.6186,2.6311,2.6748,2.725,2.7562,2.8336,2.9202,2.9835,3.0272,3.0545,3.0545,3.0575,3.059,3.059,3.059,3.059,3.059,3.059,3.059,3.059,3.0074,2.9493,2.9017,2.8823,2.8433,2.7604,2.7469,2.7476,2.7607,2.7608,2.7537,2.7408,2.7265,2.7136,2.7003,2.6873,2.6792,2.6792,2.6792,2.6792,2.6792,2.6226,2.5921,2.5921,2.5321,2.5026,2.5026,2.5046,2.5344,2.214,2.2519,2.2774,2.2894,2.2967,2.3125,2.3464,2.3648,2.3939,2.4685,2.4253,2.3971,2.4767,2.4636,0.0,2.5108,2.5797,0.0,2.6398,2.6715,0.0,2.7108,0.0,2.7173,2.7293,2.7988,0.0,0.0,2.7547,2.7173,2.7283,2.7309,2.7298,2.7279,2.7569,2.7718,2.7718,2.8018,2.8231,2.8353,2.8353,2.8329,2.8274,2.7878,2.7637,2.7459,2.6931,2.67,2.6643,2.6129,2.5901,2.5865,2.5459,2.5303,2.5303,2.5303,2.5303,2.5321,2.5474,2.5439,2.5329,2.5479,2.5629,2.5755,2.5786,2.6342,2.6993,2.7086,2.7739,2.8471,2.8639,2.9273,2.9847,2.9847,3.0236,3.059,3.059,3.059,3.059,3.059,3.059,3.059,3.059,3.0452,3.0132,2.9508,2.9385,2.9194,2.8736,2.8232,2.7928,2.7968,2.7744,2.7505,2.7271,2.722,2.7136,2.7003,2.6873,2.6792,2.6792,2.6792,2.6792,2.6792,2.6398,2.6197,2.6197,2.5647,2.5362,2.5376,2.5574,2.5745,2.2479,2.2805,2.3001,2.3001,2.3145,2.3385,2.3639,2.3877,2.4204,2.478,2.4443,0.0,2.479,2.4681,0.0,0.0,0.0,0.0,2.6562,2.7173,2.761,0.0,2.8008,0.0,2.8264,2.8959,2.941,0.0,2.8892,2.8578,2.8563,2.8565,2.8447,2.8188,2.8404,2.8398,2.8173,2.8391,2.85,2.85,2.85,2.85,2.8488,2.82,2.8046,2.8022,2.7483,2.7255,2.7207,2.6664,2.6313,2.6078,2.5871,2.5632,2.5447,2.5527,2.5562,2.5579,2.5697,2.565,2.5562,2.5562,2.5641,2.5749,2.5837,2.6198,2.6663,2.7065,2.7521,2.8035,2.865,2.921,2.9669,2.9962,3.0319,3.059,3.059,3.059,3.059,3.059,3.059,3.059,3.059,3.059,3.0466,3.0103,3.0045,2.9973,2.9775,2.8989,2.8465,2.8525,2.8368,2.8174,2.7963,2.7685,2.7458,2.7313,2.6992,2.6792,2.6792,2.6792,2.6792,2.6792,2.6472,2.6439,2.6746,2.6287,2.6147,2.6296,2.6447,2.6586,2.2892,2.3001,2.3001,2.3001,2.3308,2.3615,2.3615,2.4028,2.441,2.4485,0.0,2.454,2.466,2.4627,2.4758,2.5217,0.0,2.6158,2.6627,2.7446,2.8035,2.8101,2.8931,2.9497,2.9497,2.9977,3.0295,3.0295,3.0363,3.0336,3.0205,3.02,2.992,2.932,2.9304,2.9076,2.8609,2.8609,2.8609,2.8609,2.8536,2.85,2.85,2.85,2.85,2.8476,2.801,2.7806,2.7769,2.7231,2.6688,2.622,2.6351,2.6071,2.5623,2.5832,2.5902,2.5902,2.5928,2.5945,2.5936,2.591,2.5919,2.5971,2.6153,2.6279,2.6521,2.7284,2.7554,2.7942,2.9257,2.9599,2.977,3.044,3.059,3.059,3.059,3.059,3.059,3.059,3.059,3.059,3.059,3.059,3.059,3.059,3.059,3.059,3.059,2.9667,2.9065,2.9154,2.9136,2.9043,2.8892,2.8358,2.7982,2.784,2.7345,2.7054,2.7054,2.7054,2.7054,2.7054,2.6777,2.6901,2.7488,2.7145,2.7135,2.7419,2.7465,2.761,2.2979,2.3001,2.3001,2.3001,2.3057,2.3112,2.3112,2.3485,0.0,0.0,2.4496,2.4737,2.5513,2.5338,2.5228,2.5709,0.0,0.0,0.0,0.0,2.8166,0.0,0.0,0.0,0.0,0.0,0.0,0.0,3.1195,3.108,3.0248,3.02,2.992,2.932,2.9304,2.9266,2.916,2.916,2.916,2.916,2.8705,2.85,2.85,2.85,2.85,2.8488,2.8404,2.8358,2.832,2.7781,2.7253,2.6733,2.6487,2.6071,2.5623,2.5832,2.5902,2.5928,2.6097,2.6149,2.6123,2.5954,2.6018,2.6149,2.6196,2.6696,2.7309,2.7459,2.7896,2.8516,2.9382,2.9599,2.977,3.044,3.059,3.059,3.059,3.059,3.059,3.059,3.059,3.059,3.059,3.059,3.059,3.059,3.059,3.059,3.059,3.0039,2.9608,2.9522,2.9268,2.9002,2.8758,2.8726,2.8675,2.8542,2.8426,2.8361,2.8361,2.8361,2.8361,2.8361,2.8304,2.8335,2.8457,2.8118,2.799,2.8053,2.8335,2.8474,2.362,2.3464,2.3307,2.3307,2.315,2.3057,2.3261,0.0,0.0,0.0,0.0,2.537,2.5819,0.0,0.0,0.0,0.0,0.0,0.0,0.0,0.0,0.0,0.0,0.0,0.0,0.0,3.1317,3.1317,3.155,3.1495,3.1004,3.072,3.0436,3.0134,2.9855,2.9723,2.9723,2.9447,2.9304,2.9292,2.8763,2.85,2.85,2.85,2.85,2.85,2.85,2.85,2.8486,2.833,2.7799,2.7056,2.7118,2.6635,2.5945,2.6145,2.6214,2.6232,2.6318,2.6365,2.6335,2.624,2.6275,2.6365,2.6365,2.6649,2.7057,2.7401,2.7736,2.8222,2.932,2.9599,2.977,3.044,3.059,3.059,3.059,3.059,3.059,3.059,3.059,3.059,3.059,3.059,3.059,3.059,3.059,3.059,3.059,3.0373,3.0192,3.0125,2.9981,2.9827,2.9704,2.9428,2.9239,2.9174,2.8869,2.8702,2.8702,2.8702,2.8702,2.8702,2.8702,2.8854,2.9174,2.9009,2.9015,2.9196,2.9346,2.9344,2.42,2.397,2.3732,2.3732,2.3492,2.3344,2.3668,2.4175,0.0,0.0,2.5536,2.5911,2.6009,0.0,2.5775,0.0,0.0,0.0,0.0,0.0,0.0,0.0,0.0,0.0,0.0,3.1384,0.0,3.1694,3.1694,3.1694,3.1694,3.1188,3.0901,3.0901,3.0383,3.0167,3.0275,2.9639,2.9352,2.946,2.8813,2.85,2.85,2.85,2.85,2.85,2.85,2.852,2.8568,2.8685,2.8152,2.7295,2.7616,2.7107,2.6218,2.643,2.6508,2.6508,2.6508,2.6508,2.6508,2.6508,2.6508,2.6508,2.6508,2.6508,2.6607,2.7137,2.7392,2.7786,2.9038,2.9476,2.977,3.044,3.059,3.059,3.059,3.059,3.059,3.059,3.059,3.059,3.059,3.059,3.059,3.059,3.059,3.059,3.059,3.059,3.059,3.059,3.059,3.059,3.059,3.0125,2.9813,2.9813,2.937,2.9116,2.9116,2.9116,2.9116,2.9116,2.9116,2.9341,2.9813,2.9813,2.9948,3.021,3.021,3.0073,2.42,2.4173,2.4134,2.4134,2.4127,2.4109,2.4134,0.0,0.0,2.5535,2.5738,2.5943,2.6367,2.6156,0.0,0.0,0.0,0.0,0.0,0.0,0.0,0.0,0.0,0.0,0.0,3.1384,3.1694,3.1694,3.1694,3.1694,3.1694,3.1188,3.0901,3.0901,3.0383,3.0325,3.0817,2.9807,2.9544,3.0012,2.8991,2.85,2.85,2.85,2.85,2.85,2.85,2.8598,2.8764,2.8598,2.8106,2.7483,2.7511,2.6977,2.6218,2.643,2.6508,2.6508,2.6508,2.6508,2.6508,2.6508,2.6508,2.6508,2.6508,2.6508,2.6516,2.6564,2.7032,2.767,2.8417,2.9101,2.977,3.044,3.059,3.059,3.059,3.059,3.059,3.059,3.059,3.059,3.059,3.059,3.059,3.059,3.059,3.059,3.059,3.059,3.059,3.059,3.059,3.059,3.059,3.0532,3.0517,3.0517,3.0467,3.0423,3.0423,3.0423,3.0423,3.0423,3.0423,3.0445,3.0517,3.0517,3.0517,3.056,3.056,3.0545,2.4767,2.4712,2.4565,2.4565,2.4381,2.4264,2.4511,0.0,2.5509,2.5975,2.6375,2.6702,2.6895,2.6786,2.65,0.0,2.6464,2.6929,2.6824,0.0,0.0,0.0,0.0,0.0,0.0,0.0,3.1694,3.1694,3.1694,3.1694,3.1694,3.1501,3.1381,3.1381,3.1165,3.1176,3.1381,3.0323,2.9892,3.0095,2.9015,2.85,2.85,2.85,2.85,2.851,2.8627,2.8734,2.8801,2.8971,2.8501,2.769,2.7807,2.7244,2.6387,2.6473,2.6508,2.6508,2.6508,2.6508,2.6508,2.6508,2.6508,2.6508,2.6508,2.6508,2.6581,2.699,2.7579,2.8271,2.8982,2.9678,3.0266,3.0538,3.059,3.059,3.059,3.059,3.059,3.059,3.059,3.059,3.059,3.059,3.059,3.059,3.059,3.059,3.059,3.059,3.059,3.059,3.059,3.059,3.059,3.059,3.059,3.059,3.059,3.059,3.059,3.059,3.059,3.059,3.059,3.059,3.059,3.059,3.059,3.059,3.059,3.059,2.515,2.5129,2.4948,2.4948,2.4857,2.4835,0.0,2.5648,2.6183,2.6621,2.6958,2.7225,2.7387,2.7287,2.6977,0.0,2.6887,2.7347,2.7173,2.8453,0.0,0.0,0.0,3.1528,0.0,3.1694,3.1694,3.1694,3.1694,3.1694,3.1694,3.1694,3.1694,3.1694,3.1549,3.1537,3.1694,3.048,2.994,3.0095,2.9015,2.85,2.85,2.85,2.85,2.851,2.8657,2.8784,2.8912,2.9126,2.8699,2.7902,2.7972,2.7387,2.6508,2.6508,2.6508,2.6508,2.6508,2.6508,2.6508,2.6508,2.6508,2.6508,2.6508,2.6641,2.6888,2.7367,2.8141,2.8985,2.9716,3.0244,3.059,3.059,3.059,3.059,3.059,3.059,3.059,3.059,3.059,3.059,3.059,3.059,3.059,3.059,3.059,3.059,3.059,3.059,3.059,3.059,3.059,3.059,3.059,3.059,3.059,3.059,3.059,3.059,3.059,3.059,3.059,3.059,3.059,3.059,3.059,3.059,3.059,3.059,3.059,3.059,2.515,2.5303,2.5294,2.5294,2.5691,2.6084,0.0,2.6499,2.7032,2.758,2.7365,2.7266,2.7787,2.7513,2.7205,2.7194,2.7578,2.8083,2.8598,2.9081,0.0,0.0,0.0,3.1116,3.165,3.1694,3.1694,3.1694,3.1694,3.1694,3.1694,3.1694,3.1694,3.1694,3.1188,3.1153,3.1694,3.0108,2.9569,3.0095,2.9015,2.85,2.85,2.85,2.85,2.85,2.85,2.8739,2.9082,2.8892,2.8527,2.8082,2.7874,2.7265,2.6508,2.6508,2.6508,2.6508,2.6508,2.6508,2.6508,2.6508,2.6508,2.6508,2.6508,2.6956,2.7492,2.7501,2.8511,2.9739,3.0425,3.0583,3.059,3.059,3.059,3.059,3.059,3.059,3.059,3.059,3.059,3.059,3.059,3.059,3.059,3.059,3.059,3.059,3.059,3.059,3.059,3.059,3.059,3.059,3.059,3.059,3.059,3.059,3.059,3.059,3.059,3.059,3.059,3.059,3.059,3.059,3.059,3.059,3.059,3.059,3.059,3.059,2.5071,2.5303,2.5303,2.5303,2.5709,2.6093,2.6093,2.6806,2.7483,2.7664,2.7888,2.8108,2.8277,2.8191,2.8095,2.8152,2.8557,0.0,0.0,0.0,0.0,3.0856,3.1224,3.1506,0.0,0.0,3.1694,3.1694,3.1694,3.1694,3.1694,3.1694,3.1694,3.1694,3.1548,3.1525,3.1694,3.0468,2.9928,3.0095,2.9015,2.8568,2.8705,2.8705,2.8774,2.8914,2.9059,2.9197,2.9314,2.9424,2.8943,2.8091,2.8027,2.7399,2.6508,2.6508,2.6508,2.6508,2.6508,2.6508,2.6508,2.6508,2.6508,2.6508,2.6508,2.6973,2.7695,2.8664,2.9257,2.9747,3.0432,3.059,3.059,3.059,3.059,3.059,3.059,3.059,3.059,3.059,3.059,3.059,3.059,3.059,3.059,3.059,3.059,3.059,3.059,3.059,3.059,3.059,3.059,3.059,3.059,3.059,3.059,3.059,3.059,3.059,3.059,3.059,3.059,3.059,3.059,3.059,3.059,3.059,3.059,3.059,3.059,3.059,0.0,2.5002,2.5051,2.5255,2.5709,2.6093,2.6093,2.6926,2.7697,2.7697,2.8128,2.85,2.85,2.85,2.8509,2.8568,2.8809,0.0,0.0,0.0,0.0,3.1141,0.0,0.0,0.0,3.1694,3.1694,3.1694,3.1694,3.1694,3.1694,3.1694,3.1694,3.1694,3.1694,3.1598,3.1405,3.0528,3.0,2.9795,2.8988,2.8675,2.8791,2.8882,2.8971,2.9111,2.9226,2.9321,0.0,2.958,2.9038,2.81,2.81,2.744,2.6508,2.6508,2.6508,2.6508,2.6508,2.6508,2.6508,2.6508,2.6675,2.6913,2.7179,2.7546,2.8165,2.9577,2.9984,3.0076,3.0492,3.059,3.059,3.059,3.059,3.059,3.059,3.059,3.059,3.059,3.059,3.059,3.059,3.059,3.059,3.059,3.059,3.059,3.059,3.059,3.059,3.059,3.059,3.059,3.059,3.059,3.059,3.059,3.059,3.059,3.059,3.059,3.059,3.059,3.059,3.059,3.059,3.059,3.059,3.059,3.059,3.059,0.0,2.4453,2.4621,2.5123,2.5685,2.6093,2.6093,2.6902,0.0,2.764,2.807,2.8452,2.8488,2.85,2.8524,2.8597,2.8609,0.0,0.0,3.018,0.0,0.0,3.1694,0.0,3.1694,3.1694,3.1694,3.1694,3.1694,3.1694,3.1694,3.1694,3.1694,3.1694,3.1658,3.1417,3.0961,3.0406,2.9876,2.9373,2.9003,2.8833,2.8841,2.9042,2.9131,2.915,2.915,2.9268,2.9428,2.9428,2.8899,2.81,2.81,2.744,2.6508,2.6508,2.6508,2.6508,2.6508,2.6508,2.6516,2.6555,2.699,2.7629,2.836,2.8572,2.8865,3.0214,3.059,3.059,3.059,3.059,3.059,3.059,3.059,3.059,3.059,3.059,3.059,3.059,3.059,3.059,3.059,3.059,3.059,3.059,3.059,3.059,3.059,3.059,3.059,3.059,3.059,3.059,3.059,3.059,3.059,3.059,3.059,3.059,3.059,3.059,3.059,3.059,3.059,3.059,3.059,3.059,3.059,3.059,3.059,3.059,2.318,0.0,2.4537,2.4657,2.5399,2.6093,0.0,2.6604,2.7099,0.0,0.0,0.0,2.8418,2.85,0.0,0.0,0.0,0.0,3.0624,0.0,0.0,3.167,3.1694,3.1694,3.1694,3.1694,3.1694,3.1694,3.1694,3.1694,3.1694,3.1694,3.1694,3.1694,3.1297,3.1214,3.1513,3.0737,3.0268,3.0134,2.9398,2.9108,2.9263,2.9311,2.9443,2.9646,2.9646,2.9663,2.9711,2.9711,2.9066,2.81,2.81,2.744,2.6508,2.6508,2.6508,2.6508,2.6508,2.6508,2.6581,2.7095,2.7367,2.7728,2.8967,2.9343,2.9523,3.0357,3.059,3.059,3.059,3.059,3.059,3.059,3.059,3.059,3.059,3.059,3.059,3.059,3.059,3.059,3.059,3.059,3.059,3.059,3.059,3.059,3.059,3.059,3.059,3.059,3.059,3.059,3.059,3.059,3.059,3.059,3.059,3.059,3.059,3.059,3.059,3.059,3.059,3.059,3.059,3.059,3.059,3.059,3.059,3.059,2.249,2.3544,2.4561,2.481,2.5483,2.6093,2.6093,0.0,0.0,0.0,0.0,0.0,0.0,0.0,0.0,0.0,2.9735,0.0,0.0,0.0,3.1694,3.1694,3.1694,3.1694,0.0,3.1694,3.1694,3.1694,3.1694,3.1598,3.1345,3.1333,3.1224,3.0973,3.0684,3.0727,3.1102,3.0396,2.9965,2.9803,2.9423,2.9294,2.9399,2.9531,2.966,2.9801,2.9801,2.9801,2.9801,2.9801,2.9126,2.81,2.81,2.744,2.6508,2.6508,2.6508,2.6508,2.6508,2.6696,2.7023,2.7376,2.7942,2.8607,2.9367,2.9808,3.0129,3.05,3.059,3.059,3.059,3.059,3.059,3.059,3.059,3.059,3.059,3.059,3.059,3.059,3.059,3.059,3.059,3.059,3.059,3.059,3.059,3.059,3.059,3.0657,3.0672,3.0605,3.0665,3.0672,3.0605,3.059,3.059,3.059,3.059,3.059,3.059,3.059,3.059,3.059,3.059,3.059,3.059,3.059,3.059,3.059,3.059,3.059,2.2157,2.3448,2.4693,2.4999,2.5588,2.6078,2.5997,0.0,0.0,0.0,0.0,0.0,0.0,0.0,0.0,0.0,0.0,0.0,3.0877,3.1417,3.1694,3.1694,3.1694,0.0,3.1586,3.1574,3.1537,3.1465,3.1453,3.1261,3.0804,3.078,3.0576,3.0108,3.0043,3.0112,3.0321,2.9868,2.9526,2.9273,2.94,2.946,2.947,2.9702,2.9801,2.9801,2.9801,2.9801,2.9801,2.9801,2.9126,2.81,2.81,2.744,2.6508,2.6508,2.6508,2.6508,2.6508,2.6939,2.7526,2.762,2.8543,2.9623,2.9723,3.0152,3.059,3.059,3.059,3.059,3.059,3.059,3.059,3.059,3.059,3.059,3.059,3.059,3.059,3.059,3.059,3.059,3.059,3.059,3.059,3.059,3.0627,3.0635,3.0635,3.0762,3.0799,3.0694,3.0777,3.0784,3.065,3.0635,3.0627,3.059,3.059,3.059,3.059,3.059,3.059,3.059,3.059,3.059,3.059,3.059,3.059,3.059,3.059,3.059,2.261,2.4001,2.499,2.4222,2.5077,2.5973,0.0,0.0,0.0,0.0,0.0,0.0,0.0,0.0,0.0,0.0,0.0,3.0865,0.0,0.0,3.1694,3.1694,0.0,3.1525,3.108,3.1021,3.0829,3.0383,3.0359,3.0311,3.0239,3.0216,3.018,3.0096,2.9814,2.9768,2.9974,2.9898,2.9911,3.0032,2.9836,2.974,2.974,2.9782,2.9801,2.9801,2.9801,2.9801,2.9801,2.9801,2.9126,2.81,2.81,2.744,2.6508,2.6508,2.6508,2.6508,2.6508,2.6939,2.7587,2.8165,2.8927,2.9708,3.0266,3.0515,3.059,3.059,3.059,3.059,3.059,3.059,3.059,3.059,3.059,3.059,3.059,3.059,3.059,3.059,3.059,3.059,3.059,3.059,3.059,3.059,3.0702,3.0769,3.0769,3.094,3.1043,3.1028,3.1036,3.0977,3.0784,3.0769,3.0724,3.0605,3.059,3.059,3.059,3.059,3.059,3.059,3.059,3.059,3.059,3.059,3.059,3.059,3.059,3.059,2.1921,2.3344,2.4528,2.4247,2.5588,2.6902,0.0,0.0,0.0,0.0,0.0,0.0,0.0,0.0,0.0,0.0,0.0,3.1417,3.167,3.1453,3.1273,0.0,0.0,3.0744,3.0492,3.0468,3.0371,3.012,3.0096,3.0016,2.9851,2.9827,2.9757,2.9567,2.9402,2.9427,2.9626,2.9626,2.9744,2.9986,2.9856,2.9801,2.9801,2.9801,2.9801,2.9801,2.9801,2.9801,2.9801,2.9801,2.9126,2.81,2.81,2.744,2.6508,2.6508,2.6508,2.6547,2.6905,2.7484,2.8157,2.8857,2.957,3.0198,3.0507,3.059,3.059,3.059,3.059,3.059,3.059,3.059,3.059,3.059,3.059,3.059,3.059,3.0665,3.0709,3.0709,3.0799,3.0836,3.0732,3.0709,3.0687,3.0605,3.0657,3.0694,3.0694,3.0836,3.094,3.094,3.094,3.0903,3.0806,3.0732,3.0672,3.059,3.059,3.059,3.059,3.059,3.059,3.059,3.059,3.059,3.059,3.059,3.059,3.059,3.059,3.059,2.1368,2.2599,2.3794,2.4416,0.0,0.0,0.0,0.0,0.0,0.0,0.0,0.0,0.0,2.8765,0.0,3.0744,3.1345,3.1658,3.1525,3.1164,3.0853,3.072,3.0359,3.0048,2.9928,2.9916,2.9855,2.9735,2.9765,2.9675,2.9436,2.9462,2.9369,2.9104,2.915,2.9236,2.9399,2.946,2.9599,2.9801,2.9801,2.9801,2.9801,2.9801,2.9801,2.9801,2.9801,2.9801,2.9789,2.9641,2.9001,2.8097,2.7959,2.7336,2.6508,2.6508,2.6508,2.6598,2.728,2.7937,2.8612,2.9359,3.0053,3.059,3.059,3.059,3.059,3.059,3.059,3.059,3.059,3.059,3.059,3.059,3.059,3.059,3.059,3.0687,3.0747,3.0747,3.0903,3.0977,3.0821,3.0836,3.0836,3.0732,3.0732,3.0762,3.0762,3.0881,3.0962,3.0962,3.0962,3.0947,3.0918,3.0791,3.0702,3.0657,3.0627,3.059,3.059,3.059,3.059,3.059,3.059,3.059,3.059,3.059,3.059,3.059,3.059,3.059,2.1724,2.2369,2.2962,2.4402,0.0,0.0,2.6762,0.0,0.0,0.0,0.0,0.0,0.0,2.9316,3.0239,3.0804,3.1345,3.1525,3.1032,0.0,3.072,3.0216,3.012,2.9893,2.941,2.9352,2.9148,2.8645,2.8786,2.8881,2.8864,2.9032,2.9118,2.9101,2.9285,2.9389,2.9399,2.965,2.9782,2.9801,2.9801,2.9801,2.9801,2.9801,2.9801,2.9801,2.9801,2.9801,2.9764,2.9195,2.8618,2.805,2.7553,2.7006,2.6508,2.6508,2.6508,2.6598,2.728,2.7937,2.8612,2.9359,3.0053,3.059,3.059,3.059,3.059,3.059,3.059,3.059,3.059,3.059,3.059,3.059,3.059,3.059,3.059,3.0605,3.0605,3.0605,3.0732,3.0814,3.0799,3.0947,3.1087,3.108,3.1168,3.1241,3.1241,3.1365,3.1453,3.1453,3.1453,3.1394,3.1263,3.1146,3.0977,3.0799,3.0672,3.059,3.059,3.059,3.059,3.059,3.059,3.059,3.059,3.059,3.059,3.059,3.059,3.059,2.0688,2.1887,2.3161,2.4063,0.0,0.0,0.0,0.0,0.0,0.0,0.0,0.0,0.0,0.0,3.0287,3.0804,3.1345,3.1513,3.0984,3.0612,3.0204,2.9675,2.9304,2.9027,2.8813,2.8801,2.8727,2.8512,2.8685,2.8841,2.8971,2.9177,2.9365,2.9536,2.9614,2.965,2.965,2.9753,2.9967,3.0297,2.9955,2.9801,2.9801,2.9801,2.9801,2.9801,2.9801,2.9591,2.922,2.8985,2.8389,2.7553,2.7006,2.6675,2.6508,2.6508,2.6508,2.6666,2.7744,2.8282,2.8684,2.9855,3.0394,3.059,3.059,3.059,3.059,3.059,3.059,3.059,3.059,3.059,3.059,3.059,3.059,3.059,3.059,3.0672,3.0724,3.0724,3.0925,3.108,3.0999,3.1124,3.1205,3.1102,3.1139,3.1176,3.1176,3.122,3.1285,3.1365,3.138,3.1314,3.119,3.1124,3.108,3.0992,3.094,3.0814,3.0605,3.0687,3.0694,3.059,3.059,3.059,3.059,3.059,3.059,3.059,3.059,3.059,2.0338,2.1462,2.2717,0.0,0.0,0.0,0.0,0.0,0.0,0.0,0.0,0.0,0.0,0.0,0.0,0.0,3.1212,3.1261,3.072,3.018,2.9641,2.9112,2.8717,2.85,2.85,2.85,2.85,2.85,2.8756,2.8951,2.9091,2.9375,2.9609,2.9792,2.9801,2.9801,2.9801,2.9801,2.998,3.0347,2.998,2.9889,3.0043,2.988,2.9701,2.9515,2.934,2.9029,2.8621,2.8467,2.7858,2.7006,2.6637,2.6508,2.6508,2.6508,2.6632,2.6981,2.8108,2.8644,2.904,3.0221,3.059,3.059,3.059,3.059,3.059,3.059,3.059,3.059,3.059,3.059,3.059,3.059,3.059,3.059,3.059,3.0672,3.0747,3.0784,3.0992,3.1154,3.1168,3.1241,3.1285,3.1227,3.1227,3.1227,3.1227,3.1227,3.1263,3.1351,3.1365,3.1329,3.1227,3.1227,3.1205,3.1168,3.1198,3.1065,3.0687,3.0747,3.0739,3.059,3.059,3.059,3.059,3.059,3.059,3.059,3.059,3.059,2.0952,2.1167,0.0,0.0,0.0,0.0,0.0,0.0,0.0,0.0,0.0,0.0,0.0,0.0,0.0,3.0804,3.0889,3.0708,3.0179,2.9629,2.91,2.8561,2.85,2.85,2.85,2.85,2.85,2.85,2.8865,2.9101,2.9101,2.9546,2.9801,2.9801,2.9801,2.9801,2.9801,2.9801,2.9801,2.9814,2.9814,3.008,3.0563,3.0043,2.9478,2.8872,2.8339,2.81,2.805,2.7516,2.6981,2.6508,2.6508,2.6508,2.6508,2.6516,2.693,2.7595,2.8279,2.8998,2.9708,3.0387,3.059,3.0605,3.059,3.059,3.0605,3.059,3.059,3.059,3.059,3.059,3.059,3.059,3.059,3.059,3.059,3.059,3.065,3.0777,3.0799,3.091,3.1234,3.1292,3.1351,3.1474,3.1503,3.1503,3.1503,3.1503,3.1503,3.1503,3.1503,3.1503,3.1503,3.1503,3.1438,3.1299,3.143,3.1285,3.0814,3.0799,3.0739,3.0605,3.059,3.059,3.059,3.059,3.059,3.059,3.059,3.059,2.0319,2.1409,0.0,0.0,0.0,0.0,0.0,0.0,0.0,0.0,0.0,0.0,0.0,0.0,0.0,3.0252,3.0347,3.0144,2.9605,2.94,2.91,2.8561,2.85,2.85,2.85,2.85,2.8558,2.8695,2.8954,2.916,2.9304,2.9624,2.9801,2.9801,2.9801,2.9801,2.9801,2.9801,2.9993,3.0359,3.0359,3.0256,3.0018,2.9431,2.907,2.8872,2.8339,2.7883,2.7499,2.6955,2.6637,2.6508,2.6508,2.6508,2.6555,2.7032,2.7325,2.7662,2.8863,2.9414,2.9708,3.0387,3.0888,3.1148,3.0735,3.0894,3.1134,3.0721,3.059,3.059,3.059,3.059,3.0627,3.0724,3.0739,3.0777,3.0925,3.0947,3.0962,3.0999,3.1087,3.1175,3.1278,3.138,3.1445,3.1496,3.1503,3.1503,3.1503,3.1503,3.1503,3.1503,3.1503,3.1503,3.1503,3.1503,3.1474,3.1438,3.1474,3.1351,3.1021,3.1102,3.1087,3.0955,3.0947,3.0947,3.0947,3.0947,3.0947,3.0947,3.0947,3.0947,2.0989,0.0,0.0,0.0,0.0,0.0,0.0,0.0,0.0,0.0,0.0,0.0,0.0,2.9663,0.0,3.0012,2.9928,2.9675,2.9352,2.9124,2.8861,2.8536,2.85,2.8416,2.8202,2.8178,2.818,2.8174,2.8553,2.8867,2.9076,2.9538,2.9801,2.9801,2.9801,2.9801,2.9801,2.9801,2.9955,3.0271,3.0271,3.0118,2.9789,2.9183,2.8668,2.8238,2.7704,2.7286,2.6955,2.6637,2.6508,2.6508,2.6508,2.6508,2.6547,2.6947,2.7442,2.8019,2.8871,2.9531,3.0103,3.0744,3.104,3.1119,3.0996,3.1213,3.1365,3.0771,3.096,3.1236,3.0721,3.0975,3.1267,3.0893,3.0799,3.0866,3.1051,3.1102,3.1124,3.1168,3.1205,3.1249,3.1365,3.1401,3.1438,3.1496,3.1503,3.1503,3.1503,3.1503,3.1503,3.1503,3.1503,3.1503,3.1503,3.1503,3.1503,3.1503,3.1503,3.1431,3.1263,3.1285,3.1241,3.1102,3.1102,3.1102,3.1102,3.1102,3.1102,3.1102,3.1102,3.1102,0.0,0.0,0.0,0.0,0.0,0.0,0.0,0.0,0.0,0.0,0.0,0.0,2.9843,2.9591,2.94,2.994,2.9591,2.9232,2.9232,2.8811,2.85,2.85,2.85,2.8318,2.7847,2.7762,2.7618,2.7358,2.7905,2.8341,2.8534,2.9294,2.9716,2.9716,2.9767,2.9801,2.9801,2.9801,2.9801,2.9801,2.9801,2.9767,2.9691,2.9095,2.8238,2.7207,2.6713,2.6508,2.6508,2.6508,2.6508,2.6508,2.6508,2.6508,2.6516,2.6564,2.7359,2.8427,2.8556,2.9439,3.0616,3.1227,3.1076,3.0771,3.1271,3.1467,3.1365,3.0771,3.1467,3.2134,3.0989,3.1599,3.227,3.1237,3.0945,3.0946,3.1102,3.1176,3.1264,3.1389,3.1301,3.1323,3.1631,3.1536,3.1455,3.1564,3.154,3.1503,3.1503,3.1503,3.1518,3.1578,3.154,3.1518,3.1585,3.154,3.1503,3.1503,3.1503,3.1503,3.1503,3.138,3.1256,3.1146,3.1146,3.1146,3.1146,3.1146,3.1146,3.1146,3.1146,3.1146,0.0,2.267,0.0,0.0,0.0,0.0,0.0,0.0,0.0,0.0,0.0,2.8693,2.9352,2.9029,2.8847,2.9388,2.9027,2.8669,2.8669,2.8573,2.85,2.85,2.85,2.8522,2.8557,2.8176,2.8038,2.8277,2.8052,2.8002,2.8202,2.8775,2.9085,2.9085,2.9543,2.9801,2.9801,2.9801,2.9801,2.9801,2.9801,2.9553,2.907,2.8518,2.7691,2.6663,2.6558,2.6508,2.6508,2.6508,2.6508,2.6508,2.6508,2.6508,2.6555,2.7087,2.7476,2.7863,2.8982,2.9554,2.9921,3.0583,3.104,3.1242,3.0894,3.1119,3.1365,3.0771,3.1141,3.1655,3.1373,3.2019,3.27,3.2564,3.2117,3.1684,3.1455,3.1826,3.2206,3.2243,3.2214,3.2378,3.2976,3.2617,3.2251,3.228,3.1839,3.1503,3.1503,3.1503,3.1705,3.2228,3.1809,3.1705,3.2243,3.1795,3.1503,3.1503,3.1503,3.1503,3.1503,3.1467,3.1438,3.1416,3.1416,3.1416,3.1416,3.1416,3.1416,3.1416,3.1416,3.1416,0.0,0.0,0.0,0.0,0.0,0.0,0.0,0.0,0.0,0.0,2.85,2.8585,2.8871,2.8693,2.8585,2.8871,2.8681,2.85,2.85,2.85,2.854,2.8627,2.8647,2.852,2.8214,2.7927,2.767,2.7466,2.767,2.7787,2.7724,2.874,2.9195,2.891,2.949,2.9801,2.9801,2.9801,2.9801,2.9801,2.9801,2.9352,2.8493,2.7959,2.7273,2.6508,2.6508,2.6508,2.6508,2.6508,2.6508,2.6508,2.6508,2.6508,2.6581,2.7255,2.7703,2.8173,2.9545,3.0056,3.0237,3.1193,3.1315,3.1061,3.104,3.1242,3.1423,3.1119,3.1722,3.2382,3.2061,3.2836,3.3582,3.3104,3.2807,3.259,3.2475,3.2721,3.2878,3.2557,3.2759,3.2983,3.3021,3.2721,3.2497,3.2497,3.2191,3.1854,3.154,3.2056,3.2467,3.2497,3.2467,3.2602,3.2953,3.2362,3.1981,3.1981,3.1675,3.1503,3.1503,3.1503,3.1503,3.1503,3.1503,3.1503,3.1503,3.1503,3.1503,3.1503,3.1503,3.1503,0.0,0.0,0.0,0.0,0.0,0.0,0.0,0.0,0.0,0.0,2.85,2.85,2.85,2.85,2.85,2.85,2.85,2.85,2.85,2.853,2.8608,2.8784,2.8833,2.8577,2.7886,2.7668,2.732,2.6712,2.7323,2.7592,2.7306,2.8797,2.9368,2.8772,2.944,2.9801,2.9801,2.9801,2.9801,2.9801,2.9801,2.9202,2.8075,2.7641,2.7085,2.6508,2.6508,2.6508,2.6508,2.6508,2.6508,2.6508,2.6508,2.6508,2.6564,2.712,2.7814,2.8644,2.9767,3.0343,3.0772,3.1943,3.1605,3.0873,3.1489,3.1662,3.1662,3.1662,3.2566,3.3405,3.2858,3.374,3.4559,3.3608,3.3531,3.3651,3.3536,3.3597,3.3507,3.2953,3.3395,3.3634,3.2953,3.2849,3.2849,3.2849,3.2759,3.2467,3.1921,3.2819,3.3335,3.2893,3.3245,3.3552,3.3657,3.3058,3.2662,3.2662,3.2146,3.1795,3.1675,3.1675,3.1615,3.1503,3.1503,3.1503,3.1503,3.1503,3.1503,3.1503,3.1503,3.1503,0.0,0.0,0.0,0.0,0.0,0.0,0.0,0.0,0.0,0.0,2.85,2.85,2.85,2.85,2.85,2.85,2.85,2.85,2.85,2.8657,2.8774,2.8791,2.8951,2.9089,2.9142,2.8309,2.7984,2.8499,2.7809,2.7347,2.7302,2.8389,2.8769,2.8226,2.9239,2.9801,2.9801,2.9801,2.9801,2.9801,2.9801,2.9202,2.81,2.8034,2.7449,2.6508,2.6508,2.6508,2.6508,2.6508,2.6508,2.6508,2.6508,2.6508,2.6516,2.6598,2.7387,2.8448,2.8674,2.9527,3.0644,3.1389,3.1525,3.1496,3.2177,3.2366,3.2366,3.2366,3.2995,3.3649,3.3553,3.4332,3.5087,3.4948,3.5065,3.4889,3.3754,3.3964,3.4346,3.4248,3.4771,3.5011,3.4353,3.4233,3.4233,3.4233,3.3732,3.3335,3.3237,3.338,3.3687,3.4181,3.3791,3.3732,3.4316,3.3747,3.3372,3.3372,3.3275,3.2968,3.2392,3.2362,3.2086,3.1503,3.1503,3.1503,3.1503,3.1503,3.1503,3.1503,3.1503,3.1503,0.0,0.0,0.0,0.0,0.0,0.0,0.0,0.0,2.85,2.85,2.85,2.85,2.85,2.85,2.85,2.85,2.85,2.854,2.8657,2.8744,2.888,2.9106,2.9204,2.9229,2.9133,2.869,2.8428,2.8455,2.8288,2.8072,2.7758,2.88,2.9142,2.8568,2.9355,2.9801,2.9801,2.9801,2.9801,2.9801,2.9456,2.9032,2.853,2.7921,2.7223,2.6508,2.6508,2.6508,2.6508,2.6508,2.6508,2.6508,2.6508,2.6508,2.6547,2.6913,2.7658,2.8616,2.9783,3.0576,3.1236,3.228,3.2367,3.2119,3.2409,3.2583,3.2743,3.3079,3.3514,3.3953,3.4281,3.4786,3.5197,3.5197,3.5351,3.534,3.4756,3.4846,3.5063,3.5063,3.5004,3.4974,3.5048,3.4742,3.4496,3.4496,3.4248,3.3911,3.3552,3.4158,3.4585,3.4511,3.457,3.4741,3.5034,3.4458,3.4054,3.4054,3.3717,3.3372,3.3073,3.3058,3.2736,3.2071,3.169,3.1503,3.1503,3.1503,3.1503,3.1503,3.1503,3.1503,0.0,0.0,0.0,0.0,0.0,0.0,0.0,0.0,2.851,0.0,2.8578,2.8647,2.8912,2.8707,2.852,2.8568,2.8578,2.8647,2.8843,2.8922,2.9057,2.936,2.946,2.9395,2.9151,2.8985,2.8794,2.8549,2.8756,2.8731,2.8317,2.9252,2.9528,2.8922,2.9343,2.9641,2.9801,2.9801,2.9801,2.9789,2.9343,2.9045,2.8872,2.8072,2.7336,2.6709,2.6558,2.6508,2.6508,2.6508,2.6508,2.6508,2.6508,2.6704,2.7024,2.7369,2.834,2.9659,3.0843,3.1585,3.2179,3.3176,3.3177,3.2845,3.3005,3.3184,3.3431,3.3885,3.4147,3.4404,3.4866,3.5131,3.5285,3.5285,3.5384,3.5496,3.5496,3.5496,3.5496,3.5496,3.5108,3.4914,3.5415,3.5093,3.4757,3.4757,3.4757,3.4578,3.4076,3.4876,3.531,3.4817,3.519,3.5496,3.5496,3.5048,3.4757,3.4757,3.4285,3.3926,3.3761,3.3747,3.3447,3.2774,3.2101,3.1675,3.1503,3.1503,3.1585,3.175,3.1585,3.1585,0.0,0.0,0.0,0.0,0.0,0.0,0.0,0.0,0.0,2.8754,2.8784,2.9086,3.0034,2.9272,2.8558,2.8754,2.8784,2.8853,2.9062,2.9255,2.938,2.9399,2.9621,2.9769,2.9741,2.9242,2.9132,2.9666,2.9217,2.8885,2.886,2.9456,2.9528,2.8922,2.8922,2.922,2.9789,2.9801,2.9801,2.9801,2.9776,2.9456,2.8897,2.8847,2.8251,2.7223,2.6725,2.6508,2.6508,2.6508,2.6508,2.6508,2.6508,2.7246,2.8246,2.7705,2.9485,3.2039,3.0928,3.1795,3.3416,3.3474,3.3558,3.3753,3.4397,3.4672,3.4805,3.4834,3.4981,3.5136,3.518,3.5326,3.548,3.548,3.5488,3.5496,3.5496,3.5496,3.5496,3.5496,3.5474,3.5459,3.5481,3.5474,3.5444,3.5444,3.5444,3.5444,3.5406,3.5459,3.5481,3.5451,3.5481,3.5496,3.5496,3.5474,3.5444,3.5444,3.5421,3.5115,3.4466,3.4451,3.4128,3.3455,3.2789,3.2131,3.1503,3.1503,3.1832,3.243,3.1795,3.1839,0.0,0.0,0.0,0.0,0.0,0.0,0.0,2.8889,2.9541,2.9824,3.0229,3.0634,3.1003,2.9877,2.9079,2.9668,2.9331,2.9059,2.9253,2.935,2.946,2.9641,2.974,2.9801,2.9801,2.9245,2.8985,2.9217,2.8693,2.8389,2.8389,2.859,2.8602,2.8392,2.8389,2.8489,2.8712,2.9054,2.922,2.923,2.9616,2.9481,2.8897,2.8543,2.7996,2.7287,2.7182,2.6896,2.6508,2.6508,2.6508,2.6508,2.6508,2.7041,2.7792,2.7574,2.9058,3.1183,3.1155,3.2188,3.3592,3.4099,3.4297,3.4401,3.4735,3.4958,3.5098,3.5098,3.5245,3.5384,3.5384,3.5455,3.5496,3.5496,3.5496,3.5496,3.5496,3.5496,3.5496,3.5496,3.5496,3.5496,3.5496,3.5496,3.5496,3.5496,3.5496,3.5496,3.5496,3.5496,3.5496,3.5496,3.5496,3.5496,3.5496,3.5496,3.5496,3.5496,3.5496,3.5385,3.5145,3.513,3.4824,3.4143,3.3904,3.3447,3.2781,3.2347,3.2482,3.314,3.2893,3.2677,0.0,0.0,0.0,0.0,0.0,0.0,2.8126,0.0,2.9838,2.9866,3.0613,3.1234,3.1128,3.021,2.9665,3.0291,2.9957,2.9584,2.9538,2.9528,2.9599,2.9782,2.9801,2.9716,2.9528,2.9132,2.8822,2.8643,2.8301,2.81,2.81,2.81,2.8021,2.7833,2.8009,2.8009,2.7833,2.8543,2.8897,2.891,2.9506,2.9602,2.9268,2.8896,2.8464,2.7962,2.784,2.7406,2.6858,2.7078,2.7171,2.7171,2.7171,2.7727,2.848,2.8278,2.9452,3.1246,3.176,3.2645,3.3697,3.4511,3.4808,3.4875,3.4968,3.5139,3.5302,3.5302,3.5392,3.5496,3.5496,3.5496,3.5496,3.5496,3.5496,3.5496,3.5496,3.5496,3.5496,3.5496,3.5496,3.5496,3.5496,3.5496,3.5496,3.5496,3.5496,3.5496,3.5496,3.5496,3.5496,3.5496,3.5496,3.5496,3.5496,3.5496,3.5496,3.5496,3.5496,3.5496,3.5496,3.5496,3.5295,3.4839,3.4615,3.4383,3.4173,3.3267,3.3185,3.3821,3.3365,3.2804,0.0,0.0,0.0,0.0,0.0,0.0,2.8064,0.0,2.9315,2.8796,2.9825,3.0724,3.0413,3.031,3.035,3.058,3.0616,3.0437,2.9943,2.9879,2.9879,2.9879,2.9879,2.9633,2.9013,2.895,2.8721,2.8186,2.8123,2.8101,2.8101,2.8101,2.7862,2.7312,2.7806,2.7814,2.7286,2.8317,2.8847,2.886,2.9456,2.9808,2.9927,2.9927,2.9667,2.9172,2.8567,2.8011,2.7579,2.8214,2.8476,2.85,2.85,2.9303,3.0407,2.9824,3.0815,3.2514,3.2734,3.3199,3.3846,3.4648,3.5034,3.5197,3.5205,3.5351,3.5496,3.5496,3.5496,3.5496,3.5496,3.5496,3.5496,3.5496,3.5496,3.5496,3.5496,3.5496,3.5496,3.5496,3.5496,3.5496,3.5496,3.5496,3.5496,3.5496,3.5496,3.5496,3.5496,3.5496,3.5496,3.5496,3.5496,3.5496,3.5496,3.5521,3.5529,3.5529,3.5545,3.5561,3.5561,3.5561,3.5561,3.5561,3.4918,3.4903,3.5546,3.4188,3.3866,3.4496,3.3155,3.2176,1.8058,0.0,0.0,0.0,0.0,0.0,0.0,0.0,2.8969,3.0407,3.1016,3.1436,3.1815,3.1879,3.1701,3.1187,3.1019,3.1073,3.1412,3.146,3.146,3.146,3.146,3.1203,3.0546,3.0144,2.9653,2.9017,2.8604,2.8395,2.8395,2.8395,2.8098,2.7462,2.7592,2.7357,2.6734,2.7403,2.7742,2.7754,2.831,2.8392,2.8047,2.8047,2.7755,2.7323,2.8102,2.8362,2.8206,2.7896,2.8059,2.85,2.85,2.9055,2.9824,2.9655,3.0621,3.2069,3.2613,3.3287,3.4056,3.4852,3.5148,3.5221,3.5367,3.5464,3.5496,3.5496,3.5496,3.5496,3.5496,3.5496,3.5496,3.5496,3.5496,3.5496,3.5496,3.5496,3.5496,3.5496,3.5496,3.5496,3.5496,3.5496,3.5496,3.5496,3.5496,3.5496,3.5496,3.5496,3.5496,3.5496,3.5496,3.5496,3.5496,3.5902,3.6141,3.6141,3.6616,3.6875,3.6875,3.6875,3.6875,3.6875,3.6688,3.6688,3.6875,3.5093,3.4578,3.519,3.3844,3.2863,0.0,0.0,0.0,0.0,0.0,0.0,2.7009,2.8032,2.8741,0.0,3.0889,3.1461,3.1318,3.152,3.1646,3.1425,3.1319,3.128,3.1304,3.1306,3.14,3.1644,3.1671,3.1545,3.1224,3.0897,3.0444,2.9813,2.9466,2.9293,2.9293,2.8736,2.8392,2.8339,2.8061,2.7736,2.7334,2.7872,2.8131,2.814,2.8719,2.8838,2.8595,2.8595,2.845,2.8236,2.8738,2.9119,2.9323,2.8706,2.8818,2.937,2.9433,2.9725,3.0114,3.019,3.0762,3.1615,3.2338,3.3079,3.3841,3.4646,3.5096,3.5351,3.5464,3.5496,3.5496,3.5496,3.5496,3.5496,3.5496,3.5496,3.5496,3.5496,3.5496,3.5496,3.5496,3.5496,3.5496,3.5496,3.5496,3.5496,3.5496,3.5496,3.5496,3.5496,3.5496,3.5496,3.5496,3.5496,3.5595,3.5853,3.587,3.5997,3.6266,3.6623,3.6822,3.6822,3.7184,3.7265,3.6951,3.7234,3.7116,3.6495,3.6786,3.6793,3.6472,3.5965,3.5615,3.5385,3.4299,3.3311,0.0,0.0,0.0,0.0,2.4662,0.0,2.6849,2.7826,2.8347,0.0,2.9633,3.056,2.9574,2.9932,3.0568,3.1097,3.1307,3.1179,3.0537,3.046,3.0646,3.12,3.1268,3.1271,3.1315,3.1324,3.1064,3.0474,3.0411,3.0411,3.0411,2.9229,2.8847,2.9498,2.8936,2.858,2.85,2.9048,2.9321,2.9321,2.9926,3.0278,3.0402,3.0332,3.0369,3.045,2.9852,2.9931,3.0462,3.0076,3.019,3.065,3.0777,3.0821,3.0844,3.1028,3.1117,3.1235,3.2035,3.2704,3.3337,3.4134,3.4839,3.5385,3.5385,3.5436,3.5496,3.5496,3.5496,3.5496,3.5496,3.5496,3.5496,3.5496,3.5496,3.5496,3.5496,3.5496,3.5496,3.5496,3.5496,3.5496,3.5496,3.5496,3.5496,3.5496,3.5496,3.5521,3.5587,3.5595,3.5822,3.6446,3.6508,3.6753,3.7355,3.7466,3.7502,3.7502,3.7576,3.732,3.6666,3.7179,3.6869,3.5554,3.6098,3.6059,3.5404,3.6599,3.6468,3.5156,3.4509,3.3597,1.9194,2.0401,2.1772,2.1959,0.0,0.0,2.5344,2.5906,2.6517,0.0,2.7011,2.7146,2.7927,2.8618,2.9109,2.9232,3.0103,3.1071,3.1932,3.2049,3.2084,3.2213,3.2227,3.2021,3.1507,3.1464,3.1199,3.0606,3.0557,3.0557,3.0557,3.0303,2.9971,2.9588,2.9452,2.9101,2.8508,2.9135,2.9456,2.9469,3.0076,3.037,3.0382,2.9903,2.969,2.9716,2.963,2.9669,2.9839,3.0387,3.0672,3.0777,3.0969,3.1036,3.1043,3.1095,3.1168,3.1352,3.2057,3.2459,3.2773,3.3469,3.4158,3.4697,3.4697,3.5063,3.5496,3.5496,3.5496,3.5496,3.5496,3.5496,3.5496,3.5496,3.5496,3.5496,3.5496,3.5496,3.5496,3.5496,3.5496,3.5496,3.5496,3.5496,3.5496,3.5496,3.5496,3.5683,3.6156,3.6227,3.6477,3.7131,3.7206,3.7258,3.7392,3.7859,3.8123,3.8123,3.8627,3.8862,3.8724,3.8277,3.7902,3.7616,3.7167,3.6871,3.6724,3.5988,3.5214,3.4407,3.4268,3.3777,2.029,2.1425,2.2724,2.2614,0.0,0.0,0.0,2.5587,2.6081,2.7055,2.6742,2.6597,2.7528,2.7963,2.8195,2.8195,2.9276,3.0219,3.0553,3.1148,3.1656,3.1974,3.2003,3.2003,3.2003,3.2003,3.1873,3.1569,3.1176,3.1129,3.1525,3.0875,3.051,3.0541,3.0256,2.9924,2.9548,2.9879,3.0041,3.0056,3.0365,3.0498,3.0484,3.0196,3.0041,3.0043,3.0081,3.0099,3.0145,3.0605,3.0866,3.0969,3.1124,3.1205,3.122,3.1271,3.1344,3.1446,3.1774,3.2154,3.2564,3.2893,3.3447,3.3994,3.3994,3.4465,3.4929,3.4592,3.4973,3.5421,3.5093,3.5258,3.5496,3.5496,3.5496,3.5496,3.5496,3.5496,3.5496,3.5496,3.5496,3.5496,3.5496,3.5749,3.5957,3.5957,3.6227,3.6554,3.6868,3.689,3.7139,3.7778,3.7843,3.7982,3.8311,3.8627,3.8793,3.8793,3.9104,3.9143,3.8765,3.8404,3.7851,3.7112,3.6384,3.6009,3.6009,3.5355,3.5072,3.5082,3.472,3.4236,0.0,0.0,0.0,0.0,0.0,2.5208,0.0,0.0,0.0,2.6637,2.6497,0.0,0.0,0.0,0.0,2.7138,0.0,0.0,0.0,2.9428,0.0,3.106,3.1257,3.1547,3.2076,3.2018,3.2003,3.2119,3.1412,3.1303,3.2096,3.1064,3.0709,3.1306,3.0858,3.059,3.059,3.0721,3.0771,3.0771,3.0902,3.0975,3.096,3.0829,3.0771,3.0771,3.0648,3.059,3.0605,3.0739,3.0925,3.1102,3.1249,3.1329,3.1351,3.1452,3.1503,3.1503,3.1503,3.1854,3.231,3.231,3.2759,3.3335,3.3455,3.3874,3.4188,3.3657,3.4277,3.4996,3.4443,3.4704,3.5107,3.5107,3.522,3.531,3.531,3.5415,3.5496,3.5496,3.5496,3.5496,3.5496,3.5902,3.6274,3.6376,3.6852,3.7303,3.7538,3.7567,3.7816,3.8428,3.8483,3.8717,3.9258,3.9299,3.9242,3.9093,3.9093,3.8765,3.8017,3.7851,3.7158,3.5847,3.5215,3.4917,3.4941,3.4941,3.5238,3.5771,3.5181,3.4661,0.0,0.0,0.0,0.0,2.4843,0.0,0.0,0.0,2.5342,2.3769,0.0,0.0,0.0,0.0,0.0,0.0,0.0,0.0,2.7097,2.8106,2.9138,2.9733,3.0343,3.0735,3.0808,3.0277,3.0183,3.0771,3.0181,3.0094,3.0771,3.066,3.0623,3.0706,3.0634,3.059,3.059,3.1134,3.1394,3.1394,3.2003,3.2279,3.2264,3.167,3.1394,3.1365,3.0829,3.059,3.0605,3.0739,3.0925,3.1102,3.1249,3.1372,3.1474,3.1496,3.1503,3.1503,3.1503,3.1548,3.1615,3.1615,3.2071,3.2721,3.332,3.3552,3.3597,3.3514,3.3612,3.3709,3.3627,3.3672,3.3732,3.3732,3.4181,3.4615,3.4615,3.5078,3.5496,3.5496,3.5496,3.5496,3.5496,3.5561,3.5781,3.6329,3.6469,3.692,3.8051,3.8193,3.8442,3.9121,3.9181,3.9225,3.9292,3.9299,3.902,3.8371,3.8315,3.799,3.7261,3.6599,3.5925,3.5214,3.5008,3.4958,3.507,3.507,3.5061,3.5015,3.4938,3.4869,0.0,0.0,0.0,0.0,0.0,0.0,2.4228,0.0,2.4565,0.0,0.0,0.0,0.0,0.0,0.0,0.0,2.5627,0.0,0.0,0.0,2.8354,2.9,0.0,0.0,2.9987,2.9769,2.9878,3.0546,2.9987,2.9893,3.0561,3.059,3.059,3.059,3.059,3.059,3.059,3.0858,3.0982,3.0982,3.1257,3.1403,3.1388,3.1112,3.0982,3.0953,3.0706,3.065,3.0724,3.0777,3.0962,3.1212,3.1285,3.138,3.1503,3.1503,3.1503,3.1503,3.1503,3.1503,3.1503,3.1503,3.169,3.1974,3.225,3.2602,3.2834,3.2452,3.2893,3.341,3.3013,3.3215,3.3507,3.3507,3.4009,3.4496,3.4496,3.5034,3.5595,3.5942,3.6014,3.6156,3.6538,3.6608,3.6807,3.7413,3.783,3.8275,3.8816,3.8877,3.8989,3.9272,3.9299,3.9325,3.9415,3.9029,3.8673,3.8444,3.8032,3.7459,3.6716,3.6405,3.5908,3.5232,3.5163,3.5163,3.5216,3.5216,3.5192,3.5123,3.5123,3.5041,2.2358,0.0,0.0,0.0,0.0,0.0,0.0,0.0,0.0,0.0,0.0,0.0,0.0,0.0,0.0,0.0,0.0,2.5441,0.0,2.6071,0.0,0.0,0.0,0.0,0.0,2.9182,2.9435,3.0256,2.9718,2.9726,3.0569,3.059,3.059,3.059,3.059,3.059,3.059,3.059,3.059,3.059,3.059,3.059,3.059,3.059,3.0627,3.0657,3.0657,3.0739,3.0888,3.0888,3.1051,3.1292,3.1292,3.138,3.1503,3.1503,3.1503,3.1503,3.1503,3.1503,3.1503,3.1503,3.1503,3.1503,3.1503,3.1839,3.2116,3.1645,3.2191,3.2834,3.2347,3.2587,3.2953,3.2953,3.3455,3.3994,3.4188,3.4749,3.535,3.5795,3.5998,3.6252,3.6745,3.7146,3.7596,3.8208,3.8717,3.9114,3.9325,3.9186,3.9066,3.9099,3.8933,3.8923,3.923,3.8576,3.8114,3.8008,3.7298,3.6669,3.6122,3.6106,3.5855,3.536,3.5314,3.5314,3.5343,3.5343,3.5343,3.5297,3.5297,3.5198,0.0,0.0,0.0,2.2854,0.0,0.0,0.0,0.0,2.4643,0.0,0.0,0.0,0.0,0.0,0.0,0.0,0.0,0.0,0.0,0.0,0.0,0.0,0.0,0.0,0.0,2.8144,2.8275,2.9544,2.9073,2.9283,3.0532,3.059,3.059,3.059,3.059,3.059,3.059,3.059,3.059,3.059,3.059,3.059,3.059,3.059,3.0672,3.0784,3.0784,3.091,3.1095,3.1095,3.1176,3.1292,3.1292,3.138,3.1503,3.1503,3.1503,3.1503,3.1503,3.1503,3.1503,3.1503,3.1503,3.1503,3.1503,3.1525,3.1525,3.1511,3.1525,3.1563,3.154,3.1548,3.1563,3.1563,3.2071,3.2744,3.338,3.4054,3.4533,3.4557,3.4979,3.5334,3.5359,3.6498,3.7596,3.8208,3.8322,3.8618,3.9392,3.8875,3.847,3.8614,3.7972,3.7849,3.8577,3.7945,3.7225,3.6518,3.5777,3.5358,3.5347,3.5347,3.5388,3.5492,3.5377,3.5355,3.5492,3.5492,3.5429,3.5297,3.5297,3.5308,0.0,0.0,2.4489,2.3557,0.0,0.0,0.0,0.0,0.0,0.0,0.0,0.0,0.0,0.0,0.0,0.0,0.0,0.0,0.0,0.0,0.0,0.0,0.0,0.0,0.0,0.0,2.7803,2.9472,2.9036,2.9254,3.0532,3.059,3.059,3.059,3.059,3.059,3.059,3.059,3.059,3.059,3.059,3.059,3.059,3.059,3.0672,3.0784,3.0331,3.0558,3.1204,3.0753,3.0913,3.143,3.143,3.1452,3.1503,3.1503,3.1503,3.1503,3.1503,3.1503,3.1503,3.1503,3.1503,3.1503,3.1503,3.1503,3.1503,3.1503,3.1503,3.1503,3.1503,3.1503,3.1503,3.1503,3.2011,3.2676,3.33,3.3937,3.4595,3.5404,3.5779,3.6103,3.6551,3.7082,3.7512,3.7616,3.7636,3.7769,3.8128,3.7949,3.7818,3.7861,3.7644,3.7637,3.7976,3.7405,3.6695,3.5919,3.5638,3.5509,3.5509,3.5509,3.5526,3.5566,3.5526,3.5526,3.5566,3.5566,3.5543,3.5509,3.5509,3.5424,2.3004,2.3326,0.0,2.3132,2.3297,0.0,2.2999,0.0,2.4057,0.0,0.0,0.0,0.0,0.0,0.0,0.0,0.0,0.0,0.0,2.3538,0.0,0.0,0.0,0.0,0.0,0.0,2.7489,2.9152,2.892,0.0,0.0,3.059,3.059,3.059,3.0365,3.0365,3.059,3.0365,3.0241,3.0256,3.0488,3.0358,2.9936,3.0387,3.0425,3.0119,2.9972,3.0188,3.0585,3.0212,3.0484,3.1144,3.1144,3.1144,3.1167,3.1406,3.1503,3.1503,3.1503,3.1503,3.1503,3.1503,3.1503,3.1503,3.1503,3.1503,3.1503,3.1503,3.1503,3.1503,3.1503,3.1661,3.1817,3.1817,3.2299,3.2913,3.3548,3.4026,3.457,3.5344,3.5758,3.6039,3.6247,3.652,3.6867,3.7315,3.7369,3.7419,3.7548,3.7326,3.7171,3.7231,3.6996,3.6858,3.6953,3.685,3.6462,3.565,3.56,3.56,3.56,3.56,3.56,3.56,3.56,3.56,3.56,3.56,3.56,3.56,3.56,3.5521]},{"header":{"parameterUnit":"m.s-1","parameterCategory":1,"la1":30.6,"la2":29.2853,"lo1":-89.7004,"lo2":-87.6739,"dy":0.0162,"dx":0.0183,"nx":112,"ny":82,"refTime":"2024-08-17T12:00:00:Z","depth":0,"parameterNumber":3,"parameterNumberName":"V-component_of_WINDS"},"data":[0.0,0.0,0.0,0.0,0.0,0.0,0.0,0.0,0.0,0.0,0.0,0.0,0.0,0.0,0.0,0.0,0.0,0.0,0.0,0.0,0.0,0.0,0.0,0.0,0.0,0.0,0.0,0.0,0.0,0.0,0.0,0.0,0.0,0.0,0.0,0.0,0.0,0.0,0.0,0.0,0.0,0.0,0.0,0.0,0.0,0.0,0.0,0.0,0.0,0.0,0.0,0.0,0.0,0.0,0.0,0.0,0.0,0.0,0.0,0.0,0.0,0.0,0.0,0.0,0.0,0.0,0.0,0.0,0.0,0.0,0.0,0.0,0.0,0.0,0.0,0.0,0.0,0.0,0.0,0.0,0.0,0.0,0.0,0.0,0.0,0.0,0.0,0.0,0.0,0.0,1.2853,1.2168,1.2101,1.2101,1.2101,1.204,1.1981,1.1899,0.0,0.0,0.0,0.0,0.0,0.0,0.0,0.0,0.0,0.0,0.0,0.0,0.0,0.0,0.0,0.0,0.0,0.0,0.0,0.0,0.0,0.0,0.0,0.0,0.0,0.0,0.0,0.0,0.0,0.0,0.0,0.0,0.0,0.0,0.0,0.0,0.0,0.0,0.0,0.0,0.0,0.0,0.0,0.0,0.0,0.0,0.0,0.0,0.0,0.0,0.0,0.0,0.0,0.0,0.0,0.0,0.0,0.0,0.0,0.0,0.0,0.0,0.0,0.0,0.0,0.0,0.0,0.0,0.0,0.0,0.0,0.0,0.0,0.0,0.0,0.0,0.0,0.0,0.0,0.0,0.0,0.0,0.0,0.0,0.0,0.0,0.0,0.0,0.0,0.0,0.0,0.0,0.0,0.0,0.0,0.0,0.0,0.0,0.0,0.0,0.0,0.0,0.0,0.0,1.2239,1.2113,1.2101,1.2101,1.2101,1.1792,1.1682,1.189,0.0,0.0,0.0,0.0,0.0,0.0,0.0,0.0,0.0,0.0,0.0,0.0,0.0,0.0,0.0,0.0,0.0,0.0,0.0,0.0,0.0,0.0,0.0,0.0,0.0,0.0,0.0,0.0,0.0,0.0,0.0,0.0,0.0,0.0,0.0,0.0,0.0,0.0,0.0,0.0,0.0,0.0,0.0,0.0,0.0,0.0,0.0,0.0,0.0,0.0,0.0,0.0,0.0,0.0,0.0,0.0,0.0,0.0,0.0,0.0,0.0,0.0,0.0,0.0,0.0,0.0,0.0,0.0,0.0,0.0,0.0,0.0,0.0,0.0,0.0,0.0,0.0,0.0,0.0,0.0,0.0,0.0,0.0,0.0,0.0,0.0,0.0,0.0,0.0,0.0,0.0,0.0,0.0,0.0,0.0,0.0,0.0,0.0,0.0,0.0,0.0,0.0,0.0,1.2349,1.2101,1.2101,1.2101,1.2101,1.2101,1.1727,1.1576,1.1782,1.171,0.0,0.0,0.0,0.0,0.0,0.0,0.0,0.0,0.0,0.0,0.0,0.0,0.0,0.0,0.0,0.0,0.0,0.0,0.0,0.0,0.0,0.0,0.0,0.0,0.0,0.0,0.0,0.0,0.0,0.0,0.0,0.0,0.0,0.0,0.0,0.0,0.0,0.0,0.0,0.0,0.0,0.0,0.0,0.0,0.0,0.0,0.0,0.0,0.0,0.0,0.0,0.0,0.0,0.0,0.0,0.0,0.0,0.0,0.0,0.0,0.0,0.0,0.0,0.0,0.0,0.0,0.0,0.0,0.0,0.0,0.0,0.0,0.0,0.0,0.0,0.0,0.0,0.0,0.0,0.0,0.0,0.0,0.0,0.0,0.0,0.0,0.0,0.0,0.0,0.0,0.0,0.0,0.0,0.0,0.0,0.0,0.0,0.0,0.0,0.0,0.0,0.0,1.2485,1.2353,1.2119,1.2018,1.1963,1.1963,1.159,1.1422,1.1555,1.1372,0.0,0.0,0.0,0.0,0.0,0.0,0.0,0.0,0.0,0.0,0.0,0.0,0.0,0.0,0.0,0.0,0.0,0.0,0.0,0.0,0.0,0.0,0.0,0.0,0.0,0.0,0.0,0.0,0.0,0.0,0.0,0.0,0.0,0.0,0.0,0.0,0.0,0.0,0.0,0.0,0.0,0.0,0.0,0.0,0.0,0.0,0.0,0.0,0.0,0.0,0.0,0.0,0.0,0.0,0.0,0.0,0.0,0.0,0.0,0.0,0.0,0.0,0.0,0.0,0.0,0.0,0.0,0.0,0.0,0.0,0.0,0.0,0.0,0.0,0.0,0.0,0.0,0.0,0.0,0.0,0.0,0.0,0.0,0.0,0.0,0.0,0.0,0.0,0.0,0.0,0.0,0.0,0.0,0.0,0.0,0.0,0.0,0.0,0.0,0.0,0.0,0.0,1.2879,1.3072,1.219,1.1773,1.1538,1.1538,1.1169,1.0997,1.1131,1.1119,0.0,0.0,0.0,0.0,0.0,0.0,0.0,0.0,0.0,0.0,0.0,0.0,0.0,0.0,0.0,0.0,0.0,0.0,0.0,0.0,0.0,0.0,0.0,0.0,0.0,0.0,0.0,0.0,0.0,0.0,0.0,0.0,0.0,0.0,0.0,0.0,0.0,0.0,0.0,0.0,0.0,0.0,0.0,0.0,0.0,0.0,0.0,0.0,0.0,0.0,0.0,0.0,0.0,0.0,0.0,0.0,0.0,0.0,0.0,0.0,0.0,0.0,0.0,0.0,0.0,0.0,0.0,0.0,0.0,0.0,0.0,0.0,0.0,0.0,0.0,0.0,0.0,0.0,0.0,0.0,0.0,0.0,0.0,0.0,0.0,0.0,0.0,0.0,0.0,0.0,0.0,0.0,0.0,0.0,0.0,0.0,0.0,0.0,0.0,0.0,0.0,0.0,1.2755,1.2859,0.0,1.1746,1.1501,1.1501,1.0897,1.0691,1.1078,0.0,0.0,0.0,0.0,0.0,0.0,0.0,0.0,0.0,0.0,0.0,0.0,0.0,0.0,0.0,0.0,0.0,0.0,0.0,0.0,0.0,0.0,0.0,0.0,0.0,0.0,0.0,0.0,0.0,0.0,0.0,0.0,0.0,0.0,0.0,0.0,0.0,0.0,0.0,0.0,0.0,0.0,0.0,0.0,0.0,0.0,0.0,0.0,0.0,0.0,0.0,0.0,0.0,0.0,0.0,0.0,0.0,0.0,0.0,0.0,0.0,0.0,0.0,0.0,0.0,0.0,0.0,0.0,0.0,0.0,0.0,0.0,0.0,0.0,0.0,0.0,0.0,0.0,0.0,0.0,0.0,0.0,0.0,0.0,0.0,0.0,0.0,0.0,0.0,0.0,0.0,0.0,0.0,0.0,0.0,0.0,0.0,0.0,0.0,0.0,0.0,0.0,1.2454,1.2836,1.2922,0.0,1.1656,1.1311,1.1311,1.0691,1.0471,1.0883,0.0,0.0,0.0,0.0,0.0,0.0,0.0,0.0,0.0,0.0,0.0,0.0,0.0,0.0,0.0,0.0,0.0,0.0,0.0,0.0,0.0,0.0,0.0,0.0,0.0,0.0,0.0,0.0,0.0,0.0,0.0,0.0,0.0,0.0,0.0,0.0,0.0,0.0,0.0,0.0,0.0,0.0,0.0,0.0,0.0,0.0,0.0,0.0,0.0,0.0,0.0,0.0,0.0,0.0,0.0,0.0,0.0,0.0,0.0,0.0,0.0,0.0,0.0,0.0,0.0,0.0,0.0,0.0,0.0,0.0,0.0,0.0,0.0,0.0,0.0,0.0,0.0,0.0,0.0,0.0,0.0,0.0,0.0,0.0,0.0,0.0,0.0,0.0,0.0,0.0,0.0,0.0,0.0,0.0,0.0,0.0,0.0,0.0,0.0,0.0,0.0,0.0,1.264,1.3258,1.3412,1.241,1.1453,1.0895,1.0895,1.0531,1.0354,0.0,0.0,0.0,0.0,0.0,0.0,0.0,0.0,0.0,0.0,0.0,0.0,0.0,0.0,0.0,0.0,0.0,0.0,0.0,0.0,0.0,0.0,0.0,0.0,0.0,0.0,0.0,0.0,0.0,0.0,0.0,0.0,0.0,0.0,0.0,0.0,0.0,0.0,0.0,0.0,0.0,0.0,0.0,0.0,0.0,0.0,0.0,0.0,0.0,0.0,0.0,0.0,0.0,0.0,0.0,0.0,0.0,0.0,0.0,0.0,0.0,0.0,0.0,0.0,0.0,0.0,0.0,0.0,0.0,0.0,0.0,0.0,0.0,0.0,0.0,0.0,0.0,0.0,0.0,0.0,0.0,0.0,0.0,0.0,0.0,0.0,0.0,0.0,0.0,0.0,0.0,0.0,0.0,0.0,0.0,0.0,0.0,0.0,0.0,0.0,0.0,0.0,0.0,1.2773,1.3326,1.3412,1.241,1.1453,1.0895,1.0895,1.0268,1.0058,1.0471,0.0,0.0,0.0,0.0,0.0,0.0,0.0,0.0,0.0,0.0,0.0,0.0,0.0,0.0,0.0,0.0,0.0,0.0,0.0,0.0,0.0,0.0,0.0,0.0,0.0,0.0,0.0,0.0,0.0,0.0,0.0,0.0,0.0,0.0,0.0,0.0,0.0,0.0,0.0,0.0,0.0,0.0,0.0,0.0,0.0,0.0,0.0,0.0,0.0,0.0,0.0,0.0,0.0,0.0,0.0,0.0,0.0,0.0,0.0,0.0,0.0,0.0,0.0,0.0,0.0,0.0,0.0,0.0,0.0,0.0,0.0,0.0,0.0,0.0,0.0,0.0,0.0,0.0,0.0,0.0,0.0,0.0,0.0,0.0,0.0,0.0,0.0,0.0,0.0,0.0,0.0,0.0,0.0,0.0,0.0,0.0,0.0,0.0,0.0,0.0,0.0,0.0,1.2886,1.3423,1.3491,1.2491,1.1543,1.0957,1.0895,1.0158,0.9955,1.0535,0.0,0.0,0.0,0.0,0.0,0.0,0.0,0.0,0.0,0.0,0.0,0.0,0.0,0.0,0.0,0.0,0.0,0.0,0.0,0.0,0.0,0.0,0.0,0.0,0.0,0.0,0.0,0.0,0.0,0.0,0.0,0.0,0.0,0.0,0.0,0.0,0.0,0.0,0.0,0.0,0.0,0.0,0.0,0.0,0.0,0.0,0.0,0.0,0.0,0.0,0.0,0.0,0.0,0.0,0.0,0.0,0.0,0.0,0.0,0.0,0.0,0.0,0.0,0.0,0.0,0.0,0.0,0.0,0.0,0.0,0.0,0.0,0.0,0.0,0.0,0.0,0.0,0.0,0.0,0.0,0.0,0.0,0.0,0.0,0.0,0.0,0.0,0.0,0.0,0.0,0.0,0.0,0.0,0.0,0.0,0.0,0.0,0.0,0.0,0.0,0.0,0.0,1.3007,1.3539,1.3609,1.2609,1.1659,1.1055,1.0912,1.0158,0.9973,1.0606,0.0,0.0,0.0,0.0,0.0,0.0,0.0,0.0,0.0,0.0,0.0,0.0,0.0,0.0,0.0,0.0,0.0,0.0,0.0,0.0,0.0,0.0,0.0,0.0,0.0,0.0,0.0,0.0,0.0,0.0,0.0,0.0,0.0,0.0,0.0,0.0,0.0,0.0,0.0,0.0,0.0,0.0,0.0,0.0,0.0,0.0,0.0,0.0,0.0,0.0,0.0,0.0,0.0,0.0,0.0,0.0,0.0,0.0,0.0,0.0,1.861,1.8119,0.0,0.0,0.0,0.0,0.0,0.0,0.0,0.0,0.0,0.0,0.0,0.0,0.0,0.0,0.0,0.0,0.0,0.0,0.0,0.0,0.0,0.0,0.0,0.0,0.0,0.0,0.0,0.0,0.0,0.0,0.0,0.0,0.0,0.0,0.0,0.0,0.0,0.0,0.0,0.0,1.3019,1.3539,1.3609,1.2609,1.1659,1.1055,1.0912,1.0158,0.9849,1.0207,0.9943,0.0,0.0,0.0,0.0,0.0,0.0,0.0,0.0,0.0,0.0,0.0,0.0,0.0,0.0,0.0,0.0,0.0,0.0,0.0,0.0,0.0,0.0,0.0,0.0,0.0,0.0,0.0,0.0,0.0,0.0,0.0,0.0,0.0,0.0,0.0,0.0,0.0,0.0,0.0,0.0,0.0,0.0,0.0,0.0,0.0,0.0,0.0,0.0,0.0,0.0,0.0,0.0,0.0,0.0,0.0,0.0,0.0,0.0,0.0,2.0485,1.9953,0.0,0.0,0.0,0.0,0.0,0.0,0.0,0.0,0.0,0.0,0.0,0.0,0.0,0.0,0.0,0.0,0.0,0.0,0.0,0.0,0.0,0.0,0.0,0.0,0.0,0.0,0.0,0.0,0.0,0.0,0.0,0.0,0.0,0.0,0.0,0.0,0.0,0.0,0.0,0.0,1.2999,1.3403,1.3439,1.2589,1.1888,1.1335,1.0931,1.0338,1.0044,1.0192,0.9884,0.0,0.0,0.0,0.0,0.0,0.0,0.0,0.0,0.0,0.0,0.0,0.0,0.0,0.0,0.0,0.0,0.0,0.0,0.0,0.0,0.0,0.0,0.0,0.0,0.0,0.0,0.0,0.0,0.0,0.0,0.0,0.0,0.0,0.0,0.0,0.0,0.0,0.0,0.0,0.0,0.0,0.0,0.0,0.0,0.0,0.0,0.0,0.0,0.0,0.0,0.0,0.0,0.0,2.2614,2.2351,2.224,2.2112,2.2306,2.2685,2.2514,2.1928,2.1087,2.1345,0.0,0.0,0.0,0.0,0.0,0.0,0.0,0.0,0.0,0.0,0.0,0.0,0.0,0.0,0.0,0.0,0.0,0.0,0.0,0.0,0.0,0.0,2.1462,2.0692,2.0963,2.0777,1.8512,0.0,0.0,0.0,0.0,0.0,0.0,0.0,0.0,0.0,0.0,0.0,1.3252,1.3373,1.3252,1.2601,1.2146,1.1671,1.1093,1.0593,1.0301,1.0301,0.9865,0.9917,0.0,0.0,0.0,0.0,0.0,0.0,0.0,0.0,0.0,0.0,0.0,0.0,0.0,0.0,0.0,0.0,0.0,0.0,0.0,0.0,0.0,0.0,0.0,0.0,0.0,0.0,0.0,0.0,0.0,0.0,0.0,0.0,2.2976,2.3763,0.0,0.0,0.0,0.0,0.0,0.0,0.0,0.0,0.0,0.0,0.0,0.0,0.0,2.4384,2.4862,2.5279,2.5515,2.5626,2.6176,2.6434,2.6385,2.5807,2.5521,2.5472,2.5447,0.0,2.2475,2.1904,0.0,0.0,0.0,0.0,0.0,0.0,0.0,0.0,0.0,0.0,0.0,0.0,0.0,0.0,0.0,0.0,0.0,0.0,0.0,0.0,0.0,0.0,2.2248,2.2135,2.1743,2.146,2.1663,2.0013,1.8394,1.8108,1.7611,1.6929,0.0,0.0,0.0,0.0,0.0,0.0,1.4397,1.3858,1.3293,1.273,1.221,1.1816,1.1614,1.0803,1.0301,1.0301,1.0115,1.0121,1.0343,1.108,0.0,0.0,0.0,0.0,0.0,0.0,0.0,0.0,0.0,0.0,0.0,0.0,0.0,0.0,0.0,0.0,0.0,0.0,0.0,0.0,0.0,0.0,0.0,0.0,0.0,0.0,0.0,0.0,0.0,2.2499,2.3669,2.3831,2.4084,2.4066,0.0,0.0,0.0,0.0,0.0,0.0,0.0,0.0,0.0,2.6108,2.6072,2.6456,2.7343,2.6631,2.6448,2.6779,2.645,2.6254,2.6178,2.5885,2.5691,2.5596,2.5529,2.5153,2.4534,2.3806,2.3611,2.3706,0.0,0.0,0.0,0.0,2.2685,2.3016,2.3239,2.3347,2.3365,2.3268,0.0,0.0,0.0,0.0,0.0,0.0,0.0,2.2656,2.254,2.2997,2.3362,2.3007,2.2775,2.2725,2.3018,2.1839,2.0601,2.0163,1.9788,1.8993,1.7291,1.7028,0.0,0.0,0.0,1.5426,1.5039,1.4422,1.3775,1.3161,1.2575,1.209,1.1725,1.1256,1.0777,1.033,1.024,1.0237,1.0297,1.1207,1.1793,0.0,0.0,0.0,0.0,0.0,0.0,0.0,0.0,0.0,0.0,0.0,0.0,0.0,0.0,0.0,0.0,0.0,0.0,0.0,0.0,0.0,0.0,0.0,0.0,0.0,0.0,0.0,0.0,2.3839,2.4851,2.5079,2.5438,2.5498,0.0,0.0,0.0,0.0,0.0,0.0,2.6715,2.6853,2.7435,2.8606,2.8542,2.8901,2.9739,2.8286,2.7677,2.7928,2.6959,2.6363,2.6144,2.6144,2.6028,2.5831,2.5725,2.5916,2.6249,2.5452,2.5168,2.5145,2.419,2.4043,2.4291,2.3844,2.3959,2.4386,2.4672,2.4969,2.5142,2.4637,2.4367,2.4077,2.3141,0.0,0.0,0.0,0.0,2.3948,2.3456,2.3816,2.4124,2.3459,2.3276,2.3279,2.3445,2.2961,2.2365,2.1858,2.1511,2.0674,1.8725,1.8431,0.0,0.0,0.0,1.6379,1.5815,1.5092,1.4382,1.3684,1.3171,1.2719,1.2314,1.1909,1.1477,1.1018,1.0773,1.0706,1.0875,1.1852,1.2538,1.2867,0.0,0.0,0.0,0.0,0.0,0.0,0.0,0.0,0.0,0.0,0.0,0.0,0.0,0.0,0.0,0.0,0.0,0.0,0.0,0.0,0.0,0.0,0.0,0.0,0.0,0.0,0.0,0.0,0.0,2.9296,2.8952,0.0,0.0,0.0,0.0,2.8281,2.894,2.9585,3.0125,3.0151,3.0664,3.1734,3.1775,3.1674,3.1478,3.0945,3.0342,2.9674,2.9156,2.8656,2.8154,2.8154,2.7838,2.7291,2.7285,2.7229,2.7072,2.6144,2.6124,2.6684,2.6626,2.6605,2.6628,2.6599,2.6605,2.6535,2.5802,2.5187,2.4706,2.4486,2.402,2.3667,2.4218,2.3993,0.0,0.0,2.5264,2.5291,2.5269,2.478,2.4124,2.3459,2.2771,2.2431,2.2995,2.3087,2.2982,2.277,2.2252,2.1524,2.0453,0.0,1.9987,1.9167,1.8077,1.7232,1.6954,1.6006,1.5038,1.4235,1.4022,1.3914,1.3893,1.2833,1.2356,1.2833,1.2032,1.1818,1.2462,1.3449,1.3877,1.3652,1.4745,0.0,0.0,0.0,0.0,0.0,0.0,0.0,0.0,0.0,0.0,0.0,0.0,0.0,0.0,0.0,0.0,0.0,0.0,0.0,0.0,0.0,0.0,0.0,0.0,0.0,0.0,0.0,0.0,2.8943,2.9783,0.0,2.9849,3.0055,3.0321,3.0607,3.0955,3.123,3.142,3.1436,3.1596,3.1982,3.2284,3.2402,3.2315,3.1845,3.1247,3.0495,3.0028,2.9464,2.8797,2.8466,2.8143,2.7835,2.7442,2.7202,2.7039,2.6624,2.6641,2.6881,2.636,2.616,2.616,2.616,2.616,2.6118,2.5828,2.5874,2.6033,2.5967,2.5795,2.5638,2.5752,2.5731,2.5723,2.6018,2.5885,2.5566,2.5176,2.4425,2.3629,2.2994,2.2523,2.2258,2.2463,2.2519,2.2516,2.2484,2.2618,2.2318,2.0951,2.0867,2.063,1.9613,1.916,1.8748,1.8236,1.7406,1.6638,1.6003,1.5126,1.4583,1.4583,1.3752,1.3203,1.313,1.2812,1.2621,1.2595,1.3654,1.4246,1.4277,1.5446,1.6013,0.0,0.0,0.0,0.0,0.0,0.0,0.0,0.0,0.0,0.0,0.0,0.0,0.0,0.0,0.0,0.0,0.0,0.0,0.0,0.0,0.0,0.0,0.0,0.0,0.0,0.0,3.0115,3.0032,3.1024,3.155,3.1143,3.1704,3.2187,3.2458,3.2789,3.2989,3.2989,3.2989,3.2989,3.2989,3.3276,3.332,3.3072,3.2524,3.1867,3.1137,3.0573,2.9965,2.932,2.8977,2.8555,2.8091,2.7917,2.7547,2.7068,2.7136,2.71,2.694,2.6365,2.6145,2.6145,2.6145,2.6145,2.6116,2.5884,2.5944,2.6126,2.6126,2.6278,2.6445,2.6306,2.6504,2.6773,2.6638,2.638,2.5994,2.5369,2.4702,2.3985,2.3104,2.2905,2.2832,2.2559,2.2686,2.279,2.263,2.2759,2.2514,2.1314,2.125,2.101,1.9957,1.9875,1.9654,1.8866,1.836,1.7817,1.7172,1.629,1.5647,1.543,1.4733,1.4204,1.3988,1.3762,1.3711,1.3883,1.4295,1.4735,1.517,1.6289,1.697,1.7183,0.0,0.0,0.0,0.0,0.0,0.0,0.0,0.0,0.0,0.0,0.0,0.0,0.0,0.0,0.0,0.0,0.0,0.0,0.0,0.0,0.0,0.0,0.0,2.9654,3.0816,3.2016,3.2916,3.2862,3.2818,3.294,3.3493,3.3834,3.3834,3.4491,3.4905,3.4905,3.4905,3.4905,3.4905,3.4905,3.4541,3.3817,3.3088,3.2348,3.1598,3.0886,3.0285,2.9815,2.9815,2.9196,2.818,2.88,2.8374,2.7281,2.7722,2.7567,2.7036,2.6874,2.6792,2.6792,2.6792,2.6792,2.6705,2.6058,2.5409,2.4862,2.4862,2.5301,2.5834,2.5834,2.6284,2.6792,2.6792,2.6778,2.6612,2.5958,2.5675,2.521,2.3848,2.3926,2.4086,2.3303,2.3636,2.3919,2.3338,2.2738,2.2155,2.1622,2.1531,2.1238,2.0386,2.0246,0.0,1.8885,1.8801,1.8502,1.7651,1.7476,1.7165,1.6509,1.577,1.54,1.5533,1.4926,1.5124,1.6385,1.5563,1.5484,1.6345,1.7334,1.8184,1.8906,0.0,0.0,0.0,0.0,0.0,0.0,0.0,0.0,0.0,0.0,0.0,0.0,0.0,0.0,0.0,0.0,0.0,0.0,0.0,0.0,0.0,3.0841,3.1614,3.1121,3.2293,3.3282,3.3543,3.3995,3.4304,3.4349,3.4508,3.4607,3.4607,3.4789,3.4905,3.4905,3.4905,3.4905,3.4905,3.4905,3.4541,3.3817,3.3602,3.2862,3.1593,3.1394,3.0955,3.0305,2.9962,2.9579,2.9157,2.8603,2.8331,2.8271,2.8018,2.8033,2.814,2.7175,2.6792,2.6792,2.6792,2.6792,2.6778,2.6589,2.6394,2.6242,2.6242,2.6365,2.6538,2.6538,2.6647,2.6792,2.6792,2.6374,2.5893,2.5705,2.5123,2.4497,2.4098,2.4076,2.4086,2.3866,2.3972,2.3983,2.3624,2.3227,2.278,2.2246,2.2152,2.1993,2.1509,2.1098,2.0678,2.0214,1.9702,1.9246,1.8909,1.843,1.8017,1.7729,1.6722,1.6285,1.6705,1.6186,1.6244,1.7093,1.6971,1.7178,1.7807,1.8293,1.8671,0.0,0.0,0.0,0.0,0.0,0.0,0.0,0.0,0.0,0.0,0.0,0.0,0.0,0.0,0.0,0.0,0.0,0.0,0.0,0.0,0.0,0.0,3.2404,3.3116,3.3,3.3723,3.4259,3.4259,3.464,3.4905,3.4905,3.4905,3.4905,3.4905,3.4905,3.4905,3.4905,3.4905,3.4905,3.4905,3.4905,3.4541,3.3817,3.3486,3.2746,3.1593,3.1263,3.0866,3.0448,3.0124,2.9793,2.9465,2.9124,2.8805,2.8529,2.8532,2.8568,2.8517,0.0,0.0,0.0,0.0,2.6792,2.6792,2.6792,2.6792,2.6792,2.6792,2.6792,2.6779,2.6699,2.6665,2.6651,2.6614,2.6248,2.5889,2.5889,2.5486,2.5,2.4686,2.4778,2.4846,2.4541,2.4585,2.4596,2.4297,2.3967,0.0,2.3191,2.2714,2.2313,2.2068,2.169,2.1281,2.0837,2.0363,1.991,1.9524,1.9145,1.8735,1.8325,1.7591,0.0,0.0,0.0,1.6883,1.7018,1.7366,0.0,0.0,0.0,0.0,0.0,0.0,0.0,0.0,2.0724,2.0897,0.0,0.0,0.0,0.0,0.0,0.0,0.0,0.0,0.0,0.0,0.0,0.0,0.0,0.0,0.0,0.0,3.3436,3.4143,3.4806,3.4905,3.4905,3.4905,3.4905,3.4905,3.4905,3.4905,3.4905,3.4905,3.4893,3.4881,3.4881,3.4863,0.0,0.0,0.0,3.446,3.3645,3.2999,3.2244,3.1428,3.0714,3.0386,3.0364,3.0247,2.9913,2.9439,2.9909,2.9505,2.8564,2.9156,2.9084,2.8553,2.8022,2.7775,2.7637,2.7099,2.6865,2.6792,2.6792,0.0,0.0,2.6792,2.6779,2.6732,2.6543,2.6504,2.647,2.6339,2.6293,2.6286,2.6286,2.6273,2.609,2.5437,2.5687,2.5902,2.5245,2.5305,2.5411,2.5117,2.4757,2.4422,2.4187,2.3283,2.2548,2.2412,2.2176,2.1774,2.1174,2.0861,2.0437,1.9766,1.9641,0.0,1.8568,1.835,1.8069,1.7653,1.7641,1.741,1.689,1.7402,1.7995,1.8573,1.8857,2.0023,2.2098,2.184,2.2098,2.278,2.1882,2.1549,0.0,0.0,0.0,0.0,0.0,0.0,0.0,0.0,0.0,0.0,0.0,0.0,0.0,0.0,0.0,3.3431,3.4209,3.4739,3.4883,3.4905,3.4905,3.4905,3.4905,3.4905,3.4905,3.4905,3.4905,3.4905,3.481,3.4733,3.4733,3.4647,3.4576,3.4576,3.4576,3.3952,3.2683,3.2524,3.1796,3.0472,3.0308,0.0,3.0231,3.0205,3.0135,3.0006,2.9755,2.9708,2.9807,2.9577,2.9379,2.9181,2.8686,2.8187,2.7695,2.7572,2.7223,2.6792,2.6792,2.6699,2.6584,2.6753,2.6699,2.6551,2.651,2.6504,0.0,2.6339,2.6226,2.6131,2.6131,2.6056,2.594,2.5807,2.585,2.5899,2.5766,2.5612,2.5474,2.5418,2.4907,2.4473,2.4429,2.4068,2.3728,2.359,2.3031,2.2535,2.2298,2.1353,2.06,2.0353,1.9896,1.9483,1.9228,1.8797,1.8668,1.8992,1.9114,1.9169,1.9158,1.9083,1.944,2.03,2.0274,2.0625,2.1394,2.2084,2.2333,2.2164,2.1536,2.1876,0.0,0.0,0.0,0.0,0.0,0.0,0.0,0.0,0.0,0.0,0.0,3.1383,3.2503,0.0,3.3486,3.4226,3.4657,3.4905,3.4905,3.4521,3.4404,3.4849,3.4574,3.4467,3.476,3.4479,3.4532,3.5191,3.5196,3.5301,3.5633,3.5271,3.5044,3.5044,3.47,3.3995,3.2914,3.2559,3.1838,3.0757,3.031,3.0098,3.0098,3.0071,3.0049,3.0038,2.9798,2.983,3.0027,2.9828,2.999,3.0317,2.9936,2.9159,2.8195,2.8195,2.8005,2.7693,2.7374,2.7143,2.6963,2.6726,2.6546,2.6385,2.6318,2.6298,2.6265,2.6138,2.6043,2.5995,2.5995,2.5948,2.59,2.59,2.59,2.5852,2.5722,2.5467,2.5195,2.5026,2.4628,2.4304,2.4304,2.4187,2.4076,2.4015,2.3637,2.3188,2.2762,2.2085,2.1382,2.0686,2.0327,1.9967,1.9537,1.9188,1.9138,1.9481,1.9565,1.9596,1.9598,1.9473,1.9807,2.068,2.063,2.0996,2.1795,2.2343,2.2695,2.2848,2.2636,2.3006,0.0,0.0,0.0,0.0,0.0,0.0,0.0,0.0,3.0499,3.2117,3.2448,3.2862,3.4209,3.4441,3.464,3.523,3.533,3.528,3.5131,3.4386,3.4053,3.4576,3.4101,3.3911,3.4403,3.4046,3.4212,3.5318,3.55,3.5808,3.6335,3.5973,3.5731,3.5731,3.5153,3.4499,3.3763,3.3073,3.2375,3.1634,3.0657,3.0255,3.0385,3.0048,2.9967,3.0091,2.9967,2.9967,3.0101,3.0303,3.0776,3.1375,3.1296,3.0449,2.9235,2.9118,2.8986,2.8796,2.8264,2.7925,2.7645,2.7138,2.6811,2.6616,2.6507,2.6465,2.6431,2.6307,2.6266,2.6266,2.6266,2.6266,2.6266,2.6266,2.6217,2.6092,2.5882,2.5433,2.5003,2.4732,2.4361,2.4098,2.4098,2.4098,2.4098,2.4098,2.3957,2.3621,2.3035,2.2716,2.2159,2.112,2.0918,2.0575,1.9868,1.9812,1.9817,1.9811,1.9943,1.9969,1.9887,1.9924,2.0307,2.1098,2.1116,2.1651,2.2742,2.2868,2.3236,2.3875,2.4112,2.4296,2.8376,2.8392,2.8852,3.0764,3.0312,3.0251,0.0,0.0,3.2939,3.5065,3.5506,3.5754,3.6582,3.6731,3.6764,3.6831,3.6847,3.6632,3.5976,3.5235,3.4498,3.382,3.3577,3.3468,3.3532,3.4062,3.4466,3.4611,3.5117,3.5462,3.5527,3.5977,3.6213,3.6213,3.6132,3.5733,3.5007,3.4264,3.3567,3.2886,3.1473,3.1137,3.1732,3.0464,3.0226,3.0748,3.0166,3.0242,3.0839,3.1499,3.174,3.1722,3.2335,3.2005,3.1109,3.0593,3.001,2.9486,2.9411,2.9029,2.8564,2.8623,2.8259,2.7818,2.7789,2.7796,2.7753,2.7623,2.7587,2.7587,2.7587,2.7587,2.7587,2.7587,2.7311,2.7055,2.7018,2.615,2.5337,2.5313,2.4651,2.4098,2.4098,2.4098,2.4098,2.4098,2.3833,2.3595,2.3516,2.2821,2.2286,2.2146,2.1689,2.1181,2.0614,2.0996,2.1064,2.0608,2.1145,2.1509,2.1623,2.1791,2.2213,2.2895,2.2908,2.3269,2.4001,2.4014,2.4193,2.4513,2.5128,2.523,3.0543,3.0907,0.0,0.0,3.21,3.2365,3.3911,3.411,3.4358,3.5727,3.6334,3.6731,3.7046,3.7096,3.7096,0.0,3.7032,3.6882,3.6569,3.5389,3.4413,3.4047,3.3893,3.3675,3.3324,3.3558,3.4072,3.4851,3.5136,3.5639,3.6464,3.6378,3.6484,3.6872,3.6506,3.6157,3.5833,3.5117,3.4599,3.4298,3.2876,3.2336,3.2601,3.158,3.118,3.1285,3.0801,3.0768,3.1043,3.1358,3.168,3.2012,3.2163,3.2254,3.2216,3.1415,3.0954,3.0654,3.0301,2.9938,2.9577,2.9284,2.8973,2.8709,2.8709,2.8709,2.8624,2.8304,2.8211,2.8139,2.7871,2.763,2.7454,2.7454,2.7173,2.6867,2.6701,2.6277,2.5866,2.5673,2.5092,2.4624,2.4624,2.4327,2.4098,2.4098,2.3907,2.3737,2.3621,2.3217,2.2782,2.2347,2.182,2.1407,2.1181,2.1369,2.1407,2.1175,2.15,2.176,2.1885,2.2096,2.2523,2.3187,2.32,2.3513,2.4134,2.4182,2.4455,2.4953,2.5322,2.5577,3.1819,0.0,0.0,3.2856,3.3375,3.3851,3.4066,3.4667,3.5413,3.6152,3.6897,3.7447,3.7607,3.7627,3.7615,3.7566,3.7498,3.735,3.7153,3.569,3.4637,3.4616,3.4343,3.4056,3.3777,3.375,3.4239,3.5415,3.5506,3.6027,3.7244,3.7034,3.7105,3.7584,3.7138,3.6879,3.6879,3.6147,3.5782,3.5759,3.4251,3.3642,3.3803,3.2798,3.2009,3.144,3.1219,3.1227,3.1394,3.1394,3.1792,3.2375,3.2176,3.2376,3.2684,3.2,3.1744,3.1691,3.1252,3.0918,3.0595,3.0027,2.9691,2.9509,2.9509,2.9417,2.9267,2.9059,2.8835,2.8586,2.8245,2.7871,2.7592,2.7592,2.7325,2.7037,2.6842,2.6584,2.6337,2.6099,2.5597,2.5225,2.5225,2.4734,2.4347,2.4347,2.4048,2.376,2.3621,2.3428,2.3112,2.2578,2.2176,2.1882,2.1732,2.1907,2.1953,2.1809,2.2119,2.2356,2.2449,2.2629,2.299,2.3541,2.3655,2.3956,2.4496,2.4609,2.4946,2.5445,2.5557,2.5852,0.0,0.0,3.1852,3.322,3.3692,3.3994,3.47,3.5446,3.6174,3.6914,3.7652,3.8335,3.8849,3.8937,3.8896,3.8767,3.8746,3.8494,3.7773,3.6446,3.5517,3.5384,3.4731,3.4528,3.5072,3.5146,3.5441,3.6206,3.6264,3.6564,3.7254,3.7963,3.8343,3.8375,3.8343,3.8343,3.8343,3.76,3.7244,3.7221,3.5488,3.5034,3.5655,3.3941,3.2414,3.1101,3.1094,3.1505,3.2167,3.2167,3.245,3.2872,3.2866,3.2681,3.2411,3.2384,3.2362,3.2362,3.2353,3.2047,3.158,3.1101,3.0644,3.0262,3.0262,2.9949,2.9678,3.0125,2.9673,2.9075,2.906,2.8805,2.8557,2.8557,2.8303,2.8059,2.8042,2.733,2.668,2.6672,2.619,2.5782,2.5782,2.5335,2.4966,2.4966,2.4184,2.3606,2.3606,2.331,2.3095,2.3083,2.3058,2.2844,2.2327,2.2932,2.3124,2.26,2.3361,2.3839,2.3839,2.3971,2.4164,2.4462,2.4782,2.5112,2.5453,2.5722,2.5933,2.6069,2.6083,2.615,0.0,0.0,3.2988,3.3957,3.4239,3.4466,3.5206,3.593,3.667,3.7364,3.7732,3.7995,3.8172,3.8198,3.8201,3.8137,3.8437,3.8574,3.8329,3.7384,3.6708,3.6678,3.6437,0.0,3.6571,3.6189,0.0,3.628,3.6296,3.6587,3.7254,3.7536,3.7892,3.8375,3.8184,3.8067,3.8067,3.7604,3.7361,3.7345,3.6324,3.5705,3.5438,3.4212,3.3414,3.2924,3.2247,3.2091,3.233,3.233,3.2423,3.2564,3.2564,3.2503,3.2405,3.2405,3.2405,3.2405,3.2405,3.2301,3.2141,3.1978,3.183,3.1687,3.1687,3.158,3.1436,3.1277,3.097,3.0614,3.0313,2.9582,2.8932,2.8932,2.8298,2.7703,2.7703,2.7454,2.7227,2.7227,2.6778,2.6394,2.6394,2.5916,2.5354,2.4864,2.4232,2.3678,2.331,2.3293,2.3256,2.3115,2.31,2.3032,2.2852,2.3184,2.3314,2.3144,2.3605,2.3898,2.3898,2.4037,2.423,2.4488,2.4829,2.5159,2.5494,2.5771,2.5921,2.5968,2.5968,2.5989,3.2659,3.3309,3.3508,3.4244,3.4663,3.5027,3.5486,3.6164,3.6813,3.7249,3.7377,3.7386,3.734,3.7343,3.7395,3.759,3.7905,3.8226,3.8493,3.8052,3.7785,3.8044,3.8093,3.8174,0.0,0.0,0.0,3.7452,3.7436,3.7582,3.7892,3.7908,3.7955,3.8048,3.782,3.7726,3.7726,3.7513,3.735,3.7246,3.6822,3.6183,3.5347,3.4752,3.4338,3.4059,3.3151,3.2752,3.2743,3.2497,3.2405,3.2405,3.2405,3.2405,3.2405,3.2405,3.2405,3.2405,3.2405,3.2405,3.2377,3.2203,3.2155,3.2141,3.2083,3.1964,3.1737,3.1328,3.0925,3.0517,2.9979,2.9184,2.8525,2.8525,2.8003,2.7498,2.7498,2.7498,2.7498,2.7498,2.7227,2.6996,2.6996,2.6504,2.5866,2.5133,2.4772,2.4253,2.3328,2.3315,2.3315,2.3123,2.31,2.313,2.3198,2.3368,2.3507,2.3567,2.3832,2.3971,2.3971,2.4052,2.4179,2.4349,2.4785,2.511,2.532,2.5716,2.59,2.59,2.59,2.6027,3.2714,3.3171,3.3413,3.4109,3.4909,3.5533,3.5565,3.6122,3.6636,3.6718,3.6669,3.6613,3.6554,0.0,3.6671,3.7216,3.7351,3.7665,3.8359,3.8489,3.8771,0.0,0.0,0.0,0.0,0.0,0.0,3.9631,0.0,3.9408,3.9098,3.9037,3.8529,3.7518,3.741,3.738,3.738,3.7365,3.7224,3.6969,3.6969,3.6474,3.5552,3.5529,3.5144,3.4513,3.3775,3.346,3.3398,3.2728,3.2451,3.2451,3.2405,3.2405,3.2405,3.2405,3.2405,3.2405,3.2398,3.2398,3.2335,3.1873,3.1739,3.1695,3.1566,3.1197,3.0733,3.0427,2.9762,2.8996,2.8344,2.7876,2.7548,2.7548,2.7515,2.7498,2.7498,2.7498,2.7498,2.7498,2.7498,2.7498,2.7498,2.7079,2.6498,2.5771,2.5754,2.528,2.3707,2.3474,2.3376,2.3191,2.3128,2.3183,2.3395,2.3532,2.368,2.3891,2.4037,2.4098,2.4098,2.4098,2.4098,2.4098,2.4684,2.4977,2.4977,2.5585,2.5873,2.5873,2.5936,2.6245,3.2844,3.3484,3.3924,3.4102,3.4312,3.4629,3.5178,3.5454,3.587,3.6922,3.6318,3.5896,3.6914,3.6697,0.0,3.7203,3.8223,0.0,3.9183,3.9653,0.0,4.0212,0.0,4.031,4.0488,4.0771,0.0,0.0,4.041,4.0215,4.0117,3.9412,3.8872,3.8599,3.7621,3.7097,3.7097,3.6846,3.6708,3.6639,3.6639,3.6484,3.623,3.5722,3.5414,3.5206,3.4528,3.4213,3.4159,3.3444,3.3152,3.3106,3.2605,3.2405,3.2405,3.2405,3.2405,3.2391,3.2295,3.2323,3.2384,3.2266,3.2148,3.2072,3.2021,3.1515,3.0933,3.0852,3.0239,2.9579,2.9415,2.8813,2.8246,2.8246,2.7858,2.7498,2.7498,2.7498,2.7498,2.7498,2.7498,2.7498,2.7498,2.7389,2.7102,2.6511,2.6443,2.6071,2.4966,2.4474,2.4198,2.4152,2.3513,2.322,2.3524,2.3584,2.368,2.3891,2.4037,2.4098,2.4098,2.4098,2.4098,2.4098,2.4442,2.463,2.463,2.5286,2.5598,2.5612,2.6267,2.6645,3.3346,3.3809,3.4101,3.4101,3.4334,3.469,3.5108,3.5441,3.5904,3.6694,3.6238,0.0,3.671,3.6548,0.0,0.0,0.0,0.0,3.945,4.0357,4.0981,0.0,4.1112,0.0,4.1197,4.1262,4.1326,0.0,4.1118,4.079,4.0346,3.9793,3.9132,3.8377,3.7608,3.7072,3.6778,3.6585,3.6499,3.6499,3.6499,3.6499,3.6484,3.6115,3.5937,3.5907,3.5237,3.4944,3.4882,3.4167,3.3698,3.336,3.2927,3.2569,3.2316,3.2254,3.2226,3.2212,3.2143,3.2156,3.2226,3.2226,3.2163,3.2101,3.2031,3.171,3.127,3.0896,3.0465,2.9965,2.9378,2.8877,2.8433,2.8124,2.7767,2.7498,2.7498,2.7498,2.7498,2.7498,2.7498,2.7498,2.7498,2.7498,2.7402,2.7105,2.7053,2.687,2.6328,2.5507,2.4949,2.4851,2.4376,2.4182,2.4456,2.4239,2.4173,2.4365,2.4197,2.4098,2.4098,2.4098,2.4098,2.4098,2.4363,2.4628,2.49,2.5413,2.5863,2.6267,2.6751,2.7217,3.3939,3.4101,3.4101,3.4101,3.4576,3.5053,3.5053,3.5623,3.6189,3.628,0.0,3.6361,3.6539,3.649,3.6662,3.7341,0.0,3.8803,3.9523,4.0762,4.1637,4.171,4.1948,4.2101,4.2101,4.1761,4.1531,4.1531,4.1481,4.1113,4.0334,4.0167,3.9302,3.757,3.7507,3.7215,3.6638,3.6638,3.6638,3.6638,3.6546,3.6499,3.6499,3.6499,3.6499,3.6469,3.5891,3.5629,3.5583,3.4913,3.4198,3.3522,3.3295,3.2794,3.2177,3.206,3.2004,3.2004,3.1982,3.1968,3.1975,3.1996,3.1989,3.1947,3.1849,3.172,3.1467,3.0703,3.0434,3.0079,2.8829,2.8506,2.8328,2.7665,2.7498,2.7498,2.7498,2.7498,2.7498,2.7498,2.7498,2.7498,2.7498,2.7498,2.7498,2.7498,2.7498,2.7498,2.7498,2.645,2.5658,2.5497,2.5369,2.5386,2.5617,2.513,2.4906,2.5094,2.4622,2.4333,2.4333,2.4333,2.4333,2.4333,2.455,2.4935,2.5451,2.5788,2.6333,2.7077,2.7197,2.7715,3.4068,3.4101,3.4101,3.4101,3.4204,3.4285,3.4285,3.4858,0.0,0.0,3.6296,3.6652,3.7825,3.7543,3.7358,3.8093,0.0,0.0,0.0,0.0,4.1807,0.0,0.0,0.0,0.0,0.0,0.0,0.0,4.0884,4.0873,4.1323,4.0558,3.9302,3.757,3.7507,3.7438,3.7323,3.7323,3.7323,3.7323,3.6761,3.6499,3.6499,3.6499,3.6499,3.6484,3.6376,3.6338,3.6268,3.5599,3.4921,3.4236,3.3486,3.2794,3.2177,3.206,3.2004,3.1982,3.187,3.1827,3.1848,3.1961,3.1934,3.1827,3.1814,3.1292,3.0681,3.0546,3.0095,2.9481,2.8701,2.8506,2.8328,2.7665,2.7498,2.7498,2.7498,2.7498,2.7498,2.7498,2.7498,2.7498,2.7498,2.7498,2.7498,2.7498,2.7498,2.7498,2.7498,2.6767,2.6311,2.6436,2.5752,2.5434,2.5738,2.5569,2.5509,2.5657,2.5553,2.5508,2.5508,2.5508,2.5508,2.5508,2.5541,2.5625,2.5722,2.6063,2.6316,2.6476,2.7199,2.7618,3.3675,3.3784,3.3892,3.3892,3.4,3.4063,3.3924,0.0,0.0,0.0,0.0,3.7591,3.8278,0.0,0.0,0.0,0.0,0.0,0.0,0.0,0.0,0.0,0.0,0.0,0.0,0.0,4.079,4.079,4.061,4.0653,4.1004,4.0239,3.9398,3.8569,3.8192,3.8023,3.8023,3.7669,3.7507,3.7492,3.6815,3.6499,3.6499,3.6499,3.6499,3.6499,3.6499,3.6499,3.6461,3.6037,3.5262,3.4281,3.3732,3.2892,3.1968,3.1805,3.1748,3.1733,3.1662,3.1648,3.1647,3.1726,3.1698,3.1648,3.1648,3.1358,3.0955,3.0599,3.0269,2.9789,2.8765,2.8506,2.8328,2.7665,2.7498,2.7498,2.7498,2.7498,2.7498,2.7498,2.7498,2.7498,2.7498,2.7498,2.7498,2.7498,2.7498,2.7498,2.7498,2.7184,2.7006,2.711,2.6715,2.6505,2.6672,2.6366,2.6197,2.6269,2.5965,2.5801,2.5801,2.5801,2.5801,2.5801,2.5801,2.5952,2.6269,2.6422,2.6762,2.7256,2.7667,2.7953,3.3309,3.345,3.362,3.362,3.3765,3.3867,3.3665,3.4788,0.0,0.0,3.6982,3.8122,3.8267,0.0,3.8213,0.0,0.0,0.0,0.0,0.0,0.0,0.0,0.0,0.0,0.0,4.0739,0.0,4.0498,4.0498,4.0498,4.0498,3.9852,3.9507,3.9507,3.8845,3.8568,3.8707,3.7915,3.7569,3.7707,3.69,3.6499,3.6499,3.6499,3.6499,3.6499,3.6499,3.6484,3.6422,3.6305,3.5431,3.4142,3.3932,3.3012,3.177,3.1568,3.1503,3.1503,3.1503,3.1503,3.1503,3.1503,3.1503,3.1503,3.1503,3.1503,3.1394,3.0859,3.0606,3.0223,2.9022,2.8605,2.8328,2.7665,2.7498,2.7498,2.7498,2.7498,2.7498,2.7498,2.7498,2.7498,2.7498,2.7498,2.7498,2.7498,2.7498,2.7498,2.7498,2.7498,2.7498,2.7498,2.7498,2.7498,2.7498,2.711,2.6873,2.6873,2.643,2.6158,2.6158,2.6158,2.6158,2.6158,2.6158,2.6404,2.6873,2.6873,2.7247,2.7972,2.7972,2.812,3.3309,3.3328,3.3332,3.3332,3.3361,3.3375,3.3332,0.0,0.0,3.5308,3.6292,3.7222,3.7831,3.8191,0.0,0.0,0.0,0.0,0.0,0.0,0.0,0.0,0.0,0.0,0.0,4.0739,4.0498,4.0498,4.0498,4.0498,4.0498,3.9852,3.9507,3.9507,3.8845,3.8792,3.9399,3.813,3.7815,3.8392,3.7107,3.6499,3.6499,3.6499,3.6499,3.6499,3.6499,3.6398,3.6242,3.6398,3.5493,3.4015,3.3992,3.3092,3.177,3.1568,3.1503,3.1503,3.1503,3.1503,3.1503,3.1503,3.1503,3.1503,3.1503,3.1503,3.1496,3.143,3.0977,3.0329,2.9604,2.8959,2.8328,2.7665,2.7498,2.7498,2.7498,2.7498,2.7498,2.7498,2.7498,2.7498,2.7498,2.7498,2.7498,2.7498,2.7498,2.7498,2.7498,2.7498,2.7498,2.7498,2.7498,2.7498,2.7498,2.7446,2.7433,2.7433,2.7372,2.7333,2.7333,2.7333,2.7333,2.7333,2.7333,2.7368,2.7433,2.7433,2.7463,2.7561,2.7561,2.7578,3.2644,3.2906,3.3065,3.3065,3.3176,3.3262,3.3105,0.0,3.4989,3.5083,3.6219,3.7284,3.7554,3.7704,3.7714,0.0,3.7883,3.8392,3.8869,0.0,0.0,0.0,0.0,0.0,0.0,0.0,4.0498,4.0498,4.0498,4.0498,4.0498,4.0252,4.0098,4.0098,3.9845,3.9837,4.0098,3.8768,3.8238,3.8476,3.7138,3.6499,3.6499,3.6499,3.6499,3.6492,3.6375,3.6266,3.6188,3.6077,3.5176,3.3872,3.3751,3.2848,3.1604,3.1532,3.1503,3.1503,3.1503,3.1503,3.1503,3.1503,3.1503,3.1503,3.1503,3.1503,3.1416,3.1014,3.0412,2.9743,2.9077,2.8395,2.7825,2.7556,2.7498,2.7498,2.7498,2.7498,2.7498,2.7498,2.7498,2.7498,2.7498,2.7498,2.7498,2.7498,2.7498,2.7498,2.7498,2.7498,2.7498,2.7498,2.7498,2.7498,2.7498,2.7498,2.7498,2.7498,2.7498,2.7498,2.7498,2.7498,2.7498,2.7498,2.7498,2.7498,2.7498,2.7498,2.7498,2.7498,2.7498,2.7498,3.2227,3.2564,3.2752,3.2752,3.3042,3.3278,0.0,3.4133,3.5123,3.5087,3.608,3.7025,3.7245,3.7343,3.7302,0.0,3.7391,3.7878,3.8315,3.9006,0.0,0.0,0.0,4.0627,0.0,4.0498,4.0498,4.0498,4.0498,4.0498,4.0498,4.0498,4.0498,4.0498,4.0313,4.0298,4.0498,3.8968,3.83,3.8476,3.7138,3.6499,3.6499,3.6499,3.6499,3.6492,3.6352,3.6227,3.6124,3.5927,3.4989,3.3698,3.3614,3.2729,3.1503,3.1503,3.1503,3.1503,3.1503,3.1503,3.1503,3.1503,3.1503,3.1503,3.1503,3.1365,3.1102,3.0629,2.9866,2.9048,2.8384,2.785,2.7498,2.7498,2.7498,2.7498,2.7498,2.7498,2.7498,2.7498,2.7498,2.7498,2.7498,2.7498,2.7498,2.7498,2.7498,2.7498,2.7498,2.7498,2.7498,2.7498,2.7498,2.7498,2.7498,2.7498,2.7498,2.7498,2.7498,2.7498,2.7498,2.7498,2.7498,2.7498,2.7498,2.7498,2.7498,2.7498,2.7498,2.7498,2.7498,2.7498,3.2227,3.2405,3.2411,3.2411,3.292,3.3405,0.0,3.3974,3.4697,3.536,3.5723,3.6142,3.6874,3.7225,3.7402,3.7386,3.8001,3.872,3.9384,4.0119,0.0,0.0,0.0,4.0943,4.0533,4.0498,4.0498,4.0498,4.0498,4.0498,4.0498,4.0498,4.0498,4.0498,3.9852,3.983,4.0498,3.8515,3.7846,3.8476,3.7138,3.6499,3.6499,3.6499,3.6499,3.6499,3.6499,3.6312,3.6013,3.614,3.513,3.3522,3.3721,3.2856,3.1503,3.1503,3.1503,3.1503,3.1503,3.1503,3.1503,3.1503,3.1503,3.1503,3.1503,3.1043,3.0517,3.0509,2.954,2.836,2.7681,2.7506,2.7498,2.7498,2.7498,2.7498,2.7498,2.7498,2.7498,2.7498,2.7498,2.7498,2.7498,2.7498,2.7498,2.7498,2.7498,2.7498,2.7498,2.7498,2.7498,2.7498,2.7498,2.7498,2.7498,2.7498,2.7498,2.7498,2.7498,2.7498,2.7498,2.7498,2.7498,2.7498,2.7498,2.7498,2.7498,2.7498,2.7498,2.7498,2.7498,2.7498,3.209,3.2405,3.2405,3.2405,3.2906,3.3398,3.3398,3.4329,3.5237,3.5468,3.5937,3.6384,3.6623,3.6739,3.7009,3.77,3.781,0.0,0.0,0.0,0.0,3.9986,4.0418,4.0645,0.0,0.0,4.0498,4.0498,4.0498,4.0498,4.0498,4.0498,4.0498,4.0498,4.029,4.0283,4.0498,3.8953,3.8284,3.8476,3.7138,3.6422,3.6289,3.6289,3.6234,3.6147,3.6006,3.5894,3.5799,3.5734,3.4839,3.3515,3.3568,3.2744,3.1503,3.1503,3.1503,3.1503,3.1503,3.1503,3.1503,3.1503,3.1503,3.1503,3.1503,3.1029,3.0306,2.9392,2.8829,2.8352,2.7673,2.7498,2.7498,2.7498,2.7498,2.7498,2.7498,2.7498,2.7498,2.7498,2.7498,2.7498,2.7498,2.7498,2.7498,2.7498,2.7498,2.7498,2.7498,2.7498,2.7498,2.7498,2.7498,2.7498,2.7498,2.7498,2.7498,2.7498,2.7498,2.7498,2.7498,2.7498,2.7498,2.7498,2.7498,2.7498,2.7498,2.7498,2.7498,2.7498,2.7498,2.7498,0.0,3.202,3.2081,3.2343,3.2906,3.3398,3.3398,3.4483,3.5491,3.5491,3.6022,3.6499,3.6499,3.6499,3.6716,3.7336,3.7249,0.0,0.0,0.0,0.0,3.9814,0.0,0.0,0.0,4.0498,4.0498,4.0498,4.0498,4.0498,4.0498,4.0498,4.0498,4.0498,4.0498,4.0375,4.0129,3.903,3.8376,3.8115,3.6936,3.6313,3.6196,3.6148,3.6077,3.5989,3.5871,3.5768,0.0,3.5605,3.476,3.3507,3.3507,3.2684,3.1503,3.1503,3.1503,3.1503,3.1503,3.1503,3.1503,3.1503,3.1336,3.108,3.0822,3.0442,2.9843,2.85,2.8129,2.8031,2.7606,2.7498,2.7498,2.7498,2.7498,2.7498,2.7498,2.7498,2.7498,2.7498,2.7498,2.7498,2.7498,2.7498,2.7498,2.7498,2.7498,2.7498,2.7498,2.7498,2.7498,2.7498,2.7498,2.7498,2.7498,2.7498,2.7498,2.7498,2.7498,2.7498,2.7498,2.7498,2.7498,2.7498,2.7498,2.7498,2.7498,2.7498,2.7498,2.7498,2.7498,2.7498,0.0,3.1334,3.1549,3.2174,3.2875,3.3398,3.3398,3.4452,0.0,3.5437,3.5968,3.6438,3.6484,3.6499,3.653,3.6623,3.6638,0.0,0.0,3.8607,0.0,0.0,4.0498,0.0,4.0498,4.0498,4.0498,4.0498,4.0498,4.0498,4.0498,4.0498,4.0498,4.0498,4.0452,4.0144,3.9584,3.8852,3.8176,3.7553,3.6626,3.6187,3.6156,3.6045,3.5973,3.5957,3.5957,3.5862,3.568,3.568,3.4825,3.3507,3.3507,3.2684,3.1503,3.1503,3.1503,3.1503,3.1503,3.1503,3.1496,3.1438,3.1014,3.0367,2.9658,2.9426,2.9166,2.7853,2.7498,2.7498,2.7498,2.7498,2.7498,2.7498,2.7498,2.7498,2.7498,2.7498,2.7498,2.7498,2.7498,2.7498,2.7498,2.7498,2.7498,2.7498,2.7498,2.7498,2.7498,2.7498,2.7498,2.7498,2.7498,2.7498,2.7498,2.7498,2.7498,2.7498,2.7498,2.7498,2.7498,2.7498,2.7498,2.7498,2.7498,2.7498,2.7498,2.7498,2.7498,2.7498,2.7498,2.7498,2.9652,0.0,3.1441,3.1595,3.2528,3.3398,0.0,3.409,3.4744,0.0,0.0,0.0,3.6415,3.6499,0.0,0.0,0.0,0.0,3.9153,0.0,0.0,4.0467,4.0498,4.0498,4.0498,4.0498,4.0498,4.0498,4.0498,4.0498,4.0498,4.0498,4.0498,4.0498,3.999,3.9907,4.0267,3.899,3.8265,3.8097,3.6711,3.5966,3.5816,3.5776,3.5718,3.5626,3.5626,3.5587,3.5546,3.5546,3.4736,3.3507,3.3507,3.2684,3.1503,3.1503,3.1503,3.1503,3.1503,3.1503,3.1416,3.0896,3.0629,3.0276,2.9093,2.8741,2.8557,2.7726,2.7498,2.7498,2.7498,2.7498,2.7498,2.7498,2.7498,2.7498,2.7498,2.7498,2.7498,2.7498,2.7498,2.7498,2.7498,2.7498,2.7498,2.7498,2.7498,2.7498,2.7498,2.7498,2.7498,2.7498,2.7498,2.7498,2.7498,2.7498,2.7498,2.7498,2.7498,2.7498,2.7498,2.7498,2.7498,2.7498,2.7498,2.7498,2.7498,2.7498,2.7498,2.7498,2.7498,2.7498,2.8753,3.0135,3.1472,3.1773,3.2635,3.3398,3.3398,0.0,0.0,0.0,0.0,0.0,0.0,0.0,0.0,0.0,3.8038,0.0,0.0,0.0,4.0498,4.0498,4.0498,4.0498,0.0,4.0498,4.0498,4.0498,4.0498,4.0375,4.0052,4.0037,3.9898,3.9599,3.923,3.9196,3.9497,3.8363,3.7608,3.7237,3.6314,3.5815,3.5704,3.5645,3.5563,3.5496,3.5496,3.5496,3.5496,3.5496,3.4711,3.3507,3.3507,3.2684,3.1503,3.1503,3.1503,3.1503,3.1503,3.1292,3.0984,3.0621,3.0079,2.9447,2.8717,2.8287,2.7973,2.7598,2.7498,2.7498,2.7498,2.7498,2.7498,2.7498,2.7498,2.7498,2.7498,2.7498,2.7498,2.7498,2.7498,2.7498,2.7498,2.7498,2.7498,2.7498,2.7498,2.7498,2.7498,2.7453,2.7436,2.7481,2.7444,2.7436,2.7481,2.7498,2.7498,2.7498,2.7498,2.7498,2.7498,2.7498,2.7498,2.7498,2.7498,2.7498,2.7498,2.7498,2.7498,2.7498,2.7498,2.7498,2.8344,3.0012,3.1642,3.1997,3.2752,3.336,3.3275,0.0,0.0,0.0,0.0,0.0,0.0,0.0,0.0,0.0,0.0,0.0,3.9476,4.0144,4.0498,4.0498,4.0498,0.0,4.036,4.0344,4.0298,4.0206,4.019,3.9944,3.9384,3.9353,3.9091,3.8515,3.8367,3.8239,3.8098,3.7486,3.6809,3.6109,3.5804,3.5679,3.5671,3.5554,3.5496,3.5496,3.5496,3.5496,3.5496,3.5496,3.4711,3.3507,3.3507,3.2684,3.1503,3.1503,3.1503,3.1503,3.1503,3.1058,3.0487,3.0374,2.9509,2.8481,2.8376,2.7949,2.7498,2.7498,2.7498,2.7498,2.7498,2.7498,2.7498,2.7498,2.7498,2.7498,2.7498,2.7498,2.7498,2.7498,2.7498,2.7498,2.7498,2.7498,2.7498,2.7498,2.7486,2.7478,2.7478,2.7335,2.7294,2.7411,2.7319,2.731,2.7461,2.7478,2.7486,2.7498,2.7498,2.7498,2.7498,2.7498,2.7498,2.7498,2.7498,2.7498,2.7498,2.7498,2.7498,2.7498,2.7498,2.7498,2.8907,3.072,3.2004,3.0968,3.2061,3.3244,0.0,0.0,0.0,0.0,0.0,0.0,0.0,0.0,0.0,0.0,0.0,3.9461,0.0,0.0,4.0498,4.0498,0.0,4.0283,3.9714,3.9661,3.9414,3.8845,3.8814,3.8753,3.8661,3.8653,3.8607,3.85,3.7777,3.734,3.7201,3.7086,3.6875,3.6574,3.5874,3.5522,3.5522,3.5512,3.5496,3.5496,3.5496,3.5496,3.5496,3.5496,3.4711,3.3507,3.3507,3.2684,3.1503,3.1503,3.1503,3.1503,3.1503,3.1058,3.0404,2.9843,2.9133,2.8393,2.7825,2.7581,2.7498,2.7498,2.7498,2.7498,2.7498,2.7498,2.7498,2.7498,2.7498,2.7498,2.7498,2.7498,2.7498,2.7498,2.7498,2.7498,2.7498,2.7498,2.7498,2.7498,2.7403,2.7327,2.7327,2.7163,2.7045,2.7062,2.7053,2.7121,2.731,2.7327,2.7377,2.7481,2.7498,2.7498,2.7498,2.7498,2.7498,2.7498,2.7498,2.7498,2.7498,2.7498,2.7498,2.7498,2.7498,2.7498,2.8057,3.0167,3.1893,3.1123,3.2752,3.4452,0.0,0.0,0.0,0.0,0.0,0.0,0.0,0.0,0.0,0.0,0.0,4.0144,4.0467,4.019,3.996,0.0,0.0,3.9307,3.8984,3.8953,3.883,3.853,3.85,3.8289,3.7823,3.7792,3.7599,3.715,3.6757,3.6462,3.6301,3.6301,3.6203,3.6054,3.568,3.5496,3.5496,3.5496,3.5496,3.5496,3.5496,3.5496,3.5496,3.5496,3.4711,3.3507,3.3507,3.2684,3.1503,3.1503,3.1503,3.1445,3.1087,3.0524,2.985,2.9174,2.8508,2.7899,2.759,2.7498,2.7498,2.7498,2.7498,2.7498,2.7498,2.7498,2.7498,2.7498,2.7498,2.7498,2.7498,2.7444,2.7394,2.7394,2.7294,2.7251,2.7369,2.7394,2.7419,2.7481,2.7453,2.7411,2.7411,2.7251,2.7163,2.7163,2.7163,2.7205,2.7285,2.7369,2.7436,2.7498,2.7498,2.7498,2.7498,2.7498,2.7498,2.7498,2.7498,2.7498,2.7498,2.7498,2.7498,2.7498,2.7498,2.7498,2.7349,2.9435,3.1397,3.1659,0.0,0.0,0.0,0.0,0.0,0.0,0.0,0.0,0.0,3.6838,0.0,3.9307,4.0052,4.0452,4.0283,3.9821,3.9445,3.9276,3.8814,3.8438,3.8284,3.8269,3.8192,3.8038,3.799,3.7663,3.7006,3.6935,3.6634,3.602,3.5957,3.5863,3.5704,3.5679,3.5589,3.5496,3.5496,3.5496,3.5496,3.5496,3.5496,3.5496,3.5496,3.5496,3.5481,3.5325,3.4562,3.3484,3.332,3.2542,3.1503,3.1503,3.1503,3.1401,3.0733,3.0057,2.9387,2.8725,2.8056,2.7498,2.7498,2.7498,2.7498,2.7498,2.7498,2.7498,2.7498,2.7498,2.7498,2.7498,2.7498,2.7498,2.7498,2.7419,2.7352,2.7352,2.7205,2.7121,2.7268,2.7251,2.7251,2.7369,2.7339,2.7306,2.7306,2.7201,2.7108,2.7108,2.7108,2.7125,2.7159,2.7302,2.7403,2.7453,2.7486,2.7498,2.7498,2.7498,2.7498,2.7498,2.7498,2.7498,2.7498,2.7498,2.7498,2.7498,2.7498,2.7498,2.779,2.9119,3.0385,3.2235,0.0,0.0,3.4486,0.0,0.0,0.0,0.0,0.0,0.0,3.7523,3.8661,3.9384,4.0052,4.0283,3.9652,0.0,3.9276,3.8653,3.853,3.8262,3.7622,3.7569,3.7307,3.6684,3.6474,3.6349,3.6287,3.6153,3.6059,3.5997,3.5823,3.5712,3.5704,3.5572,3.5512,3.5496,3.5496,3.5496,3.5496,3.5496,3.5496,3.5496,3.5496,3.5496,3.5451,3.4832,3.4143,3.3447,3.2819,3.2131,3.1503,3.1503,3.1503,3.1401,3.0733,3.0057,2.9387,2.8725,2.8056,2.7498,2.7498,2.7498,2.7498,2.7498,2.7498,2.7498,2.7498,2.7498,2.7498,2.7498,2.7498,2.7498,2.7498,2.7481,2.7481,2.7481,2.7369,2.7277,2.7294,2.7155,2.7024,2.7032,2.6871,2.6756,2.6756,2.6641,2.6568,2.6568,2.6568,2.6607,2.6731,2.6926,2.7121,2.7294,2.7436,2.7498,2.7498,2.7498,2.7498,2.7498,2.7498,2.7498,2.7498,2.7498,2.7498,2.7498,2.7498,2.7498,2.6962,2.8848,3.07,3.1879,0.0,0.0,0.0,0.0,0.0,0.0,0.0,0.0,0.0,0.0,3.8722,3.9384,4.0052,4.0267,3.9591,3.9138,3.8638,3.7961,3.7507,3.7153,3.69,3.6884,3.6769,3.6515,3.6305,3.6156,3.6077,3.591,3.5782,3.5692,3.5627,3.5572,3.5572,3.5537,3.5714,3.6126,3.5699,3.5496,3.5496,3.5496,3.5496,3.5496,3.5496,3.5265,3.4862,3.46,3.3851,3.2819,3.2131,3.172,3.1503,3.1503,3.1503,3.1343,3.0261,2.9705,2.9317,2.8238,2.7714,2.7498,2.7498,2.7498,2.7498,2.7498,2.7498,2.7498,2.7498,2.7498,2.7498,2.7498,2.7498,2.7498,2.7498,2.7436,2.7377,2.7377,2.7121,2.6973,2.7096,2.6952,2.6858,2.6977,2.6935,2.6892,2.6892,2.6841,2.6765,2.6641,2.6624,2.6701,2.6875,2.6952,2.7032,2.7104,2.7163,2.7277,2.7481,2.7419,2.7411,2.7498,2.7498,2.7498,2.7498,2.7498,2.7498,2.7498,2.7498,2.7498,2.6565,2.8336,3.013,0.0,0.0,0.0,0.0,0.0,0.0,0.0,0.0,0.0,0.0,0.0,0.0,0.0,3.9883,3.9944,3.9276,3.8607,3.7938,3.7261,3.6776,3.6499,3.6499,3.6499,3.6499,3.6499,3.6273,3.6093,3.6005,3.5774,3.5581,3.5504,3.5496,3.5496,3.5496,3.5496,3.5729,3.6186,3.5729,3.5601,3.5804,3.5609,3.5376,3.5175,3.4966,3.4614,3.4166,3.3964,3.32,3.2131,3.1675,3.1503,3.1503,3.1503,3.1372,3.1021,2.9896,2.9356,2.8992,2.7875,2.7498,2.7498,2.7498,2.7498,2.7498,2.7498,2.7498,2.7498,2.7498,2.7498,2.7498,2.7498,2.7498,2.7498,2.7498,2.7436,2.7352,2.731,2.7074,2.6888,2.6901,2.6786,2.6735,2.6833,2.6833,2.6833,2.6833,2.6833,2.679,2.6658,2.6641,2.6684,2.6833,2.6833,2.6858,2.6901,2.6867,2.702,2.7419,2.7352,2.7361,2.7498,2.7498,2.7498,2.7498,2.7498,2.7498,2.7498,2.7498,2.7498,2.6832,2.7554,0.0,0.0,0.0,0.0,0.0,0.0,0.0,0.0,0.0,0.0,0.0,0.0,0.0,3.9384,3.9491,3.9261,3.8584,3.7923,3.7246,3.6576,3.6499,3.6499,3.6499,3.6499,3.6499,3.6499,3.6187,3.5997,3.5997,3.5683,3.5496,3.5496,3.5496,3.5496,3.5496,3.5496,3.5496,3.5511,3.5511,3.5848,3.6464,3.5804,3.513,3.4466,3.3791,3.3507,3.3447,3.2774,3.2101,3.1503,3.1503,3.1503,3.1503,3.1496,3.1065,3.0397,2.9735,2.9062,2.8393,2.7723,2.7498,2.7511,2.7498,2.7498,2.7511,2.7498,2.7498,2.7498,2.7498,2.7498,2.7498,2.7498,2.7498,2.7498,2.7498,2.7498,2.7461,2.7319,2.7294,2.7167,2.6765,2.6696,2.6658,2.6512,2.6508,2.6508,2.6508,2.6508,2.6508,2.6508,2.6508,2.6508,2.6508,2.6508,2.6555,2.6688,2.6564,2.6735,2.7277,2.7294,2.7361,2.7481,2.7498,2.7498,2.7498,2.7498,2.7498,2.7498,2.7498,2.7498,2.6555,2.7885,0.0,0.0,0.0,0.0,0.0,0.0,0.0,0.0,0.0,0.0,0.0,0.0,0.0,3.87,3.8799,3.8561,3.7892,3.7631,3.7246,3.6576,3.6499,3.6499,3.6499,3.6499,3.643,3.6297,3.6116,3.5949,3.5807,3.5619,3.5496,3.5496,3.5496,3.5496,3.5496,3.5496,3.5744,3.6201,3.6201,3.6058,3.5774,3.5093,3.4682,3.4466,3.3791,3.323,3.2736,3.2071,3.1675,3.1503,3.1503,3.1503,3.1438,3.0977,3.0666,3.0337,2.9196,2.8669,2.8393,2.7723,2.7781,2.8046,2.7629,2.7802,2.8033,2.7616,2.7498,2.7498,2.7498,2.7498,2.7486,2.7377,2.7361,2.7319,2.718,2.7155,2.7138,2.7096,2.6964,2.6833,2.6714,2.6624,2.6547,2.6516,2.6508,2.6508,2.6508,2.6508,2.6508,2.6508,2.6508,2.6508,2.6508,2.6508,2.6512,2.6555,2.6512,2.6688,2.707,2.6947,2.6964,2.7146,2.7155,2.7155,2.7155,2.7155,2.7155,2.7155,2.7155,2.7155,2.7322,0.0,0.0,0.0,0.0,0.0,0.0,0.0,0.0,0.0,0.0,0.0,0.0,3.7946,0.0,3.8392,3.8284,3.7961,3.7569,3.7277,3.6961,3.6546,3.6499,3.6392,3.6138,3.6107,3.5907,3.5439,3.5536,3.5508,3.5312,3.5437,3.5496,3.5496,3.5496,3.5496,3.5496,3.5496,3.5699,3.6096,3.6096,3.5893,3.5481,3.4817,3.4203,3.3672,3.2998,3.2482,3.2071,3.1675,3.1503,3.1503,3.1503,3.1503,3.1445,3.1051,3.0561,2.9981,2.9188,2.8549,2.8087,2.7911,2.7933,2.802,2.7894,2.812,2.8272,2.7676,2.7846,2.8094,2.7616,2.7859,2.806,2.7452,2.7294,2.7248,2.7037,2.7007,2.6982,2.6901,2.6858,2.6777,2.6641,2.6598,2.6555,2.6516,2.6508,2.6508,2.6508,2.6508,2.6508,2.6508,2.6508,2.6508,2.6508,2.6508,2.6508,2.6508,2.6508,2.6594,2.679,2.6735,2.6786,2.7007,2.7007,2.7007,2.7007,2.7007,2.7007,2.7007,2.7007,2.7007,0.0,0.0,0.0,0.0,0.0,0.0,0.0,0.0,0.0,0.0,0.0,0.0,3.8176,3.7853,3.7631,3.83,3.7853,3.7415,3.7415,3.6876,3.6499,3.6499,3.6499,3.6245,3.5622,3.5514,3.5131,3.4316,3.4653,3.4803,3.4595,3.5106,3.5415,3.5415,3.5474,3.5496,3.5496,3.5496,3.5496,3.5496,3.5496,3.5474,3.5385,3.4712,3.3672,3.237,3.1765,3.1503,3.1503,3.1503,3.1503,3.1503,3.1503,3.1503,3.1496,3.143,3.0636,2.9566,2.9442,2.8615,2.7673,2.8163,2.7981,2.7676,2.8172,2.8364,2.8272,2.7676,2.8333,2.8965,2.7872,2.8421,2.896,2.7712,2.7393,2.7274,2.7007,2.6982,2.6969,2.6794,2.6896,2.696,2.6689,2.6712,2.6717,2.6588,2.6524,2.6508,2.6508,2.6508,2.652,2.6571,2.6524,2.652,2.6562,2.6524,2.6508,2.6508,2.6508,2.6508,2.6508,2.6624,2.6769,2.6956,2.6956,2.6956,2.6956,2.6956,2.6956,2.6956,2.6956,2.6956,0.0,2.8984,0.0,0.0,0.0,0.0,0.0,0.0,0.0,0.0,0.0,3.6746,3.7569,3.7177,3.6923,3.7615,3.7153,3.6715,3.6715,3.6592,3.6499,3.6499,3.6499,3.6383,3.6082,3.5562,3.5072,3.4628,3.4257,3.3969,3.3778,3.4369,3.472,3.472,3.5228,3.5496,3.5496,3.5496,3.5496,3.5496,3.5496,3.522,3.4682,3.4024,3.2983,3.1705,3.1563,3.1503,3.1503,3.1503,3.1503,3.1503,3.1503,3.1503,3.1438,3.0903,3.0532,3.0125,2.9077,2.8524,2.8224,2.7826,2.7933,2.8146,2.7802,2.802,2.8272,2.7676,2.8024,2.8534,2.8264,2.8625,2.8947,2.8511,2.8073,2.7558,2.6776,2.6943,2.7219,2.7175,2.7211,2.7349,2.77,2.7429,2.7167,2.7131,2.6776,2.6508,2.6508,2.6508,2.6663,2.7072,2.6751,2.6663,2.7085,2.6738,2.6508,2.6508,2.6508,2.6508,2.6508,2.6521,2.6555,2.6611,2.6611,2.6611,2.6611,2.6611,2.6611,2.6611,2.6611,2.6611,0.0,0.0,0.0,0.0,0.0,0.0,0.0,0.0,0.0,0.0,3.6499,3.6607,3.6953,3.6746,3.6607,3.6953,3.673,3.6499,3.6499,3.6499,3.6468,3.6375,3.6359,3.6036,3.5232,3.4836,3.4265,3.3374,3.3585,3.354,3.3058,3.427,3.4832,3.4511,3.5145,3.5496,3.5496,3.5496,3.5496,3.5496,3.5496,3.4981,3.3994,3.332,3.2467,3.1503,3.1503,3.1503,3.1503,3.1503,3.1503,3.1503,3.1503,3.1503,3.1416,3.0755,3.0299,2.9916,2.9177,2.8537,2.8058,2.8287,2.8181,2.7968,2.7933,2.8146,2.8324,2.802,2.8547,2.9157,2.89,2.9323,2.963,2.8872,2.8409,2.7973,2.7386,2.7487,2.7604,2.7349,2.7503,2.7691,2.7708,2.7487,2.7298,2.7298,2.7056,2.6788,2.6524,2.6943,2.7273,2.7298,2.7273,2.7386,2.7666,2.7185,2.688,2.688,2.6637,2.6508,2.6508,2.6508,2.6508,2.6508,2.6508,2.6508,2.6508,2.6508,2.6508,2.6508,2.6508,2.6508,0.0,0.0,0.0,0.0,0.0,0.0,0.0,0.0,0.0,0.0,3.6499,3.6499,3.6499,3.6499,3.6499,3.6499,3.6499,3.6499,3.6499,3.6476,3.6391,3.6227,3.6187,3.5666,3.4417,3.4091,3.3494,3.235,3.3036,3.3194,3.2542,3.4299,3.5019,3.4346,3.5085,3.5496,3.5496,3.5496,3.5496,3.5496,3.5496,3.4801,3.3477,3.2923,3.2243,3.1503,3.1503,3.1503,3.1503,3.1503,3.1503,3.1503,3.1503,3.1503,3.143,3.0874,3.0303,2.9791,2.9508,2.8716,2.7967,2.8856,2.8473,2.7768,2.8368,2.8555,2.8555,2.8555,2.9274,2.9947,2.9504,2.9982,3.0324,2.9215,2.8797,2.8535,2.8187,2.8176,2.81,2.7666,2.8021,2.8222,2.7666,2.7578,2.7578,2.7578,2.7503,2.7273,2.683,2.7553,2.7971,2.7616,2.7896,2.8138,2.8226,2.7754,2.7437,2.7437,2.7018,2.6738,2.6637,2.6637,2.6587,2.6508,2.6508,2.6508,2.6508,2.6508,2.6508,2.6508,2.6508,2.6508,0.0,0.0,0.0,0.0,0.0,0.0,0.0,0.0,0.0,0.0,3.6499,3.6499,3.6499,3.6499,3.6499,3.6499,3.6499,3.6499,3.6499,3.6352,3.6234,3.6196,3.6093,3.5882,3.551,3.4476,3.3909,3.4115,3.3216,3.2609,3.2519,3.3851,3.4323,3.3657,3.4846,3.5496,3.5496,3.5496,3.5496,3.5496,3.5496,3.4801,3.3507,3.341,3.2677,3.1503,3.1503,3.1503,3.1503,3.1503,3.1503,3.1503,3.1503,3.1503,3.1496,3.1401,3.1263,3.0994,2.9871,2.9334,2.908,2.8653,2.8416,2.839,2.9004,2.9174,2.9174,2.9174,2.9497,2.9819,2.9751,2.996,3.0133,2.9964,2.9767,2.934,2.8323,2.8467,2.8772,2.8706,2.9176,2.9377,2.8794,2.8693,2.8693,2.8693,2.8288,2.7971,2.7905,2.8009,2.8251,2.8634,2.8339,2.8288,2.8747,2.8301,2.7987,2.7987,2.7921,2.7679,2.7211,2.7185,2.6968,2.6508,2.6508,2.6508,2.6508,2.6508,2.6508,2.6508,2.6508,2.6508,0.0,0.0,0.0,0.0,0.0,0.0,0.0,0.0,3.6499,3.6499,3.6499,3.6499,3.6499,3.6499,3.6499,3.6499,3.6499,3.6468,3.6352,3.6258,3.6125,3.5943,3.5863,3.5616,3.5087,3.4516,3.4124,3.3949,3.3732,3.3455,3.308,3.4322,3.4749,3.4084,3.5004,3.5496,3.5496,3.5496,3.5496,3.5496,3.5123,3.4637,3.4039,3.3275,3.2407,3.1503,3.1503,3.1503,3.1503,3.1503,3.1503,3.1503,3.1503,3.1503,3.1445,3.108,3.0683,3.0304,3.0044,2.9462,2.8906,2.9241,2.9144,2.8952,2.9214,2.9225,2.9192,2.9491,2.9618,2.9711,3.0047,3.0123,3.0094,3.0094,2.9943,2.9654,2.9164,2.9239,2.9405,2.9405,2.9355,2.933,2.9393,2.912,2.8897,2.8897,2.8706,2.8439,2.8138,2.8662,2.9004,2.891,2.8991,2.9151,2.938,2.8881,2.8543,2.8543,2.8276,2.7987,2.7767,2.7754,2.7499,2.6955,2.665,2.6508,2.6508,2.6508,2.6508,2.6508,2.6508,2.6508,0.0,0.0,0.0,0.0,0.0,0.0,0.0,0.0,3.6492,0.0,3.6414,3.6359,3.6124,3.6312,3.6484,3.6422,3.6414,3.6359,3.6179,3.6116,3.5983,3.5736,3.5679,3.5403,3.4818,3.46,3.4353,3.4023,3.4308,3.4278,3.3784,3.4861,3.519,3.4526,3.4989,3.5325,3.5496,3.5496,3.5496,3.5481,3.4989,3.4652,3.4466,3.3455,3.2542,3.1742,3.1563,3.1503,3.1503,3.1503,3.1503,3.1503,3.1503,3.1491,3.1397,3.0732,3.0242,2.9919,3.0029,2.9534,2.8974,2.9822,2.9791,2.946,2.9604,2.952,2.9447,2.9848,2.9815,2.9759,3.0209,3.0171,3.002,3.002,2.9905,2.9801,2.9801,2.9801,2.9801,2.9801,2.9443,2.928,2.9716,2.9431,2.9132,2.9132,2.9132,2.8982,2.8577,2.9264,2.9628,2.9183,2.9528,2.9801,2.9801,2.9393,2.9132,2.9132,2.8753,2.8452,2.8314,2.8301,2.805,2.7516,2.6981,2.6637,2.6508,2.6508,2.6562,2.67,2.6562,2.6562,0.0,0.0,0.0,0.0,0.0,0.0,0.0,0.0,0.0,3.625,3.6227,3.5959,3.5146,3.5808,3.643,3.625,3.6227,3.6172,3.6029,3.5847,3.572,3.5704,3.5596,3.5497,3.5444,3.4869,3.4757,3.5355,3.4839,3.4481,3.4451,3.5123,3.519,3.4526,3.4526,3.4862,3.5481,3.5496,3.5496,3.5496,3.5466,3.5123,3.4496,3.4436,3.3687,3.2407,3.178,3.1503,3.1503,3.1503,3.1503,3.1503,3.1503,3.1464,3.1336,3.0719,3.0717,3.0872,2.9801,2.9682,3.0022,3.0074,2.9952,2.9879,3.0448,3.049,3.0339,3.0365,3.0225,3.0075,3.0113,2.9972,2.9821,2.9821,2.9811,2.9801,2.9801,2.9801,2.9801,2.9801,2.9767,2.9754,2.9789,2.9767,2.9741,2.9741,2.9741,2.9741,2.9726,2.9754,2.9789,2.9764,2.9789,2.9801,2.9801,2.9767,2.9741,2.9741,2.9739,2.9465,2.8872,2.886,2.8605,2.8072,2.7528,2.7006,2.6508,2.6508,2.6754,2.7257,2.6738,2.6776,0.0,0.0,0.0,0.0,0.0,0.0,0.0,3.3657,3.4436,3.4139,3.4356,3.4493,3.4188,3.5253,3.599,3.5455,3.576,3.6006,3.5824,3.5744,3.5679,3.558,3.5522,3.5496,3.5496,3.4892,3.46,3.4839,3.4233,3.3851,3.3851,3.4091,3.4106,3.3874,3.3851,3.3971,3.4218,3.4644,3.4862,3.4854,3.5295,3.5153,3.4496,3.4054,3.3365,3.243,3.1338,3.1095,3.1503,3.1503,3.1503,3.1503,3.1503,3.1228,3.0799,3.0574,3.0288,3.0015,2.9988,3.0033,3.0147,3.0401,3.0443,3.0385,3.0478,3.0372,3.0209,3.0209,3.0068,2.9905,2.9905,2.985,2.9801,2.9801,2.9801,2.9801,2.9801,2.9801,2.9801,2.9801,2.9801,2.9801,2.9801,2.9801,2.9801,2.9801,2.9801,2.9801,2.9801,2.9801,2.9801,2.9801,2.9801,2.9801,2.9801,2.9801,2.9801,2.9801,2.9801,2.9691,2.949,2.9478,2.9205,2.8618,2.8417,2.805,2.7537,2.7173,2.7286,2.7808,2.7616,2.7449,0.0,0.0,0.0,0.0,0.0,0.0,3.1496,0.0,3.303,3.3425,3.3408,3.3257,3.2982,3.3773,3.4561,3.4769,3.5211,3.5551,3.5614,3.5622,3.5589,3.5512,3.5496,3.5415,3.519,3.4757,3.4406,3.4173,3.3747,3.3507,3.3507,3.3507,3.3395,3.317,3.338,3.338,3.317,3.4054,3.4496,3.4511,3.5183,3.5026,3.4155,3.3703,3.2889,3.1798,3.1123,3.096,3.1153,3.0911,3.0829,3.0829,3.0829,3.0541,3.011,2.9897,2.9629,2.941,2.9747,2.9913,3.0059,3.0466,3.0543,3.0467,3.033,3.0161,3.0001,3.0001,2.9895,2.9801,2.9801,2.9801,2.9801,2.9801,2.9801,2.9801,2.9801,2.9801,2.9801,2.9801,2.9801,2.9801,2.9801,2.9801,2.9801,2.9801,2.9801,2.9801,2.9801,2.9801,2.9801,2.9801,2.9801,2.9801,2.9801,2.9801,2.9801,2.9801,2.9801,2.9801,2.9801,2.9801,2.9616,2.9217,2.8998,2.8819,2.8674,2.793,2.7846,2.8364,2.7996,2.7541,0.0,0.0,0.0,0.0,0.0,0.0,3.2072,0.0,3.2344,3.4147,3.3435,3.2235,3.1477,3.1387,3.2105,3.4149,3.451,3.4745,3.5351,3.5431,3.5431,3.5431,3.5431,3.5178,3.45,3.4425,3.4134,3.3461,3.3386,3.3379,3.3379,3.3379,3.3095,3.246,3.3065,3.311,3.2482,3.3784,3.4436,3.4451,3.5123,3.4747,3.3475,3.3475,3.2394,3.0557,3.1176,3.1075,3.0412,2.9797,2.952,2.9496,2.9496,2.9447,2.93,2.8722,2.8814,2.9244,2.9056,2.9356,2.9862,3.0252,3.0254,3.0094,3.0085,2.9943,2.9801,2.9801,2.9801,2.9801,2.9801,2.9801,2.9801,2.9801,2.9801,2.9801,2.9801,2.9801,2.9801,2.9801,2.9801,2.9801,2.9801,2.9801,2.9801,2.9801,2.9801,2.9801,2.9801,2.9801,2.9801,2.9801,2.9801,2.9801,2.9801,2.9772,2.9763,2.9763,2.9743,2.9724,2.9724,2.9724,2.9724,2.9724,2.9154,2.9141,2.9711,2.8656,2.8401,2.8897,2.7821,2.7043,2.105,0.0,0.0,0.0,0.0,0.0,0.0,0.0,2.8313,2.9832,2.9822,2.9636,2.9831,2.9906,3.0264,3.1375,3.2385,3.3194,3.3759,3.3848,3.3848,3.3848,3.3848,3.3607,3.3044,3.2538,3.2008,3.1373,3.0876,3.0617,3.0617,3.0617,3.0731,3.1041,3.1239,3.1471,3.1772,3.2639,3.3043,3.3058,3.3739,3.3593,3.2784,3.2784,3.2211,3.119,3.0383,2.9953,2.9804,3.0095,2.9942,2.9496,2.9496,2.9198,2.8722,2.856,2.8477,2.8481,2.8869,2.9256,2.9653,3.0047,3.0152,3.0065,2.9924,2.984,2.9801,2.9801,2.9801,2.9801,2.9801,2.9801,2.9801,2.9801,2.9801,2.9801,2.9801,2.9801,2.9801,2.9801,2.9801,2.9801,2.9801,2.9801,2.9801,2.9801,2.9801,2.9801,2.9801,2.9801,2.9801,2.9801,2.9801,2.9801,2.9801,2.9219,2.886,2.886,2.8223,2.7851,2.7851,2.7851,2.7851,2.7851,2.7678,2.7678,2.7851,2.8418,2.8982,2.9528,2.8398,2.7591,0.0,0.0,0.0,0.0,0.0,0.0,2.5449,2.5955,2.6627,0.0,2.8648,2.8515,2.8903,2.8741,2.8777,2.9448,3.0211,3.1144,3.2328,3.2489,3.2587,3.284,3.2868,3.2719,3.2351,3.196,3.1474,3.0889,3.0463,3.0251,3.0251,3.0298,3.038,3.0456,3.0208,3.0269,3.0659,3.133,3.1675,3.1667,3.2354,3.2169,3.1257,3.1257,3.0726,2.9803,2.9292,2.8913,2.8706,2.9323,2.9213,2.8658,2.8594,2.8347,2.799,2.7908,2.7774,2.7726,2.8235,2.8692,2.9095,2.9476,2.976,2.9943,2.984,2.9801,2.9801,2.9801,2.9801,2.9801,2.9801,2.9801,2.9801,2.9801,2.9801,2.9801,2.9801,2.9801,2.9801,2.9801,2.9801,2.9801,2.9801,2.9801,2.9801,2.9801,2.9801,2.9801,2.9801,2.9801,2.9653,2.9309,2.9258,2.9101,2.8702,2.8213,2.7921,2.7921,2.7405,2.7028,2.6862,2.7005,2.6935,2.6561,2.6757,2.6747,2.6559,2.7628,2.8108,2.8021,2.7191,2.6675,0.0,0.0,0.0,0.0,2.2377,0.0,2.5815,2.5948,2.619,0.0,2.8414,2.7881,2.808,2.7669,2.7493,2.8015,2.822,2.8996,3.0974,3.1268,3.1442,3.1993,3.2063,3.1978,3.1797,3.1789,3.1525,3.0926,3.0879,3.0879,3.0879,3.0987,3.0783,3.0215,2.9672,2.9419,2.9496,3.0162,3.0495,3.0495,3.1159,3.0845,2.9698,2.9629,2.8945,2.7856,2.8298,2.8157,2.764,2.8031,2.7908,2.7461,2.7319,2.7268,2.7243,2.7062,2.699,2.7033,2.7451,2.7901,2.8332,2.869,2.9217,2.9691,2.9691,2.9751,2.9801,2.9801,2.9801,2.9801,2.9801,2.9801,2.9801,2.9801,2.9801,2.9801,2.9801,2.9801,2.9801,2.9801,2.9801,2.9801,2.9801,2.9801,2.9801,2.9801,2.9801,2.9772,2.9663,2.9653,2.9317,2.8442,2.8331,2.8011,2.7171,2.7018,2.6967,2.6967,2.6864,2.6651,2.629,2.658,2.6375,2.5595,2.5942,2.5929,2.5502,2.6484,2.6465,2.5513,2.5173,2.506,2.1247,2.2022,2.2905,2.1206,0.0,0.0,2.3338,2.3506,2.3994,0.0,2.467,2.4523,2.5492,2.5923,2.6166,2.6292,2.7075,2.8161,2.9534,2.9723,2.9772,2.9892,2.9905,2.9697,2.9188,2.9148,2.8888,2.8292,2.8231,2.8231,2.8231,2.8274,2.8457,2.8854,2.8769,2.8959,2.9489,3.0105,3.0419,3.0433,3.1043,3.1193,3.0934,3.0447,3.0081,2.9781,2.8895,2.8433,2.8254,2.7723,2.7436,2.7319,2.713,2.7053,2.7045,2.7015,2.6901,2.6837,2.7395,2.7555,2.7607,2.8084,2.8631,2.9082,2.9082,2.9405,2.9801,2.9801,2.9801,2.9801,2.9801,2.9801,2.9801,2.9801,2.9801,2.9801,2.9801,2.9801,2.9801,2.9801,2.9801,2.9801,2.9801,2.9801,2.9801,2.9801,2.9801,2.9546,2.8841,2.8752,2.8403,2.7476,2.7374,2.7303,2.712,2.6463,2.6048,2.6048,2.54,2.4967,2.4893,2.465,2.4438,2.4268,2.3993,2.3802,2.3707,2.5287,2.5731,2.5113,2.504,2.4752,2.116,2.1636,2.238,2.1227,0.0,0.0,0.0,2.3013,2.3458,2.436,2.4066,2.3935,2.4827,2.522,2.5401,2.5401,2.636,2.721,2.751,2.8046,2.8503,2.8821,2.8848,2.8848,2.8848,2.8848,2.873,2.8425,2.874,2.8791,2.8416,2.8462,2.8482,2.8449,2.8153,2.8165,2.8503,2.8807,2.8947,2.8961,2.9259,2.9403,2.9389,2.9097,2.8947,2.8918,2.8282,2.8006,2.7957,2.7481,2.7248,2.713,2.6922,2.6858,2.6841,2.6782,2.6696,2.6636,2.6944,2.716,2.734,2.7616,2.805,2.8493,2.8493,2.8903,2.9292,2.9026,2.9362,2.9739,2.9431,2.9569,2.9801,2.9801,2.9801,2.9801,2.9801,2.9801,2.9801,2.9801,2.9801,2.9801,2.9801,2.9436,2.915,2.915,2.8752,2.8303,2.7861,2.7799,2.7466,2.6545,2.6452,2.6287,2.5841,2.54,2.5147,2.5147,2.4733,2.4415,2.4208,2.4012,2.3681,2.3204,2.2749,2.2501,2.2501,2.3373,2.3796,2.3747,2.3515,2.3461,0.0,0.0,0.0,0.0,0.0,2.2734,0.0,0.0,0.0,2.4037,2.3871,0.0,0.0,0.0,0.0,2.4502,0.0,0.0,0.0,2.6454,0.0,2.7998,2.8159,2.842,2.8913,2.8861,2.8848,2.8952,2.9405,2.9463,2.8978,2.9062,2.8841,2.825,2.7755,2.7498,2.7498,2.7616,2.7676,2.7676,2.7794,2.7859,2.7846,2.7729,2.7676,2.7676,2.755,2.7498,2.7481,2.7361,2.718,2.6977,2.6777,2.6684,2.6658,2.6538,2.6508,2.6508,2.6508,2.6788,2.7157,2.7157,2.7503,2.7971,2.8072,2.8392,2.8656,2.8226,2.8762,2.9365,2.8869,2.9104,2.9475,2.9475,2.9553,2.9628,2.9628,2.9716,2.9801,2.9801,2.9801,2.9801,2.9801,2.9219,2.8692,2.8532,2.7849,2.7242,2.6884,2.6843,2.6525,2.5631,2.5547,2.5263,2.4561,2.4497,2.4477,2.4384,2.4384,2.4208,2.3784,2.3681,2.3205,2.2318,2.1965,2.1779,2.1741,2.1741,2.1966,2.2366,2.1983,2.2148,0.0,0.0,0.0,0.0,2.3103,0.0,0.0,0.0,2.2818,2.1472,0.0,0.0,0.0,0.0,0.0,0.0,0.0,0.0,2.4372,2.5265,2.6221,2.6816,2.7306,2.7629,2.7694,2.7262,2.7192,2.7676,2.7339,2.729,2.7676,2.7712,2.7695,2.7603,2.7537,2.7498,2.7498,2.8033,2.8298,2.8298,2.8848,2.9096,2.9083,2.8547,2.8298,2.8272,2.7729,2.7498,2.7481,2.7361,2.718,2.6977,2.6777,2.6632,2.6512,2.6516,2.6508,2.6508,2.6508,2.6545,2.6587,2.6587,2.6955,2.7487,2.7959,2.8138,2.8176,2.8122,2.8188,2.8285,2.8201,2.8238,2.8288,2.8288,2.8665,2.8998,2.8998,2.9418,2.9801,2.9801,2.9801,2.9801,2.9801,2.9724,2.9397,2.8623,2.8413,2.7758,2.6152,2.5944,2.561,2.4743,2.4647,2.4615,2.4508,2.4497,2.4353,2.3991,2.3971,2.3753,2.3298,2.2883,2.234,2.1632,2.1743,2.1712,2.1531,2.1531,2.1657,2.188,2.1819,2.1855,0.0,0.0,0.0,0.0,0.0,0.0,2.1983,0.0,2.2106,0.0,0.0,0.0,0.0,0.0,0.0,0.0,2.2999,0.0,0.0,0.0,2.5544,2.6112,0.0,0.0,2.7,2.6834,2.6917,2.7459,2.7,2.693,2.7472,2.7498,2.7498,2.7498,2.7498,2.7498,2.7498,2.7755,2.7881,2.7881,2.8129,2.826,2.8246,2.7998,2.7881,2.7855,2.7603,2.7461,2.7377,2.7319,2.7108,2.682,2.6735,2.6624,2.6508,2.6508,2.6508,2.6508,2.6508,2.6508,2.6508,2.6508,2.665,2.6889,2.7106,2.7386,2.7566,2.7261,2.7616,2.8034,2.7717,2.7871,2.81,2.81,2.8505,2.8897,2.8897,2.938,2.9653,2.9138,2.905,2.8872,2.8323,2.8233,2.7941,2.7058,2.6505,2.5893,2.5147,2.5052,2.4914,2.454,2.4497,2.4454,2.4346,2.4079,2.3801,2.3501,2.3277,2.2941,2.2472,2.2268,2.1883,2.134,2.1416,2.1416,2.133,2.133,2.1368,2.1445,2.1445,2.1578,2.4016,0.0,0.0,0.0,0.0,0.0,0.0,0.0,0.0,0.0,0.0,0.0,0.0,0.0,0.0,0.0,0.0,2.262,0.0,2.3205,0.0,0.0,0.0,0.0,0.0,2.6319,2.6533,2.7227,2.6773,2.6765,2.7464,2.7498,2.7498,2.7498,2.7498,2.7498,2.7498,2.7498,2.7498,2.7498,2.7498,2.7498,2.7498,2.7498,2.7486,2.7453,2.7453,2.7361,2.7222,2.7222,2.7007,2.6696,2.6696,2.6624,2.6508,2.6508,2.6508,2.6508,2.6508,2.6508,2.6508,2.6508,2.6508,2.6508,2.6508,2.6776,2.6993,2.6612,2.7056,2.7566,2.7173,2.7374,2.7666,2.7666,2.8072,2.8493,2.8656,2.9142,2.9367,2.8729,2.8443,2.7959,2.6881,2.6926,2.6802,2.5923,2.5263,2.4754,2.4454,2.4308,2.4204,2.4151,2.4049,2.3954,2.3938,2.351,2.3142,2.2865,2.2453,2.206,2.1718,2.1708,2.1517,2.1128,2.1167,2.1167,2.1118,2.1118,2.1157,2.1195,2.1195,2.1359,0.0,0.0,0.0,2.3409,0.0,0.0,0.0,0.0,2.2165,0.0,0.0,0.0,0.0,0.0,0.0,0.0,0.0,0.0,0.0,0.0,0.0,0.0,0.0,0.0,0.0,2.5369,2.5515,2.6646,2.6177,2.6323,2.7446,2.7498,2.7498,2.7498,2.7498,2.7498,2.7498,2.7498,2.7498,2.7498,2.7498,2.7498,2.7498,2.7498,2.7436,2.731,2.731,2.7197,2.7015,2.7015,2.6892,2.6696,2.6696,2.6624,2.6508,2.6508,2.6508,2.6508,2.6508,2.6508,2.6508,2.6508,2.6508,2.6508,2.6508,2.6512,2.6512,2.6499,2.6512,2.6558,2.6524,2.6545,2.6558,2.6558,2.6955,2.7491,2.8009,2.8543,2.8913,2.8885,2.831,2.7358,2.5897,2.6456,2.6802,2.5923,2.5788,2.5379,2.4347,2.3808,2.3459,2.3259,2.2886,2.2826,2.3208,2.2856,2.2423,2.1969,2.1497,2.1245,2.1226,2.1226,2.1119,2.0906,2.1099,2.1099,2.0906,2.0906,2.1013,2.1195,2.1195,2.1215,0.0,0.0,2.4649,2.3454,0.0,0.0,0.0,0.0,0.0,0.0,0.0,0.0,0.0,0.0,0.0,0.0,0.0,0.0,0.0,0.0,0.0,0.0,0.0,0.0,0.0,0.0,2.5048,2.658,2.613,2.6297,2.7446,2.7498,2.7498,2.7498,2.7498,2.7498,2.7498,2.7498,2.7498,2.7498,2.7498,2.7498,2.7498,2.7498,2.7436,2.7281,2.6879,2.674,2.6769,2.6425,2.6388,2.6564,2.6564,2.6538,2.6508,2.6508,2.6508,2.6508,2.6508,2.6508,2.6508,2.6508,2.6508,2.6508,2.6508,2.6508,2.6508,2.6508,2.6508,2.6508,2.6508,2.6508,2.6508,2.6508,2.6905,2.7206,2.6846,2.7207,2.7257,2.6198,2.5683,2.5089,2.4007,2.3981,2.407,2.3907,2.3876,2.3701,2.3194,2.3,2.2878,2.2806,2.2675,2.2572,2.2537,2.2006,2.148,2.1066,2.0888,2.0799,2.0799,2.0799,2.077,2.0702,2.077,2.077,2.0702,2.0702,2.0741,2.0799,2.0799,2.0944,2.4588,2.4688,0.0,2.3106,2.2856,0.0,2.1041,0.0,2.1237,0.0,0.0,0.0,0.0,0.0,0.0,0.0,0.0,0.0,0.0,1.9926,0.0,0.0,0.0,0.0,0.0,0.0,2.4724,2.6263,2.6025,0.0,0.0,2.7498,2.7498,2.7498,2.7311,2.7311,2.7498,2.7311,2.7214,2.7227,2.7407,2.7289,2.6911,2.7315,2.7185,2.6647,2.643,2.6242,2.605,2.5675,2.5778,2.6176,2.6176,2.6176,2.621,2.6411,2.6508,2.6508,2.6508,2.6508,2.6508,2.6508,2.6508,2.6508,2.6508,2.6508,2.6508,2.6508,2.6508,2.6508,2.6508,2.6288,2.6068,2.6068,2.6126,2.6078,2.5772,2.5918,2.5814,2.4777,2.4176,2.3614,2.2856,2.238,2.2261,2.2727,2.2788,2.2706,2.2492,2.2331,2.221,2.2109,2.1969,2.1819,2.1658,2.1369,2.1025,2.0635,2.0605,2.0605,2.0605,2.0605,2.0605,2.0605,2.0605,2.0605,2.0605,2.0605,2.0605,2.0605,2.0605,2.0741]}]]